[[{"header":{"parameterUnit":"m.s-1","parameterCategory":1,"la1":30.6,"la2":28.766,"lo1":-90.7593,"lo2":-88.6598,"dx":0.0162,"dy":0.0183,"nx":116,"ny":114,"refTime":"2022-11-14T06:00:00:Z","depth":0,"parameterNumber":2,"parameterNumberName":"U-component_of_WINDS"},"data":[0.0,0.0,0.0,0.0,0.0,0.0,0.0,0.0,0.0,0.0,0.0,0.0,0.0,0.0,0.0,0.0,0.0,0.0,0.0,0.0,0.0,0.0,0.0,0.0,0.0,0.0,0.0,0.0,0.0,0.0,0.0,0.0,0.0,0.0,0.0,0.0,0.0,0.0,0.0,0.0,0.0,0.0,0.0,0.0,0.0,0.0,0.0,0.0,0.0,0.0,0.0,0.0,0.0,0.0,0.0,0.0,0.0,0.0,0.0,0.0,0.0,0.0,0.0,0.0,0.0,0.0,0.0,0.0,0.0,0.0,0.0,0.0,0.0,0.0,0.0,0.0,0.0,0.0,0.0,0.0,0.0,0.0,0.0,0.0,0.0,0.0,0.0,0.0,0.0,0.0,0.0,0.0,0.0,0.0,0.0,0.0,0.0,0.0,0.0,0.0,0.0,0.0,0.0,0.0,0.0,0.0,0.0,0.0,0.0,0.0,0.0,0.0,0.0,0.0,0.0,0.0,0.0,0.0,0.0,0.0,0.0,0.0,0.0,0.0,0.0,0.0,0.0,0.0,0.0,0.0,0.0,0.0,0.0,0.0,0.0,0.0,0.0,0.0,0.0,0.0,0.0,0.0,0.0,0.0,0.0,0.0,0.0,0.0,0.0,0.0,0.0,0.0,0.0,0.0,0.0,0.0,0.0,0.0,0.0,0.0,0.0,0.0,0.0,0.0,0.0,0.0,0.0,0.0,0.0,0.0,0.0,0.0,0.0,0.0,0.0,0.0,0.0,0.0,0.0,0.0,0.0,0.0,0.0,0.0,0.0,0.0,0.0,0.0,0.0,0.0,0.0,0.0,0.0,0.0,0.0,0.0,0.0,0.0,0.0,0.0,0.0,0.0,0.0,0.0,0.0,0.0,0.0,0.0,0.0,0.0,0.0,0.0,0.0,0.0,0.0,0.0,0.0,0.0,0.0,0.0,0.0,0.0,0.0,0.0,0.0,0.0,0.0,0.0,0.0,0.0,0.0,0.0,0.0,0.0,0.0,0.0,0.0,0.0,0.0,0.0,0.0,0.0,0.0,0.0,0.0,0.0,0.0,0.0,0.0,0.0,0.0,0.0,0.0,0.0,0.0,0.0,0.0,0.0,0.0,0.0,0.0,0.0,0.0,0.0,0.0,0.0,0.0,0.0,0.0,0.0,0.0,0.0,0.0,0.0,0.0,0.0,0.0,0.0,0.0,0.0,0.0,0.0,0.0,0.0,0.0,0.0,0.0,0.0,0.0,0.0,0.0,0.0,0.0,0.0,0.0,0.0,0.0,0.0,0.0,0.0,0.0,0.0,0.0,0.0,0.0,0.0,0.0,0.0,0.0,0.0,0.0,0.0,0.0,0.0,0.0,0.0,0.0,0.0,0.0,0.0,0.0,0.0,0.0,0.0,0.0,0.0,0.0,0.0,0.0,0.0,0.0,0.0,0.0,0.0,0.0,0.0,0.0,0.0,0.0,0.0,0.0,0.0,0.0,0.0,0.0,0.0,0.0,0.0,0.0,0.0,0.0,0.0,0.0,0.0,0.0,0.0,0.0,0.0,0.0,0.0,0.0,0.0,0.0,0.0,0.0,0.0,0.0,0.0,0.0,0.0,0.0,0.0,0.0,0.0,0.0,0.0,0.0,0.0,0.0,0.0,0.0,0.0,0.0,0.0,0.0,0.0,0.0,0.0,0.0,0.0,0.0,0.0,0.0,0.0,0.0,0.0,0.0,0.0,0.0,0.0,0.0,0.0,0.0,0.0,0.0,0.0,0.0,0.0,0.0,0.0,0.0,0.0,0.0,0.0,0.0,0.0,0.0,0.0,0.0,0.0,0.0,0.0,0.0,0.0,0.0,0.0,0.0,0.0,0.0,0.0,0.0,0.0,0.0,0.0,0.0,0.0,0.0,0.0,0.0,0.0,0.0,0.0,0.0,0.0,0.0,0.0,0.0,0.0,0.0,0.0,0.0,0.0,0.0,0.0,0.0,0.0,0.0,0.0,0.0,0.0,0.0,0.0,0.0,0.0,0.0,0.0,0.0,0.0,0.0,0.0,0.0,0.0,0.0,0.0,0.0,0.0,0.0,0.0,0.0,0.0,0.0,0.0,0.0,0.0,0.0,0.0,0.0,0.0,0.0,0.0,0.0,0.0,0.0,0.0,0.0,0.0,0.0,0.0,0.0,0.0,0.0,0.0,0.0,0.0,0.0,0.0,0.0,0.0,0.0,0.0,0.0,0.0,0.0,0.0,0.0,0.0,0.0,0.0,0.0,0.0,0.0,0.0,0.0,0.0,0.0,0.0,0.0,0.0,0.0,0.0,0.0,0.0,0.0,0.0,0.0,0.0,0.0,0.0,0.0,0.0,0.0,0.0,0.0,0.0,0.0,0.0,0.0,0.0,0.0,0.0,0.0,0.0,0.0,0.0,0.0,0.0,0.0,0.0,0.0,0.0,0.0,0.0,0.0,0.0,0.0,0.0,0.0,0.0,0.0,0.0,0.0,0.0,0.0,0.0,0.0,0.0,0.0,0.0,0.0,0.0,0.0,0.0,0.0,0.0,0.0,0.0,0.0,0.0,0.0,0.0,0.0,0.0,0.0,0.0,0.0,0.0,0.0,0.0,0.0,0.0,0.0,0.0,0.0,0.0,0.0,0.0,0.0,0.0,0.0,0.0,0.0,0.0,0.0,0.0,0.0,0.0,0.0,0.0,0.0,0.0,0.0,0.0,0.0,0.0,0.0,0.0,0.0,0.0,0.0,0.0,0.0,0.0,0.0,0.0,0.0,0.0,0.0,0.0,0.0,0.0,0.0,0.0,0.0,0.0,0.0,0.0,0.0,0.0,0.0,0.0,0.0,0.0,0.0,0.0,0.0,0.0,0.0,0.0,0.0,0.0,0.0,0.0,0.0,0.0,0.0,0.0,0.0,0.0,0.0,0.0,0.0,0.0,0.0,0.0,0.0,0.0,0.0,0.0,0.0,0.0,0.0,0.0,0.0,0.0,0.0,0.0,0.0,0.0,0.0,0.0,0.0,0.0,0.0,0.0,0.0,0.0,0.0,0.0,0.0,0.0,0.0,0.0,0.0,0.0,0.0,0.0,0.0,0.0,0.0,0.0,0.0,0.0,0.0,0.0,0.0,0.0,0.0,0.0,0.0,0.0,0.0,0.0,0.0,0.0,0.0,0.0,0.0,0.0,0.0,0.0,0.0,0.0,0.0,0.0,0.0,0.0,0.0,0.0,0.0,0.0,0.0,0.0,0.0,0.0,0.0,0.0,0.0,0.0,0.0,0.0,0.0,0.0,0.0,0.0,0.0,0.0,0.0,0.0,0.0,0.0,0.0,0.0,0.0,0.0,0.0,0.0,0.0,0.0,0.0,0.0,0.0,0.0,0.0,0.0,0.0,0.0,0.0,0.0,0.0,0.0,0.0,0.0,0.0,0.0,0.0,0.0,0.0,0.0,0.0,0.0,0.0,0.0,0.0,0.0,0.0,0.0,0.0,0.0,0.0,0.0,0.0,0.0,0.0,0.0,0.0,0.0,0.0,0.0,0.0,0.0,0.0,0.0,0.0,0.0,0.0,0.0,0.0,0.0,0.0,0.0,0.0,0.0,0.0,0.0,0.0,0.0,0.0,0.0,0.0,0.0,0.0,0.0,0.0,0.0,0.0,0.0,0.0,0.0,0.0,0.0,0.0,0.0,0.0,0.0,0.0,0.0,0.0,0.0,0.0,0.0,0.0,0.0,0.0,0.0,0.0,0.0,0.0,0.0,0.0,0.0,0.0,0.0,0.0,0.0,0.0,0.0,0.0,0.0,0.0,0.0,0.0,0.0,0.0,0.0,0.0,0.0,0.0,0.0,0.0,0.0,0.0,0.0,0.0,0.0,0.0,0.0,0.0,0.0,0.0,0.0,0.0,0.0,0.0,0.0,0.0,0.0,0.0,0.0,0.0,0.0,0.0,0.0,0.0,0.0,0.0,0.0,0.0,0.0,0.0,0.0,0.0,0.0,0.0,0.0,0.0,0.0,0.0,0.0,0.0,0.0,0.0,0.0,0.0,0.0,0.0,0.0,0.0,0.0,0.0,0.0,0.0,0.0,0.0,0.0,0.0,0.0,0.0,0.0,0.0,0.0,0.0,0.0,0.0,0.0,0.0,0.0,0.0,0.0,0.0,0.0,0.0,0.0,0.0,0.0,0.0,0.0,0.0,0.0,0.0,0.0,0.0,0.0,0.0,0.0,0.0,0.0,0.0,0.0,0.0,0.0,0.0,0.0,0.0,0.0,0.0,0.0,0.0,0.0,0.0,0.0,0.0,0.0,0.0,0.0,0.0,0.0,0.0,0.0,0.0,0.0,0.0,0.0,0.0,0.0,0.0,0.0,0.0,0.0,0.0,0.0,0.0,0.0,0.0,0.0,0.0,0.0,0.0,0.0,0.0,0.0,0.0,0.0,0.0,0.0,0.0,0.0,0.0,0.0,0.0,0.0,0.0,0.0,0.0,0.0,0.0,0.0,0.0,0.0,0.0,0.0,0.0,0.0,0.0,0.0,0.0,0.0,0.0,0.0,0.0,0.0,0.0,0.0,0.0,0.0,0.0,0.0,0.0,0.0,0.0,0.0,0.0,0.0,0.0,0.0,0.0,0.0,0.0,0.0,0.0,0.0,0.0,0.0,0.0,0.0,0.0,0.0,0.0,0.0,0.0,0.0,0.0,0.0,0.0,0.0,0.0,0.0,0.0,0.0,0.0,0.0,0.0,0.0,0.0,0.0,0.0,0.0,0.0,0.0,0.0,0.0,0.0,0.0,0.0,0.0,0.0,0.0,0.0,0.0,0.0,0.0,0.0,0.0,0.0,0.0,0.0,0.0,0.0,0.0,0.0,0.0,0.0,0.0,0.0,0.0,0.0,0.0,0.0,0.0,0.0,0.0,0.0,0.0,0.0,0.0,0.0,0.0,0.0,0.0,0.0,0.0,0.0,0.0,0.0,0.0,0.0,0.0,0.0,0.0,0.0,0.0,0.0,0.0,0.0,0.0,0.0,0.0,0.0,0.0,0.0,0.0,0.0,0.0,0.0,0.0,0.0,0.0,0.0,0.0,0.0,0.0,0.0,0.0,0.0,0.0,0.0,0.0,0.0,0.0,0.0,0.0,0.0,0.0,0.0,0.0,0.0,0.0,0.0,0.0,0.0,0.0,0.0,0.0,0.0,0.0,0.0,0.0,0.0,0.0,0.0,0.0,0.0,0.0,0.0,0.0,0.0,0.0,0.0,0.0,0.0,0.0,0.0,0.0,0.0,0.0,0.0,0.0,0.0,0.0,0.0,0.0,0.0,0.0,0.0,0.0,0.0,0.0,0.0,0.0,0.0,0.0,0.0,0.0,0.0,0.0,0.0,0.0,0.0,0.0,0.0,0.0,0.0,0.0,0.0,0.0,0.0,0.0,0.0,0.0,0.0,0.0,0.0,0.0,0.0,0.0,0.0,0.0,0.0,0.0,0.0,0.0,0.0,0.0,0.0,0.0,0.0,0.0,0.0,0.0,0.0,0.0,0.0,0.0,0.0,0.0,0.0,0.0,0.0,0.0,0.0,0.0,0.0,0.0,0.0,0.0,0.0,0.0,0.0,0.0,0.0,0.0,0.0,0.0,0.0,0.0,0.0,0.0,0.0,0.0,0.0,0.0,0.0,0.0,0.0,0.0,0.0,0.0,0.0,0.0,0.0,0.0,0.0,0.0,0.0,0.0,0.0,0.0,0.0,0.0,0.0,0.0,0.0,0.0,0.0,0.0,0.0,0.0,0.0,0.0,0.0,0.0,0.0,0.0,0.0,0.0,0.0,0.0,0.0,0.0,0.0,0.0,0.0,0.0,0.0,0.0,0.0,0.0,0.0,0.0,0.0,0.0,0.0,0.0,0.0,0.0,0.0,0.0,0.0,0.0,0.0,0.0,0.0,0.0,0.0,0.0,0.0,0.0,0.0,0.0,0.0,0.0,0.0,0.0,0.0,0.0,0.0,0.0,0.0,0.0,0.0,0.0,0.0,0.0,0.0,0.0,0.0,0.0,0.0,0.0,0.0,0.0,4.8048,0.0,0.0,0.0,0.0,0.0,0.0,0.0,0.0,0.0,0.0,0.0,0.0,0.0,0.0,0.0,0.0,0.0,0.0,0.0,0.0,0.0,0.0,0.0,0.0,2.2543,2.2966,2.3398,2.3437,0.0,0.0,0.0,0.0,0.0,0.0,0.0,2.2846,2.2863,2.3835,2.5879,2.7215,3.0733,3.6149,3.2998,3.0644,2.8973,0.0,0.0,0.0,0.0,0.0,0.0,0.0,0.0,0.0,0.0,0.0,0.0,0.0,0.0,0.0,0.0,0.0,0.0,0.0,0.0,0.0,0.0,0.0,0.0,0.0,0.0,0.0,0.0,0.0,0.0,0.0,0.0,0.0,0.0,0.0,0.0,0.0,0.0,0.0,0.0,0.0,0.0,0.0,0.0,0.0,0.0,0.0,0.0,0.0,0.0,0.0,0.0,0.0,0.0,0.0,0.0,0.0,0.0,0.0,0.0,0.0,0.0,0.0,0.0,0.0,0.0,0.0,0.0,0.0,0.0,0.0,4.9202,0.0,0.0,0.0,0.0,0.0,0.0,0.0,0.0,0.0,0.0,0.0,0.0,0.0,0.0,0.0,0.0,0.0,0.0,0.0,0.0,0.0,2.2274,2.312,2.3351,2.3851,2.4899,2.4822,2.4754,2.4745,2.4639,0.0,0.0,0.0,0.0,2.3573,2.386,2.6116,3.0347,3.3649,3.7919,4.3041,4.335,0.0,0.0,0.0,0.0,0.0,0.0,0.0,0.0,0.0,0.0,0.0,0.0,0.0,0.0,0.0,0.0,0.0,0.0,0.0,0.0,0.0,0.0,0.0,0.0,0.0,0.0,0.0,0.0,0.0,0.0,0.0,0.0,0.0,0.0,0.0,0.0,0.0,0.0,0.0,0.0,0.0,0.0,0.0,0.0,0.0,0.0,0.0,0.0,0.0,0.0,0.0,0.0,0.0,0.0,0.0,0.0,0.0,0.0,0.0,0.0,0.0,0.0,0.0,0.0,0.0,0.0,5.9011,6.0089,6.0935,6.0204,6.1435,6.3743,5.7819,5.7896,6.1512,5.151,0.0,0.0,0.0,0.0,0.0,0.0,0.0,0.0,0.0,0.0,0.0,0.0,0.0,0.0,0.0,0.0,0.0,0.0,0.0,2.4082,2.4889,2.5659,2.6736,2.8313,2.7806,2.7392,2.7382,2.6757,0.0,0.0,0.0,0.0,2.6158,2.7727,3.0643,3.4951,4.413,4.9523,5.1201,5.2589,5.262,5.1152,0.0,0.0,0.0,0.0,0.0,0.0,0.0,0.0,0.0,0.0,0.0,0.0,0.0,0.0,0.0,0.0,0.0,0.0,0.0,0.0,0.0,0.0,0.0,0.0,0.0,0.0,0.0,0.0,0.0,0.0,0.0,0.0,0.0,0.0,0.0,0.0,0.0,0.0,0.0,0.0,0.0,0.0,0.0,0.0,4.574,4.9279,0.0,0.0,0.0,0.0,0.0,0.0,0.0,0.0,0.0,0.0,0.0,0.0,0.0,5.6819,5.9588,6.205,6.4051,6.5628,6.8706,7.0667,7.1514,7.1398,7.1591,7.186,6.9436,0.0,6.2974,6.0704,0.0,0.0,0.0,0.0,0.0,0.0,0.0,0.0,0.0,0.0,0.0,0.0,0.0,0.0,0.0,0.0,0.0,0.0,0.0,0.0,0.0,2.9935,3.2297,3.4017,3.4723,3.4106,3.1719,3.0755,0.0,0.0,0.0,2.6618,2.7503,3.1164,3.6828,4.4565,5.1035,5.4908,5.6359,5.7087,5.7212,5.6719,5.2909,4.807,4.2626,4.0539,0.0,0.0,0.0,0.0,0.0,0.0,0.0,0.0,0.0,0.0,0.0,0.0,0.0,0.0,0.0,0.0,0.0,0.0,0.0,0.0,0.0,0.0,0.0,0.0,0.0,0.0,0.0,0.0,0.0,0.0,0.0,0.0,0.0,0.0,0.0,0.0,0.0,0.0,0.0,4.4701,4.9163,5.3049,5.051,4.774,0.0,0.0,0.0,0.0,0.0,0.0,0.0,0.0,0.0,6.1858,6.2435,6.4359,6.7898,6.9475,7.0629,7.1398,7.3399,7.4784,7.563,7.513,7.5168,7.5553,7.4322,7.2514,7.0129,6.5936,6.2704,6.0012,0.0,0.0,0.0,0.0,5.6126,5.7049,0.0,0.0,0.0,0.0,0.0,0.0,0.0,0.0,0.0,0.0,0.0,0.0,3.0921,3.475,3.7848,3.9573,4.0745,3.9857,3.6279,3.4596,3.2094,2.8303,2.7714,2.8124,2.9479,3.6293,4.4191,5.3058,5.6728,5.9182,6.0503,6.051,6.0401,6.0156,6.0175,5.5933,4.8664,4.6483,4.3365,0.0,0.0,0.0,0.0,0.0,0.0,0.0,0.0,0.0,0.0,0.0,0.0,0.0,0.0,0.0,0.0,0.0,0.0,0.0,0.0,0.0,0.0,0.0,0.0,0.0,0.0,0.0,0.0,0.0,0.0,0.0,0.0,0.0,0.0,0.0,0.0,0.0,0.0,4.924,5.3087,5.6896,5.5511,5.3164,0.0,0.0,0.0,0.0,0.0,0.0,5.9473,6.0627,6.3435,6.8321,6.9052,7.1014,7.4437,7.4861,7.513,7.5361,7.6015,7.6784,7.7592,7.6938,7.6976,7.7553,7.6899,7.663,7.6207,7.0744,6.809,6.7244,6.4474,6.2589,6.1627,6.3166,6.4282,6.5513,0.0,0.0,0.0,0.0,0.0,0.0,0.0,0.0,0.0,0.0,0.0,3.3619,3.6126,3.956,4.2353,4.4028,4.3578,4.2394,4.0591,3.7409,3.442,3.185,3.0213,3.0525,3.2994,4.4596,5.289,5.7578,6.1835,6.3945,6.4023,6.4023,6.3593,6.2812,6.2812,6.0312,5.5859,5.2461,4.9492,4.6484,0.0,0.0,0.0,0.0,0.0,0.0,0.0,0.0,0.0,0.0,0.0,0.0,0.0,0.0,0.0,0.0,0.0,0.0,0.0,0.0,0.0,0.0,0.0,0.0,0.0,0.0,0.0,0.0,0.0,0.0,0.0,0.0,0.0,0.0,0.0,0.0,0.0,0.0,0.0,6.1473,6.3012,0.0,0.0,0.0,0.0,5.7857,5.9511,6.232,6.6359,6.8205,7.1091,7.5361,7.5515,7.6053,7.7092,7.6322,7.6361,7.7169,7.7207,7.7669,7.8438,7.84,7.84,7.8438,7.84,7.8361,7.8207,7.6284,7.4053,7.1783,7.0783,6.8898,6.7128,7.0398,7.2168,7.3514,0.0,0.0,0.0,2.2197,2.2812,2.3283,2.359,2.4812,2.5938,2.6535,3.1758,3.6215,3.826,4.4003,4.8423,5.014,5.1083,5.0449,4.7658,4.2742,3.9553,3.8741,3.4956,3.6908,4.5582,5.2211,5.7686,6.2031,6.4101,6.4844,6.4297,6.4883,6.4687,6.3828,6.3828,6.3008,6.1367,5.8437,5.5078,5.1445,4.8437,4.3867,0.0,0.0,0.0,0.0,0.0,0.0,0.0,0.0,0.0,0.0,0.0,0.0,0.0,0.0,0.0,0.0,0.0,0.0,0.0,0.0,0.0,0.0,0.0,0.0,0.0,0.0,0.0,0.0,0.0,0.0,0.0,0.0,0.0,0.0,0.0,0.0,0.0,6.1935,6.3589,0.0,6.1396,6.3128,6.4282,6.3974,6.8052,7.0975,7.1937,7.363,7.5284,7.6784,7.7323,7.8015,7.89,7.8592,7.89,7.9746,7.9746,8.0169,8.0939,8.0939,8.1246,8.1785,8.1785,8.1785,8.1747,8.1131,7.9054,7.6207,7.5899,7.5592,7.5438,7.663,7.763,7.8669,0.0,0.0,0.0,2.3052,2.3732,2.4212,2.4482,2.5763,2.7393,2.9381,3.4874,3.9792,4.2936,4.8864,5.3094,5.431,5.578,5.5105,5.1464,4.7003,4.3826,4.246,4.0234,4.4023,5.4648,5.8008,6.1601,6.5625,6.6758,6.6875,6.6055,6.6914,6.6875,6.6055,6.6015,6.5859,6.5469,6.3437,6.0273,5.6406,5.4062,4.9726,4.4297,0.0,0.0,0.0,0.0,0.0,0.0,0.0,0.0,0.0,0.0,0.0,0.0,0.0,0.0,0.0,0.0,0.0,0.0,0.0,0.0,0.0,0.0,0.0,0.0,0.0,0.0,0.0,0.0,0.0,0.0,0.0,0.0,0.0,0.0,0.0,6.2281,6.2858,6.5436,6.6513,6.482,6.7705,6.9783,7.009,7.4053,7.6438,7.6438,7.7515,7.84,7.8977,7.9477,8.0208,8.1054,8.1093,8.1362,8.1939,8.1939,8.2208,8.2747,8.2747,8.3054,8.3593,8.3593,8.3593,8.3593,8.3593,8.2247,8.0208,8.0208,8.0554,8.1093,8.1093,8.1631,8.2516,0.0,0.0,2.212,2.386,2.4199,2.4486,2.5298,2.6219,2.8946,3.4796,3.9414,4.4357,5.0201,5.3945,5.6089,5.6244,5.7035,5.5818,5.1752,4.9749,4.6884,0.0,0.0,0.0,5.9297,6.1953,6.4922,6.832,6.9961,7.0351,6.9609,7.039,7.0312,6.9531,6.9453,6.8984,6.8164,6.7305,6.5,6.1445,5.6328,5.3203,5.1016,0.0,0.0,0.0,0.0,0.0,0.0,0.0,0.0,0.0,0.0,0.0,0.0,0.0,0.0,0.0,0.0,0.0,0.0,0.0,0.0,0.0,0.0,0.0,0.0,0.0,0.0,0.0,0.0,0.0,0.0,0.0,0.0,0.0,5.855,6.2127,6.4782,6.482,6.9244,7.1629,7.0052,7.286,7.5168,7.6053,7.6938,7.813,7.9785,7.99,8.0669,8.2285,8.2324,8.2747,8.3632,8.3632,8.3632,8.367,8.367,8.367,8.367,8.3708,8.3708,8.367,8.3708,8.3747,8.3708,8.3747,8.3747,8.3747,8.3632,8.3593,8.3593,8.3593,8.4132,8.5016,2.3437,2.3552,2.3697,2.4774,2.5048,2.5143,2.5368,2.6715,2.9411,3.4129,3.9547,4.4776,4.9498,5.3691,5.6399,5.7074,5.7461,5.7151,5.6012,5.1502,4.861,0.0,0.0,0.0,6.4726,6.789,7.0,7.0976,7.2031,7.2148,7.1328,7.1523,7.1172,7.0351,6.9687,6.9297,6.9101,6.8203,6.7305,6.6055,6.2109,5.914,5.668,0.0,0.0,0.0,0.0,0.0,0.0,0.0,0.0,0.0,0.0,0.0,0.0,0.0,0.0,0.0,0.0,0.0,0.0,0.0,0.0,0.0,0.0,0.0,0.0,0.0,0.0,0.0,0.0,0.0,0.0,0.0,0.0,6.4499,6.3897,6.6397,6.8744,6.9975,7.2437,7.4091,7.4245,7.5668,7.7207,7.8669,7.9554,8.0516,8.1554,8.2208,8.2747,8.3208,8.3247,8.367,8.4516,8.4581,8.492,8.5498,8.5599,8.5629,8.5668,8.6246,8.6169,8.5707,8.6902,8.7095,8.6555,8.7172,8.7442,8.721,8.4619,8.3593,8.3593,8.3593,8.4132,8.4939,2.4274,2.4322,2.436,2.5149,2.5382,2.5452,2.543,2.6993,3.0341,3.634,4.0784,4.5742,5.1741,5.5006,5.6996,5.7538,5.7981,5.7474,5.5735,5.2394,5.2344,0.0,0.0,6.6836,6.9531,7.1523,7.2734,7.3086,7.3945,7.3945,7.3086,7.3476,7.2969,7.1758,7.125,7.0859,7.0508,6.9609,6.9258,6.9023,6.6289,6.3633,6.1015,5.8047,5.5703,5.3633,5.1172,4.9922,4.9414,4.9023,0.0,0.0,0.0,0.0,0.0,0.0,0.0,0.0,0.0,0.0,0.0,0.0,0.0,0.0,0.0,0.0,0.0,0.0,0.0,0.0,0.0,0.0,0.0,0.0,6.5947,6.9463,7.0052,7.0783,7.1898,7.3591,7.4668,7.5861,7.7438,7.8361,7.9438,8.0746,8.1662,8.2547,8.3362,8.3926,8.435,8.4632,8.4735,8.5151,8.6005,8.603,8.6516,8.7326,8.7395,8.7464,8.7464,8.7927,8.7889,8.7503,8.8467,8.8583,8.8159,8.866,8.866,0.0,0.0,0.0,0.0,0.0,8.5722,8.5613,2.4851,2.4659,2.4476,2.5207,2.5422,2.5505,2.5511,2.7082,3.1337,3.9792,4.2499,4.6831,5.5299,5.7035,5.7671,5.7826,5.8645,5.7553,5.3827,5.3945,0.0,6.539,6.6289,6.8789,7.3476,7.3672,7.4101,7.4883,7.5664,7.5664,7.4922,7.5586,7.5078,7.3594,7.3398,7.2851,7.2109,7.1211,7.0859,7.0703,6.9101,6.7031,6.4492,6.1172,5.9961,5.9648,5.6328,5.5156,5.5039,5.4219,0.0,0.0,0.0,0.0,0.0,0.0,0.0,0.0,0.0,0.0,0.0,0.0,0.0,0.0,0.0,0.0,0.0,0.0,0.0,0.0,0.0,0.0,0.0,0.0,6.9746,7.379,7.6005,7.5091,7.4707,7.5976,7.6399,7.7476,7.9746,8.0823,8.1708,8.2516,8.338,8.4188,8.4978,0.0,0.0,0.0,0.0,8.6894,8.7641,8.7704,8.815,8.8922,8.8922,8.8999,8.9077,8.9223,8.93,8.93,8.9493,8.9454,8.93,8.9347,8.8884,8.815,8.8498,8.866,8.8737,8.8622,8.7657,8.6615,2.4129,2.4736,2.5139,2.5335,2.543,2.5531,2.559,2.7144,3.1337,3.9792,4.2499,4.6831,5.5299,5.7074,5.7981,5.8695,5.959,5.9795,5.8945,0.0,6.418,6.6523,7.0625,7.3672,7.5351,7.6094,7.6523,7.6719,7.6875,7.6875,7.668,7.6133,7.5703,7.5351,7.3945,7.3203,7.3008,7.2109,7.1758,7.164,7.0625,6.9492,6.8125,6.539,6.4805,6.5156,6.3047,6.2305,6.2265,6.2109,6.043,5.8398,5.8397,0.0,0.0,0.0,0.0,0.0,0.0,0.0,0.0,0.0,0.0,0.0,0.0,0.0,0.0,0.0,0.0,0.0,0.0,0.0,0.0,7.0541,7.4483,7.7554,7.8055,7.8412,7.8267,7.7169,7.8861,8.0323,8.0785,8.2271,8.3503,8.4324,8.4643,8.5167,8.5883,8.6054,8.6508,8.7287,8.7357,8.7773,8.8622,8.8682,8.8789,8.8982,0.0,0.0,9.0362,9.1174,9.1561,9.1638,9.2992,9.2799,9.16,9.2257,9.2025,9.0942,8.8026,8.7271,8.7773,8.7117,8.6693,8.6461,2.4589,2.5081,2.536,2.5378,2.5499,2.5543,2.5568,2.7156,3.0882,3.8099,4.0998,4.497,5.1713,5.3701,5.4546,5.4585,5.6192,5.8281,0.0,6.3906,6.7148,7.0586,7.3633,7.5664,7.6523,7.6992,7.7187,7.7187,7.7656,7.7617,7.7187,7.7187,7.6758,7.5859,7.5,7.4101,7.3281,7.2851,7.2383,7.1953,7.1523,7.1094,7.043,6.7851,6.7422,6.793,6.6211,6.6133,6.6719,6.5898,6.5039,6.4297,6.4297,6.1814,5.8164,0.0,0.0,0.0,0.0,0.0,0.0,0.0,0.0,0.0,0.0,0.0,0.0,0.0,0.0,6.3869,0.0,0.0,7.302,7.347,7.712,7.9923,7.9923,8.0694,8.0772,7.9471,8.0761,8.2109,8.3025,8.3864,8.4905,8.6146,8.6384,8.6761,8.748,8.7717,8.7939,8.8236,8.8403,8.9088,9.0342,9.0537,9.0798,9.1223,9.1329,9.1398,9.1431,9.1936,9.2131,9.2208,9.3024,9.2908,9.2131,9.2148,9.2131,9.182,8.9077,8.8505,8.9272,8.9233,8.8731,8.8113,2.5241,2.5395,2.5434,2.5437,2.5514,2.5592,2.5622,2.7147,3.0386,3.6172,3.9141,4.2595,4.7675,4.9666,5.0586,5.0469,5.3086,5.6797,0.0,6.5039,6.914,7.4375,7.5586,7.6484,7.7187,7.7187,7.7187,7.7187,7.789,7.789,7.7226,7.793,7.75,7.6133,7.5976,7.5117,7.3789,7.3633,7.3164,7.25,7.25,7.25,7.2265,7.0234,6.9531,6.9453,6.7969,6.8047,6.875,6.7734,6.7656,6.8047,6.8515,6.6439,6.3196,5.9986,5.7583,0.0,0.0,0.0,0.0,0.0,0.0,0.0,0.0,0.0,6.2562,6.575,6.7551,6.9053,7.0465,7.3779,7.6311,7.6365,7.9467,8.1821,8.1821,8.2554,8.2824,8.2157,8.2574,8.3586,8.5188,8.5342,8.596,8.7503,8.7746,8.8084,8.8652,8.903,8.93,8.9454,8.9638,9.0494,9.2108,9.2148,9.2508,9.3142,9.3347,9.3178,9.2649,9.2666,9.2869,9.3181,9.3025,9.2947,9.2908,9.2078,9.2132,9.2547,9.1236,9.1118,9.1733,9.1655,9.0763,8.9794,2.5228,2.5429,2.5499,2.5582,2.5575,2.56,2.5691,2.7181,3.0156,3.5351,3.7724,4.0837,4.5928,4.7391,4.8906,5.1094,5.5078,0.0,6.2617,6.8164,7.2265,7.4492,7.6172,7.7109,7.7187,7.7187,7.7187,7.7187,7.7305,7.7305,7.7187,7.7305,7.7226,7.7031,7.625,7.5781,7.5547,7.4765,7.4414,7.4297,7.4297,7.4297,7.4297,7.3984,7.25,7.043,6.9531,6.832,6.7383,6.875,6.8242,6.7422,6.9726,6.9021,6.6913,6.426,0.0,5.8826,5.5186,5.5511,0.0,5.9114,5.9917,6.2337,0.0,0.0,7.0328,7.5928,7.7764,7.843,7.8679,8.027,8.1591,8.1687,8.2775,8.3603,8.3603,8.4375,8.4905,8.4881,8.485,8.5188,8.6152,8.6288,8.6703,8.7541,8.7803,8.7909,8.7929,8.8864,9.0041,9.155,9.1008,9.1509,9.3188,9.2503,9.2152,9.2254,9.3216,9.4005,9.4615,9.4792,9.5662,9.7029,9.6326,9.6013,9.5935,9.5076,9.476,9.4822,9.464,9.4627,9.4349,9.1062,8.9738,8.9621,2.5398,2.5522,2.5568,2.5585,2.5621,2.5667,2.5693,2.6757,2.8867,3.25,3.4515,3.6766,3.9901,4.1072,4.2656,4.5234,5.1211,5.6328,5.9805,6.707,7.1797,7.3047,7.5234,7.6445,7.6445,7.6953,7.7187,7.7187,7.7695,7.7695,7.7226,7.7734,7.7695,7.7187,7.6836,7.6367,7.5898,7.5508,7.4765,7.3906,7.4414,7.4297,7.3906,7.4414,7.3906,7.2656,7.0273,6.8984,0.0,0.0,6.7851,6.8008,7.0078,6.9113,6.6847,6.4871,6.3033,0.0,6.2289,6.218,0.0,0.0,6.7639,6.858,7.4021,7.518,7.6044,7.9544,8.0877,8.1649,8.214,8.2438,8.2747,0.0,8.4132,8.47,8.47,8.5473,8.6235,8.6764,8.6749,8.6876,8.7262,8.729,8.787,8.9156,8.9406,8.9743,9.0179,9.071,9.1295,9.1977,9.1863,9.2587,9.4263,9.4039,9.4142,9.4688,9.5124,9.5237,9.5093,9.5142,9.5586,9.6211,9.5898,9.5742,9.5703,9.5351,9.5189,9.5196,9.5202,9.5196,9.5001,9.3439,9.2853,9.2853,2.5492,2.5569,2.5645,2.5624,2.5662,2.5702,2.5702,2.6445,2.7851,3.0234,3.1797,3.3359,3.5078,3.6055,3.7656,4.0234,4.6875,5.2812,0.0,6.4922,7.0117,7.1914,7.4258,7.5664,7.5898,7.6523,7.6953,7.7187,7.7812,7.7812,7.7226,7.7851,7.7812,7.7187,7.6953,7.6484,7.5898,7.5625,7.4805,7.3711,7.4336,7.4375,7.4101,7.4726,7.4375,7.3164,7.039,6.8984,0.0,0.0,6.5742,6.6289,6.7773,6.7031,6.55,6.4584,6.3612,6.3447,6.6337,0.0,0.0,7.3064,7.4262,7.492,7.7485,7.9031,8.0383,8.2069,8.2891,8.3558,8.4397,8.4309,8.4298,8.4905,8.5577,8.6107,8.6339,8.6726,8.7267,8.8157,8.8273,8.8389,8.866,8.8428,8.8892,9.0362,9.0621,9.0946,9.1602,9.2212,9.2663,9.2869,9.3085,9.3881,9.532,9.5261,9.5508,9.6133,9.6406,9.6172,9.5586,9.5781,9.5781,9.5586,9.5781,9.5898,9.5898,9.5898,9.5898,9.5898,9.5898,9.5898,9.5898,9.5898,9.5586,9.5195,2.5492,2.5608,2.5685,2.5693,2.5691,2.5703,2.5703,2.6445,2.7656,2.9414,3.043,3.1601,3.3281,3.4258,3.582,3.8437,4.3476,4.9375,5.6172,6.2344,6.7617,7.1836,7.3711,7.5039,7.5898,7.5937,7.6367,7.7187,7.7226,7.7226,7.7187,7.7226,7.7226,7.7148,7.6328,7.5937,7.5859,7.5,7.4609,7.457,7.4609,7.5078,7.582,7.5859,7.375,7.0703,6.9726,0.0,0.0,0.0,6.1328,6.0781,6.168,6.25,0.0,6.4062,6.3632,6.3252,6.4984,0.0,7.1959,7.4615,7.8258,8.1465,8.2393,8.2625,8.3167,8.483,8.5164,8.5407,8.6351,8.7136,8.7687,8.7743,8.7809,8.8118,8.8969,8.8389,8.8196,8.9047,8.9163,8.9549,0.0,8.9704,8.9588,9.0621,9.0699,9.0772,9.0935,9.2643,9.4016,9.4779,9.4997,9.5546,9.6444,9.5625,9.5195,9.5234,9.6094,9.6484,9.6484,9.7265,9.7187,9.6484,9.7304,9.7617,9.7617,9.7617,9.7617,9.7617,9.7617,9.7617,9.7617,9.7617,9.6601,9.5195,2.5574,2.5641,2.5685,2.5685,2.5691,2.5703,2.5703,2.5937,2.6758,2.8516,3.0,0.0,0.0,0.0,0.0,0.0,4.2656,4.7773,5.125,5.9805,6.539,6.6836,7.1289,7.3867,7.418,7.4726,7.5195,7.5469,7.5469,7.5469,7.5508,7.6055,7.6015,7.5508,7.5781,7.5586,7.5039,7.4726,7.4258,7.3789,7.4375,7.375,7.2578,7.3711,7.1328,6.7031,0.0,0.0,0.0,0.0,0.0,0.0,6.2109,6.1953,6.1445,6.2305,6.4414,6.7138,7.0367,0.0,7.6571,7.9559,8.1324,8.2741,8.4134,8.4908,8.5643,8.6803,8.6544,8.6389,8.7306,8.7202,8.7202,8.7809,8.8389,8.866,8.8389,8.8079,8.8234,8.9085,8.9279,0.0,0.0,0.0,0.0,9.1522,9.1754,9.2096,9.2697,9.3443,9.4237,9.5056,9.5145,9.5625,9.6484,9.6211,9.6328,9.6875,9.7148,9.7304,9.7304,9.7578,9.7851,9.8164,9.8437,9.8906,9.9414,9.9414,9.9414,9.9414,9.9414,9.9414,9.9414,9.9414,9.9062,9.8515,2.5613,2.5673,2.5685,2.5685,2.5691,0.0,0.0,0.0,0.0,0.0,0.0,0.0,0.0,0.0,0.0,0.0,0.0,4.5273,4.8242,5.5508,6.0508,6.2383,6.6172,6.8555,6.914,6.9414,7.0156,7.1367,7.1992,7.2773,7.3711,7.4883,7.5156,7.4609,7.4844,7.4648,7.4101,7.3789,7.3359,7.2773,7.2109,7.1015,6.9765,6.9336,6.6523,0.0,0.0,0.0,0.0,0.0,0.0,0.0,6.0078,6.1015,6.1758,6.3828,6.6211,6.9291,7.4205,7.7254,7.9816,8.2973,8.4018,8.4637,8.6068,8.6803,8.7538,8.866,8.7963,8.7461,8.8582,8.8118,8.7809,8.866,8.9511,8.9782,8.8931,8.9047,8.9395,8.9704,9.0052,9.0749,0.0,0.0,0.0,9.218,9.2633,9.3103,9.3725,9.4441,9.5078,9.5664,9.5937,9.6367,9.6914,9.6914,9.7187,9.7695,9.8008,9.8164,9.8164,9.8476,9.8945,9.9453,9.9453,9.9765,10.0312,10.0312,10.0312,10.0312,10.0312,10.0312,10.0312,10.0312,10.0508,10.0586,2.5685,2.5701,2.5708,0.0,0.0,0.0,0.0,0.0,0.0,0.0,0.0,0.0,0.0,0.0,0.0,0.0,0.0,0.0,4.6875,4.9766,5.3516,5.8594,5.9023,5.9883,6.1523,6.0742,6.1953,6.5273,6.6953,6.9023,7.1445,7.3203,7.3984,7.3906,7.3125,7.2734,7.2656,7.1836,7.1445,7.1133,6.7851,6.6992,6.7148,6.3047,0.0,0.0,0.0,0.0,0.0,0.0,0.0,0.0,0.0,6.0156,6.4297,6.8515,6.9297,7.0189,7.6536,7.966,8.1852,8.4895,8.6352,8.732,8.8275,8.8404,8.8725,9.0261,8.9074,8.8196,0.0,0.0,8.9201,8.9975,9.0981,9.1406,9.0594,9.1135,9.1406,0.0,0.0,0.0,0.0,0.0,0.0,9.2599,0.0,9.3862,9.4022,9.5586,9.6523,9.6562,9.7304,9.7695,9.7695,9.7695,9.7734,9.7851,9.8633,9.9023,9.9101,9.9922,10.0312,10.039,10.039,10.039,10.039,10.039,10.039,10.039,10.039,10.039,10.039,10.039,10.1015,10.1484,0.0,0.0,0.0,0.0,0.0,0.0,0.0,0.0,0.0,0.0,0.0,0.0,0.0,0.0,0.0,0.0,0.0,0.0,4.1719,4.668,0.0,0.0,0.0,0.0,0.0,0.0,0.0,0.0,6.1875,6.2734,6.3398,6.5156,6.5625,6.5,6.543,6.5273,6.4648,6.4414,6.3945,6.3281,6.2422,6.1055,5.9492,0.0,0.0,0.0,0.0,0.0,0.0,0.0,0.0,0.0,0.0,6.8281,7.0312,7.3359,7.543,7.7539,8.1084,8.375,8.5874,8.7253,8.7789,8.8529,9.0686,8.9713,8.8412,8.8823,8.5995,8.3189,0.0,0.0,0.0,8.5755,8.9135,0.0,9.1511,9.1202,0.0,9.1771,0.0,9.1848,9.3214,9.364,0.0,0.0,9.4708,9.5129,9.5781,9.625,9.6758,9.7383,9.7578,9.7695,9.7695,9.7695,9.8359,9.9648,9.9219,9.9336,9.9961,10.0195,10.0703,10.1289,10.1289,10.1601,10.2187,10.2187,10.2187,10.2187,10.2187,10.2187,10.2187,10.2187,10.2383,10.25,0.0,0.0,0.0,0.0,0.0,0.0,0.0,0.0,0.0,0.0,0.0,0.0,0.0,0.0,0.0,0.0,0.0,0.0,0.0,4.3437,0.0,0.0,0.0,0.0,0.0,0.0,0.0,0.0,0.0,0.0,5.9336,6.0703,6.1055,6.0625,6.1094,6.1055,6.0586,6.0586,6.0312,0.0,0.0,5.6719,0.0,0.0,0.0,0.0,0.0,0.0,0.0,0.0,0.0,6.7226,7.1172,7.3008,7.4375,7.7734,0.0,8.0508,8.4101,8.6417,8.8033,8.8769,8.9287,8.9501,8.9072,8.8174,8.6808,8.4849,8.1921,0.0,0.0,0.0,0.0,0.0,0.0,0.0,9.2517,9.2804,9.2992,0.0,9.2495,0.0,9.4209,9.4444,9.482,0.0,9.5781,9.5976,9.6484,9.6836,9.7226,9.7695,9.7695,9.7695,9.7695,9.8086,9.8554,9.9179,9.9844,10.0195,10.0312,10.1094,10.1719,10.2187,0.0,10.2383,10.289,10.289,10.289,10.289,10.289,10.289,10.289,10.289,10.289,10.289,0.0,0.0,0.0,0.0,0.0,0.0,0.0,0.0,0.0,0.0,3.1445,0.0,0.0,0.0,0.0,0.0,0.0,0.0,0.0,0.0,0.0,0.0,0.0,0.0,0.0,0.0,0.0,0.0,0.0,0.0,0.0,0.0,5.7812,5.7812,5.7812,5.7812,5.7812,5.7812,5.7773,5.7383,5.4375,5.3086,0.0,0.0,0.0,0.0,0.0,0.0,0.0,0.0,6.9101,7.0937,7.4765,7.6562,7.8008,8.1875,8.1914,8.1719,8.6172,8.8125,8.9045,8.98,9.0752,9.039,8.6211,8.5547,8.4531,7.9805,0.0,7.671,7.9032,8.0959,8.3311,8.6754,0.0,9.3523,9.3137,9.4402,9.5027,9.4163,9.3861,9.4147,9.5272,9.5368,9.5742,9.6601,9.664,9.664,9.664,9.7304,9.7695,9.7695,9.7812,9.7851,9.7851,9.8633,9.875,9.8242,10.0312,10.1015,10.0703,10.2109,10.2812,10.289,10.289,10.289,10.289,10.289,10.289,10.289,10.289,10.289,10.289,10.289,10.289,10.289,0.0,0.0,0.0,0.0,0.0,0.0,0.0,0.0,0.0,0.0,3.4297,3.3008,0.0,0.0,0.0,0.0,0.0,0.0,0.0,0.0,0.0,0.0,0.0,0.0,0.0,0.0,0.0,0.0,0.0,0.0,0.0,0.0,5.0703,5.0703,5.0703,5.0703,5.0703,5.0703,5.0273,4.957,4.8945,4.8281,0.0,0.0,0.0,0.0,0.0,0.0,0.0,0.0,7.1133,7.5742,8.1367,8.3711,8.4687,8.6172,8.6367,8.6484,8.8008,8.9101,8.9999,9.0842,9.1713,9.1445,8.7851,8.5508,0.0,0.0,0.0,7.1367,7.3158,7.5423,7.835,8.2472,0.0,0.0,0.0,0.0,9.2967,0.0,0.0,0.0,0.0,0.0,0.0,0.0,0.0,9.75,9.75,9.7617,9.7695,9.7695,9.8398,9.8789,9.8789,9.8906,9.9648,10.0898,9.9922,10.0508,10.2383,10.1992,10.2187,10.289,10.289,0.0,10.289,10.289,10.289,10.289,10.289,10.289,10.289,10.289,10.289,10.289,0.0,0.0,0.0,0.0,0.0,0.0,0.0,3.3047,3.543,3.8867,3.8594,3.7578,3.625,3.5273,3.4883,0.0,0.0,0.0,0.0,0.0,0.0,0.0,0.0,0.0,0.0,0.0,0.0,0.0,0.0,0.0,0.0,0.0,0.0,0.0,0.0,0.0,4.7539,4.7539,4.7305,4.6914,0.0,0.0,0.0,0.0,0.0,0.0,0.0,0.0,0.0,0.0,6.8867,7.5156,8.2578,8.5508,8.6172,8.6172,8.6484,8.6992,8.7851,8.9336,9.0976,9.2304,9.3633,9.2773,8.5703,0.0,0.0,0.0,6.8594,6.8008,6.9726,0.0,0.0,8.0117,0.0,0.0,0.0,0.0,0.0,0.0,0.0,0.0,0.0,0.0,0.0,0.0,9.7969,9.7695,9.7695,9.8125,9.8164,9.7695,9.8984,9.9258,9.832,9.9219,9.9648,9.957,10.0117,10.0781,10.1601,10.2109,10.25,10.289,10.289,10.289,10.289,10.289,10.289,10.289,10.289,10.289,10.289,10.289,10.289,10.289,0.0,0.0,0.0,0.0,0.0,0.0,3.2891,3.5195,3.793,4.1797,4.2695,4.2109,3.9922,3.7383,3.5859,0.0,0.0,0.0,0.0,0.0,0.0,0.0,0.0,0.0,0.0,0.0,0.0,0.0,0.0,0.0,0.0,0.0,0.0,0.0,0.0,0.0,0.0,0.0,4.6289,0.0,0.0,0.0,0.0,0.0,0.0,0.0,0.0,0.0,0.0,0.0,6.582,7.1992,7.9922,8.3633,8.5,8.4492,8.5351,8.6758,8.7969,9.0039,9.2226,9.3789,9.5351,9.3789,8.3359,8.0859,0.0,0.0,6.5312,6.5976,6.8086,0.0,7.4765,0.0,8.3945,8.848,9.1216,0.0,0.0,0.0,0.0,0.0,0.0,0.0,0.0,0.0,9.8359,9.789,9.7695,9.8515,9.8594,9.7734,9.9219,9.9258,9.7734,9.9414,9.9609,9.8281,10.0312,10.1211,10.0898,10.2109,10.2695,10.289,10.289,10.289,10.289,10.289,10.289,10.289,10.289,10.289,10.289,10.289,10.289,10.289,0.0,0.0,0.0,0.0,0.0,0.0,3.2891,3.6211,4.0156,4.5195,4.5195,4.4375,4.3359,4.0937,3.8516,0.0,0.0,0.0,0.0,0.0,0.0,0.0,0.0,0.0,0.0,0.0,0.0,0.0,0.0,0.0,0.0,0.0,0.0,0.0,0.0,0.0,0.0,0.0,0.0,0.0,0.0,0.0,0.0,0.0,0.0,0.0,0.0,0.0,0.0,0.0,0.0,6.7148,7.2656,7.7656,8.1601,8.2344,0.0,0.0,9.0312,9.2265,9.3906,9.4844,9.5781,9.3789,8.3359,0.0,0.0,6.6562,6.4414,6.543,6.8672,6.9648,0.0,0.0,7.914,8.1796,8.8156,8.9998,9.2461,9.7148,0.0,0.0,0.0,0.0,0.0,9.8945,9.8945,9.8554,9.7734,9.8515,9.8594,9.7734,9.8633,9.8672,9.7695,9.9414,10.0195,10.0117,10.0312,10.1211,10.2617,10.1992,10.2187,10.289,10.289,10.289,0.0,10.289,10.289,10.289,10.289,10.289,10.289,10.289,10.289,10.289,0.0,0.0,0.0,0.0,0.0,0.0,3.4297,3.6133,3.9453,4.6211,4.6328,4.5664,4.5312,4.3437,4.0508,3.6367,0.0,0.0,0.0,0.0,0.0,0.0,0.0,0.0,0.0,0.0,0.0,0.0,0.0,0.0,0.0,0.0,0.0,0.0,0.0,0.0,0.0,0.0,0.0,0.0,0.0,0.0,0.0,0.0,0.0,0.0,0.0,0.0,0.0,0.0,0.0,0.0,6.5039,6.9101,0.0,0.0,8.1992,8.6289,8.7812,9.1406,9.4883,9.5742,9.5469,9.2617,8.3789,0.0,7.4922,6.6094,6.3867,6.4101,6.5976,6.7226,6.9414,7.3867,7.6797,8.0547,8.6367,8.9258,9.2304,9.6484,0.0,0.0,0.0,0.0,9.7851,9.8203,9.9179,9.9179,9.7773,9.8515,9.8594,9.7734,9.957,9.9883,9.8515,10.0195,10.0781,10.0312,10.0781,10.1406,10.2109,10.2304,10.2617,10.289,10.289,10.289,0.0,10.3515,10.3711,10.3711,10.4297,10.4101,10.3711,10.3711,10.3398,10.3008,0.0,0.0,0.0,0.0,0.0,2.9883,3.4531,3.6328,3.9492,4.5976,4.6523,4.6289,4.6289,4.4062,4.1094,3.7461,3.6445,0.0,0.0,0.0,0.0,0.0,0.0,0.0,0.0,0.0,4.3516,4.5,4.5273,0.0,0.0,0.0,0.0,0.0,0.0,0.0,0.0,0.0,0.0,0.0,0.0,0.0,0.0,0.0,0.0,0.0,0.0,0.0,0.0,0.0,0.0,0.0,0.0,6.3086,6.7383,0.0,7.8476,8.3242,8.6133,9.0429,9.4492,9.6367,9.4961,9.1172,0.0,0.0,7.3008,6.5469,6.3633,6.3555,6.418,6.5937,6.832,7.1484,7.5,7.9492,8.5703,8.8672,9.1562,0.0,0.0,0.0,0.0,0.0,9.7969,9.7734,9.9062,9.9375,9.8164,9.8672,9.8711,9.8086,9.9883,10.039,9.9375,10.0898,10.1289,10.0703,10.1601,10.1992,10.1992,10.2617,10.289,10.289,10.289,10.3008,0.0,10.3906,10.4414,10.4609,10.5312,10.5117,10.4609,10.4609,10.4219,10.3789,0.0,0.0,0.0,0.0,0.0,0.0,3.2891,3.7109,4.1094,4.457,4.5781,4.6289,4.6289,4.25,3.9922,3.9844,3.75,0.0,0.0,0.0,0.0,0.0,0.0,0.0,0.0,0.0,4.4101,4.5,4.5859,4.6289,4.6289,0.0,0.0,0.0,0.0,0.0,0.0,0.0,0.0,0.0,0.0,0.0,0.0,0.0,0.0,0.0,0.0,0.0,0.0,0.0,0.0,0.0,0.0,6.1015,6.3125,7.0039,7.4531,7.8945,8.6601,8.9961,9.2344,9.6601,9.4492,8.9531,0.0,0.0,7.1367,6.4453,6.3672,6.4297,6.4297,6.6445,6.9023,7.1562,7.3476,7.7656,8.6289,8.7539,8.914,0.0,0.0,0.0,0.0,0.0,9.8633,9.7773,9.8515,0.0,9.8984,9.8984,9.8984,9.8984,9.9023,9.9414,10.0312,10.1211,10.1601,10.1601,10.25,10.289,10.289,10.289,10.289,10.289,10.289,10.3398,0.0,10.4219,10.4687,10.5508,10.5508,10.5508,10.5508,10.5508,10.5508,10.5508,0.0,0.0,0.0,0.0,0.0,0.0,3.1328,3.3828,3.6914,4.0976,4.1758,4.2578,4.4336,4.1758,3.9883,3.9883,3.75,0.0,0.0,0.0,0.0,0.0,0.0,0.0,0.0,0.0,4.4726,4.6797,4.7656,4.7773,4.7187,4.7812,4.7422,4.6289,0.0,0.0,0.0,0.0,0.0,0.0,0.0,0.0,0.0,0.0,0.0,0.0,0.0,0.0,0.0,0.0,0.0,0.0,0.0,0.0,0.0,6.5586,7.043,7.5195,7.8242,8.2031,8.5312,8.6094,8.4414,8.1367,7.6797,7.2656,6.8672,6.4726,6.3633,6.3789,6.4961,6.5859,6.7851,7.2187,7.3359,7.6719,0.0,0.0,0.0,0.0,0.0,0.0,0.0,0.0,9.7656,9.8515,9.8281,9.8633,9.9804,9.9336,9.9258,9.9883,10.0508,10.0898,10.1211,10.2109,10.25,10.25,10.2812,10.289,10.289,10.289,10.289,10.289,10.3515,10.3906,10.4297,10.539,10.6093,10.6406,10.6992,10.6797,10.6289,10.6289,10.6015,10.5586,0.0,0.0,0.0,0.0,0.0,0.0,0.0,3.2109,3.4609,3.8008,3.8437,3.9531,4.2422,3.9883,3.8476,3.9805,3.75,0.0,0.0,0.0,0.0,0.0,0.0,0.0,4.3672,4.3711,4.5156,4.8086,4.8945,4.9101,4.8594,4.9766,4.9062,4.6797,4.7148,4.6914,0.0,0.0,0.0,0.0,0.0,0.0,4.6289,0.0,0.0,0.0,0.0,0.0,0.0,0.0,0.0,0.0,0.0,0.0,0.0,0.0,6.6211,7.0117,7.3242,7.6719,7.9648,8.0742,7.875,7.5898,7.3398,6.9648,6.6094,6.3789,6.3398,6.3828,6.4922,6.5937,6.8164,7.3008,7.3789,7.6914,0.0,0.0,0.0,0.0,0.0,0.0,0.0,9.6875,9.7539,9.8906,9.8515,9.8945,10.0703,10.0312,10.039,10.1289,10.1484,10.1797,10.2109,10.2617,10.289,10.289,10.289,10.289,10.289,10.3203,10.3398,10.3398,10.4297,10.4883,0.0,10.6289,10.6914,10.7187,10.7812,10.7695,10.7187,10.7187,10.6914,10.6484,0.0,0.0,0.0,0.0,0.0,0.0,0.0,3.1562,3.3789,3.543,3.5742,3.7031,4.0273,3.7109,3.6016,3.9258,0.0,0.0,0.0,0.0,0.0,0.0,0.0,0.0,4.3672,4.3711,4.5391,4.8906,4.9883,5.0391,5.043,5.2148,5.1133,4.7812,4.8633,4.8008,0.0,0.0,0.0,0.0,0.0,4.5586,0.0,0.0,0.0,0.0,0.0,0.0,0.0,0.0,0.0,0.0,0.0,0.0,0.0,0.0,0.0,0.0,0.0,7.3125,7.4805,7.875,7.6172,7.2422,7.1562,6.7656,0.0,6.2148,6.3125,6.4375,6.4609,6.6758,6.9844,7.4101,7.4883,7.8125,0.0,0.0,0.0,0.0,0.0,0.0,9.5469,9.6914,9.8164,9.9101,9.914,9.9844,10.1601,10.1601,10.1992,10.289,10.2109,10.2109,10.289,10.289,10.289,10.289,10.289,10.289,10.289,10.3711,10.4101,0.0,10.5117,10.6015,10.6719,10.6797,10.7304,10.8008,10.8008,10.8008,10.8008,10.8008,10.8008,10.8008,0.0,0.0,0.0,0.0,0.0,0.0,0.0,0.0,0.0,0.0,3.3203,3.4336,3.5156,3.4922,3.5039,0.0,0.0,0.0,0.0,0.0,0.0,0.0,0.0,0.0,4.3672,4.3711,4.5391,4.8906,5.1055,5.2109,5.2148,5.457,5.3516,4.9609,4.9805,4.8555,0.0,0.0,0.0,0.0,4.6094,4.6133,0.0,0.0,0.0,0.0,4.8906,5.1094,0.0,0.0,0.0,0.0,0.0,0.0,0.0,0.0,6.0859,6.1367,6.3008,0.0,6.6797,6.7148,6.6836,6.6172,0.0,6.418,6.3203,6.2773,6.3555,6.5117,6.7773,6.9844,7.2305,7.5976,7.7656,8.0429,0.0,0.0,0.0,0.0,0.0,0.0,9.9023,9.8867,9.9336,10.0898,10.039,10.0781,10.25,10.1992,10.1992,10.289,10.2695,10.2695,10.289,10.289,10.289,10.289,10.289,10.289,10.289,10.3086,10.3594,10.4219,10.5117,10.6015,10.6797,10.7383,10.7812,10.8008,10.8008,10.8008,10.8008,10.8008,10.8008,10.8008,0.0,0.0,0.0,0.0,0.0,0.0,0.0,0.0,0.0,0.0,3.168,3.2422,3.2812,3.3594,0.0,0.0,0.0,0.0,0.0,0.0,0.0,0.0,0.0,4.1406,4.3086,4.3516,4.5586,4.9492,5.1641,5.332,5.4531,5.5937,5.4492,5.0664,4.9101,4.7617,0.0,0.0,0.0,4.6289,4.5859,0.0,0.0,0.0,0.0,0.0,4.8906,5.1094,0.0,5.4922,5.664,5.8633,0.0,0.0,0.0,0.0,6.0117,6.039,6.039,6.2305,6.4297,6.4219,6.4258,6.4297,6.4219,6.3242,6.2539,6.293,6.3672,6.5117,6.7812,7.0312,7.3398,7.7656,8.0117,0.0,0.0,0.0,0.0,0.0,0.0,9.9023,0.0,9.9023,9.957,10.0898,10.0898,10.1484,10.2812,10.25,10.2383,10.289,10.289,10.289,10.289,10.289,10.289,10.289,10.289,10.289,10.289,10.3281,10.3984,10.4804,10.5703,10.6484,10.7304,10.7812,10.8008,10.8008,10.8008,10.8008,10.8008,10.8008,10.8008,10.8008,0.0,0.0,0.0,0.0,0.0,0.0,0.0,0.0,0.0,0.0,0.0,0.0,0.0,0.0,0.0,0.0,0.0,0.0,0.0,0.0,0.0,0.0,3.9414,4.082,4.2734,4.3398,4.5781,5.0,5.1953,5.4101,5.6406,5.6953,5.5195,5.1445,4.8164,4.6562,4.625,0.0,0.0,4.625,4.5508,0.0,0.0,0.0,0.0,0.0,0.0,0.0,0.0,5.5664,5.7461,5.9101,5.9805,0.0,0.0,0.0,0.0,0.0,6.0547,6.2773,6.5195,6.5664,6.5156,6.4765,6.5781,6.3984,6.2305,6.3047,6.4297,6.5937,6.8086,7.1367,0.0,0.0,0.0,0.0,0.0,0.0,0.0,9.7695,9.8476,0.0,9.8359,9.8945,9.9765,10.0586,10.1406,10.2109,10.289,10.289,10.289,10.289,10.289,10.289,10.289,10.289,10.289,10.289,10.289,10.3008,10.3086,10.3906,10.4687,10.5703,0.0,0.0,10.8008,10.8008,10.8008,10.8008,10.8008,10.8008,10.8008,10.8008,10.8008,10.8008,0.0,0.0,0.0,0.0,0.0,0.0,0.0,0.0,0.0,0.0,0.0,0.0,0.0,0.0,0.0,0.0,0.0,0.0,0.0,0.0,0.0,3.8555,3.9414,4.1367,4.4531,4.4023,4.5469,4.9101,5.2266,5.4375,5.5547,5.8476,5.7187,5.2383,4.9687,4.7695,4.6289,4.6172,0.0,4.6289,4.6133,0.0,0.0,0.0,0.0,0.0,0.0,0.0,0.0,5.4062,5.6055,5.8125,5.8242,0.0,0.0,0.0,0.0,0.0,6.1133,6.4961,6.832,6.7031,6.6055,6.582,6.7422,6.5781,6.3945,6.4062,6.7109,7.0937,7.4883,7.9023,8.3047,0.0,0.0,0.0,0.0,0.0,0.0,9.7617,0.0,9.9531,10.0898,10.1094,10.1601,10.2383,10.2617,10.2812,10.289,10.289,10.289,10.289,10.289,10.289,10.289,10.289,10.289,10.289,10.289,10.3281,10.3984,10.4101,10.5,10.6484,0.0,10.7187,10.8008,10.8008,10.8008,10.8008,10.8008,10.8008,10.8008,10.8008,10.8008,10.8008,0.0,0.0,0.0,0.0,0.0,0.0,0.0,0.0,0.0,0.0,0.0,0.0,0.0,0.0,0.0,0.0,0.0,0.0,0.0,0.0,3.8125,3.9922,4.0391,4.1758,4.4258,4.5742,4.7969,5.0937,5.3945,5.6328,5.8047,5.7305,5.4922,5.125,4.8633,4.7031,4.6289,4.6289,4.6289,4.6289,0.0,0.0,0.0,0.0,0.0,0.0,0.0,0.0,0.0,0.0,5.5742,5.7812,5.7344,0.0,0.0,0.0,0.0,0.0,6.0156,6.3789,6.8047,7.1015,7.2187,7.2773,7.3594,0.0,7.1836,6.9023,7.1133,7.4414,0.0,0.0,0.0,0.0,0.0,0.0,0.0,0.0,0.0,0.0,0.0,9.9844,10.0195,10.1015,10.1797,10.2187,10.2617,10.289,10.289,10.289,10.289,10.289,10.289,10.289,10.289,10.289,10.289,10.289,10.3398,10.3789,10.4219,10.4687,10.5586,10.6719,0.0,10.7187,10.8008,10.8008,10.8008,10.8008,10.8008,10.8008,10.8008,10.8008,10.8008,10.8008,0.0,0.0,0.0,0.0,0.0,0.0,0.0,0.0,0.0,0.0,0.0,0.0,0.0,0.0,0.0,0.0,0.0,0.0,0.0,0.0,3.8398,4.0781,4.1484,4.2851,4.5156,4.7656,5.0234,5.3008,5.5625,5.8008,6.0039,5.6133,5.293,5.0391,4.7969,4.668,4.6289,4.6289,4.6289,4.6289,0.0,0.0,0.0,0.0,0.0,0.0,0.0,0.0,0.0,0.0,0.0,0.0,0.0,0.0,0.0,5.7617,5.8711,6.0351,6.0156,6.3515,6.8437,7.3906,7.6133,0.0,0.0,0.0,0.0,0.0,0.0,0.0,0.0,0.0,0.0,0.0,0.0,0.0,0.0,0.0,0.0,0.0,10.0117,10.0312,9.9687,10.1015,10.1914,10.1914,10.25,10.289,10.289,10.289,10.289,10.289,10.289,10.289,10.289,10.289,10.289,10.289,10.3789,10.4297,10.4492,10.539,10.6211,10.6992,10.6992,10.7383,10.8008,10.8008,10.8008,10.8008,10.8008,10.8008,10.8008,10.8008,10.8008,10.8008,0.0,0.0,0.0,0.0,0.0,0.0,0.0,0.0,0.0,0.0,0.0,0.0,0.0,0.0,0.0,0.0,0.0,0.0,0.0,0.0,3.8125,3.9922,4.2266,4.5469,4.9648,4.918,5.0547,5.3906,5.6523,5.832,5.9219,5.6484,5.3828,5.125,4.9492,4.7812,4.6289,4.6289,4.6289,4.6289,4.6289,0.0,0.0,0.0,0.0,0.0,0.0,0.0,0.0,0.0,0.0,0.0,0.0,0.0,5.918,5.9062,6.1367,6.375,6.2969,6.7031,7.1836,7.3164,7.2969,0.0,8.3633,8.1992,0.0,8.1133,0.0,0.0,0.0,0.0,0.0,0.0,0.0,0.0,0.0,0.0,10.0312,10.0195,10.1015,10.1484,10.1406,10.2304,10.2812,10.2812,10.289,10.289,10.289,10.289,10.289,10.289,10.289,10.289,10.289,10.289,10.289,10.289,10.3789,10.4609,10.539,10.6211,10.7109,10.789,10.789,10.789,10.8008,10.8008,10.8008,10.8008,10.8008,10.8008,10.8008,10.8008,10.8008,10.8008,0.0,0.0,0.0,0.0,0.0,0.0,0.0,0.0,0.0,0.0,0.0,0.0,0.0,0.0,0.0,0.0,0.0,0.0,0.0,3.6328,3.832,4.0625,4.2109,4.4687,4.8516,5.1406,5.4023,5.6445,5.8476,5.9101,5.832,5.5156,5.2617,5.0547,4.8281,4.7226,4.707,4.6523,4.6601,4.707,4.6523,4.6289,0.0,0.0,0.0,0.0,0.0,0.0,0.0,0.0,5.3008,5.5312,5.543,5.7187,5.9101,5.8555,6.0039,6.1797,6.1484,6.6562,7.2617,7.5117,7.668,0.0,0.0,8.6797,8.8086,8.5312,8.789,0.0,0.0,0.0,0.0,0.0,0.0,0.0,9.9648,10.0586,10.0898,10.039,10.1094,10.1601,10.1601,10.1914,10.2304,10.289,10.2383,10.2304,10.289,10.289,10.289,10.289,10.289,10.289,10.289,10.3398,10.3711,10.3711,10.4609,10.539,10.6289,10.7109,10.7695,10.8008,10.8008,10.8008,10.8008,10.8008,10.8008,10.8008,10.8008,10.8008,10.8008,10.8008,10.8008,10.8008,0.0,0.0,0.0,0.0,0.0,0.0,0.0,0.0,0.0,0.0,0.0,0.0,0.0,0.0,0.0,0.0,0.0,0.0,3.4648,3.6055,3.793,4.0273,4.1445,4.3633,4.7109,5.1719,5.4922,5.668,5.8633,5.875,5.6992,5.4062,5.2109,5.0898,4.8281,4.7734,4.8711,4.7305,4.7031,4.7539,4.6641,4.6289,0.0,0.0,0.0,0.0,0.0,0.0,0.0,0.0,5.2109,5.4531,5.4765,5.664,5.8711,5.8398,6.0859,6.3437,6.2344,6.7734,7.414,7.625,0.0,0.0,8.4297,8.875,9.164,8.914,9.1601,0.0,0.0,0.0,0.0,0.0,9.8633,9.9414,10.0508,10.1484,10.1719,10.0781,10.1484,10.1914,10.1601,10.1601,10.1992,10.2812,10.2109,10.1992,10.289,10.289,10.289,10.289,10.289,10.289,10.289,10.3789,10.4297,10.4609,10.5508,10.6211,10.6719,10.7617,10.8008,10.8008,10.8008,10.8008,10.8008,10.8008,10.8008,10.8008,10.8008,10.8008,10.8008,10.8008,10.8008,10.8008,0.0,0.0,0.0,0.0,0.0,0.0,0.0,0.0,0.0,0.0,0.0,0.0,0.0,0.0,0.0,0.0,0.0,0.0,3.4648,3.5508,3.6797,3.8516,4.0273,4.2773,4.6172,4.9609,5.2226,5.4023,5.6601,5.6992,5.5234,5.3516,5.2695,5.2578,0.0,0.0,5.1211,4.8672,4.7617,4.7539,4.6641,4.6328,4.6328,0.0,0.0,0.0,0.0,0.0,0.0,0.0,5.1328,5.3164,5.5742,5.7187,5.8086,5.8984,6.4687,6.9922,6.6562,7.1328,0.0,0.0,0.0,0.0,8.6758,8.6875,8.7695,9.2812,0.0,0.0,0.0,0.0,0.0,9.6523,9.7929,9.9609,10.1406,10.2383,10.2617,10.1719,10.2383,10.2617,10.1719,10.1601,10.1992,10.2812,10.2109,10.1992,10.289,10.289,10.289,10.289,10.289,10.289,10.289,10.3789,10.4609,10.5508,10.6289,10.6719,10.6719,10.7617,10.8008,10.8008,10.8008,10.8008,10.8008,10.8008,10.8008,10.8008,10.8008,10.8008,10.8008,10.8008,10.8008,10.8008,0.0,0.0,0.0,0.0,0.0,0.0,0.0,0.0,0.0,0.0,0.0,0.0,0.0,0.0,0.0,0.0,0.0,0.0,3.4648,3.5508,3.6797,3.8516,3.9687,4.1328,4.3516,4.6367,5.0156,5.4922,5.5703,5.5195,5.3476,5.293,5.207,5.0937,0.0,0.0,4.9531,4.8164,4.7969,4.8437,4.7578,4.7226,4.7226,0.0,0.0,0.0,0.0,0.0,0.0,0.0,0.0,0.0,5.4336,5.664,5.9219,6.1289,6.5234,6.8828,6.8398,7.5273,0.0,0.0,0.0,0.0,0.0,8.9531,0.0,0.0,0.0,0.0,0.0,0.0,0.0,9.9804,10.0,10.0508,10.2304,10.2695,10.2812,10.25,10.2695,10.2812,10.25,10.25,10.2617,10.289,10.2695,10.2617,10.289,10.289,10.289,10.289,10.289,10.3203,10.3789,10.4687,10.5508,10.6406,10.7187,10.7617,10.7617,10.789,10.8008,10.8008,10.8008,10.8008,10.8008,10.8008,10.8008,10.8008,10.8008,10.8008,10.8008,10.8008,10.8008,10.8008,0.0,0.0,0.0,0.0,0.0,0.0,0.0,0.0,0.0,0.0,3.0675,3.0625,0.0,0.0,0.0,0.0,0.0,0.0,3.5156,3.5703,3.6601,3.8008,3.8906,4.0508,4.2851,4.5469,4.8242,5.1211,5.2617,5.2578,5.1211,5.2578,5.2851,5.2266,0.0,5.2695,5.1367,5.0156,4.9531,4.9375,4.8828,4.8633,4.8594,0.0,0.0,0.0,0.0,0.0,0.0,0.0,0.0,0.0,5.3125,5.6328,5.9961,6.1523,6.7109,7.2812,7.2969,0.0,0.0,0.0,0.0,0.0,0.0,0.0,0.0,0.0,0.0,9.7617,9.7969,9.8672,0.0,10.1797,10.1719,10.1719,10.2812,10.3203,10.3203,10.25,10.3008,10.3086,10.25,10.2695,10.3008,10.3398,10.3086,10.3086,10.3398,10.3086,10.3086,10.3398,10.3086,10.3515,10.4687,10.5195,10.5898,10.6719,10.7617,10.8008,10.8008,10.8008,10.8008,10.8008,10.8008,10.8008,10.8008,10.8008,10.8008,10.8008,10.8008,10.8008,10.8008,10.8008,10.8008,10.8008,0.0,0.0,0.0,0.0,0.0,0.0,0.0,0.0,0.0,3.0793,3.0741,3.0707,0.0,0.0,0.0,3.3145,3.3368,3.4146,3.5898,3.6016,3.6406,3.7383,3.8476,4.0508,4.3633,4.6016,4.6445,4.4766,4.8242,4.957,4.8867,0.0,5.4375,5.5117,0.0,5.5859,5.4726,5.2969,5.1367,4.9961,4.9961,4.9961,4.9883,4.9062,0.0,0.0,0.0,0.0,0.0,0.0,0.0,0.0,5.2031,5.5898,5.9922,6.039,6.9258,7.8828,7.8555,0.0,0.0,0.0,0.0,0.0,0.0,0.0,0.0,0.0,0.0,9.9258,10.0,10.1015,10.1914,10.2812,10.3008,10.3008,10.289,10.3711,10.3711,10.1914,10.3203,10.3594,10.1992,10.2617,10.3515,10.4297,10.3711,10.3594,10.4297,10.3594,10.3515,10.4297,10.3515,10.3906,10.5586,10.5586,10.6015,10.6797,10.7617,10.8008,10.8008,10.8008,10.8008,10.8008,10.8008,10.8008,10.8008,10.8008,10.8008,10.8008,10.8008,10.8008,10.8008,10.8008,10.8008,10.8008,0.0,0.0,0.0,0.0,0.0,0.0,0.0,0.0,3.0776,3.0808,3.0801,3.0771,3.0776,3.0815,0.0,3.3236,3.339,3.4134,3.5898,3.6016,3.668,3.8242,4.1055,4.2969,4.3672,4.4258,4.4023,4.2969,4.6445,4.8047,0.0,0.0,0.0,5.332,0.0,5.3984,0.0,4.9453,4.8476,4.8164,4.8164,4.8164,4.8125,4.7969,4.7344,0.0,0.0,0.0,0.0,0.0,0.0,0.0,5.1133,5.3398,5.6172,6.0234,6.6758,7.3476,7.7422,8.414,0.0,0.0,0.0,0.0,0.0,0.0,0.0,0.0,0.0,9.9062,9.9258,10.0586,10.1914,10.2812,10.3515,10.3711,10.3008,10.4219,10.4609,10.2812,10.3594,10.4101,10.3711,10.4414,10.5,10.5195,10.5586,10.5703,10.5195,10.5,10.5,10.5195,10.5,10.539,10.6406,10.6406,10.6914,10.7695,10.789,10.8008,10.8008,10.8008,10.8008,10.8008,10.8008,10.8008,10.8008,10.8008,10.8008,10.8008,10.8008,10.8008,10.8008,10.8008,10.8008,10.8008,0.0,0.0,0.0,0.0,0.0,0.0,0.0,0.0,3.0859,3.0859,3.0833,3.0857,3.0818,3.0857,0.0,0.0,3.3154,3.3945,3.5273,3.5781,3.6797,3.8516,4.1094,4.25,4.25,4.2891,4.2656,4.1836,4.4453,4.6172,0.0,0.0,0.0,5.3398,0.0,5.3594,0.0,4.9805,4.8945,4.8242,4.8672,4.8828,4.8789,4.8398,4.7695,4.6992,4.7422,0.0,0.0,0.0,0.0,0.0,0.0,0.0,5.6484,5.9609,6.5625,7.2656,7.8672,0.0,0.0,9.3515,0.0,9.6719,9.7539,0.0,9.8594,9.7265,9.8711,10.0195,10.0195,10.1289,10.2383,10.2812,10.3281,10.3594,10.3515,10.4297,10.4687,10.4219,10.4492,10.4804,10.4804,10.5586,10.6093,10.6093,10.6484,10.6484,10.6093,10.5703,10.5703,10.6093,10.5703,10.6093,10.7304,10.6914,10.7109,10.8008,10.8008,10.8008,10.8008,10.8008,10.8008,10.8008,10.8008,10.8008,10.8008,10.8008,10.8008,10.8008,10.8008,10.8008,10.8008,10.8008,10.8008,10.8008,0.0,0.0,0.0,0.0,0.0,0.0,0.0,0.0,0.0,3.0898,3.0898,3.0898,3.082,3.0859,3.1235,0.0,0.0,0.0,3.4648,3.5664,3.6953,3.8516,4.0117,4.1055,4.1211,4.1836,4.1875,4.1211,4.2734,0.0,0.0,0.0,0.0,5.3594,0.0,0.0,0.0,0.0,0.0,4.8516,4.9258,4.9531,4.9453,4.8711,4.8008,4.7383,4.7383,4.6914,4.6523,4.8125,0.0,0.0,0.0,0.0,5.6797,5.7969,6.3867,7.1406,7.789,8.4062,9.0156,9.6172,9.7304,0.0,9.7773,9.8594,9.9453,10.0312,10.1094,10.1601,10.1797,10.2383,10.289,10.289,10.3203,10.3515,10.4101,10.4609,10.5,10.539,10.5586,10.5703,10.5703,10.6289,10.6797,10.6914,10.6914,10.6914,10.6914,10.6289,10.6211,10.6914,10.6289,10.6601,10.8008,10.7304,10.7304,10.8008,10.8008,10.8008,10.8008,10.8008,10.8008,10.8008,10.8008,10.8008,10.8008,10.8008,10.8008,10.8008,10.8008,10.8008,10.8008,10.8008,10.8008,10.8008,0.0,0.0,0.0,0.0,0.0,0.0,0.0,0.0,0.0,0.0,3.0898,3.0898,3.0898,3.0898,3.125,3.2104,3.2929,3.3789,3.4648,0.0,0.0,3.8555,3.9531,4.043,4.1172,4.1328,4.1328,4.1211,4.2109,0.0,0.0,0.0,0.0,0.0,0.0,0.0,0.0,0.0,0.0,0.0,4.6758,4.6836,4.6797,4.668,4.6562,4.6484,4.6484,4.6406,4.6445,4.7422,4.7773,0.0,0.0,0.0,5.168,5.4023,5.8125,6.2969,6.7695,0.0,9.0156,0.0,9.8203,9.8672,0.0,0.0,10.039,0.0,10.1484,10.1797,10.2617,10.2812,10.289,10.289,10.4219,10.4883,10.4297,10.6093,10.6992,10.5703,10.6093,10.6484,10.6484,10.6601,10.6992,10.7812,10.7812,10.7812,10.7812,10.7695,10.7695,10.7812,10.7695,10.7812,10.8008,10.789,10.789,10.8008,10.8008,10.8008,10.8008,10.8008,10.8008,10.8008,10.8008,10.8008,10.8008,10.8008,10.8008,10.8008,10.8008,10.8008,10.8008,10.8008,10.8008,10.8008,0.0,0.0,0.0,0.0,0.0,0.0,0.0,0.0,0.0,0.0,0.0,3.0898,3.0898,3.0898,3.1055,3.1445,3.2656,3.3984,3.5351,3.6133,3.6953,3.7812,3.8242,3.8867,3.9726,3.9726,3.9961,4.0469,0.0,0.0,0.0,4.8828,5.0742,0.0,0.0,0.0,0.0,0.0,0.0,0.0,4.6289,4.7734,4.9609,4.7226,4.7773,4.957,4.7148,0.0,0.0,4.6758,4.7187,4.7812,4.9062,0.0,0.0,0.0,5.4961,5.8828,6.8008,7.9765,9.0429,0.0,9.7304,9.8984,9.8984,9.9687,10.0508,10.1406,10.1992,10.2383,10.2812,10.3281,10.3515,10.3008,10.4414,10.5195,10.4297,10.5586,10.6484,10.6211,10.6484,10.6914,10.7383,10.7383,10.7617,10.8008,10.8008,10.8008,10.8008,10.8008,10.8008,10.8008,10.8008,10.8008,10.8008,10.8008,10.8008,10.8008,10.8008,10.8008,10.8008,10.8008,10.8008,10.8008,10.8008,10.8008,10.8008,10.8008,10.8008,10.8008,10.8008,10.8008,10.8008,10.8008,10.8008,10.8008,0.0,0.0,0.0,0.0,0.0,0.0,0.0,0.0,0.0,0.0,0.0,3.1445,3.125,0.0,0.0,0.0,3.2266,3.3828,3.5547,3.5664,3.6055,3.6914,3.6953,3.7266,3.793,3.8164,3.8711,3.957,0.0,0.0,4.6328,4.832,5.0586,0.0,5.125,0.0,0.0,0.0,0.0,0.0,4.7656,4.9844,5.2461,5.0391,5.168,5.4062,4.9531,0.0,0.0,0.0,4.707,4.7734,4.8633,4.9336,0.0,0.0,0.0,5.6601,6.8437,0.0,8.6367,9.1601,9.5,9.75,0.0,0.0,10.0586,0.0,10.2383,10.3008,10.3203,10.3594,10.3711,10.3281,10.4492,10.5312,10.4883,10.5586,10.6406,10.6992,10.6992,10.7304,10.789,10.8008,10.8008,10.8008,10.8008,10.8008,10.8008,10.8008,10.8008,10.8008,10.8008,10.8008,10.8008,10.8008,10.8008,10.8008,10.8008,10.8008,10.8008,10.8008,10.8008,10.8008,10.8008,10.8008,10.8008,10.8008,10.8008,10.8008,10.8008,10.8008,10.8008,10.8008,10.8008,10.8008,0.0,0.0,0.0,0.0,0.0,0.0,0.0,0.0,0.0,0.0,0.0,3.2969,3.2226,3.2148,3.1797,3.0976,3.1758,3.2969,3.4648,3.4766,3.5156,3.6016,3.6055,0.0,3.6133,3.6953,3.7773,0.0,0.0,0.0,4.6367,4.8945,5.1484,5.3867,5.2109,5.0469,4.8906,0.0,0.0,0.0,0.0,5.25,5.3125,0.0,0.0,0.0,0.0,0.0,0.0,0.0,4.7578,4.7734,4.8633,4.8945,4.9141,0.0,0.0,0.0,6.4805,6.9414,7.4687,8.7109,9.0976,9.3437,0.0,0.0,10.0781,10.25,10.289,10.3203,10.3984,10.3515,10.3203,10.3984,10.4883,10.5781,10.6484,10.7304,10.789,10.789,10.789,10.8008,10.8008,10.8008,10.8008,10.8008,10.8008,10.8008,10.8008,10.8008,10.8008,10.8008,10.8008,10.8008,10.8008,10.8008,10.8008,10.8008,10.8008,10.8008,10.8008,10.8008,10.8008,10.8008,10.8008,10.8008,10.8008,10.8008,10.8008,10.8008,10.8008,10.8008,10.8008,10.8008,10.8008,10.8008,0.0,0.0,0.0,0.0,0.0,0.0,0.0,0.0,0.0,0.0,0.0,0.0,0.0,3.2969,3.2851,3.2539,3.3281,0.0,0.0,3.5547,3.5664,3.5976,3.6016,3.6016,3.6016,3.6328,0.0,0.0,0.0,4.1289,4.4687,4.6719,4.8789,5.0742,5.1211,5.1367,5.1133,4.8086,0.0,0.0,0.0,0.0,0.0,0.0,0.0,0.0,0.0,0.0,0.0,0.0,0.0,0.0,5.3555,5.1562,4.9062,4.9922,5.2812,5.6719,6.1445,6.7031,7.293,7.8672,8.4922,9.0273,9.2773,9.6523,9.9804,10.1015,10.2109,10.3203,10.3984,10.4414,10.4687,10.5,10.6211,10.6797,10.6015,10.7109,10.7812,10.7187,10.7695,10.8008,10.8008,10.8008,10.8008,10.8008,10.8008,10.8008,10.8008,10.8008,10.8008,10.8008,10.8008,10.8008,10.8008,10.8008,10.8008,10.8008,10.8008,10.8008,10.8008,10.8008,10.8008,10.8008,10.8008,10.8008,10.8008,10.8008,10.8008,10.8008,10.8008,10.8008,10.8008,10.8008,10.8008,10.8008,0.0,0.0,0.0,0.0,0.0,0.0,0.0,0.0,0.0,0.0,0.0,0.0,0.0,0.0,3.4453,3.3906,3.4375,3.4961,3.5547,3.5547,3.5703,3.5976,3.6016,3.6016,3.6016,0.0,0.0,0.0,0.0,0.0,0.0,0.0,4.7226,4.8945,5.0078,0.0,0.0,0.0,0.0,4.9531,0.0,0.0,6.3125,0.0,0.0,0.0,0.0,0.0,0.0,0.0,0.0,0.0,0.0,0.0,0.0,4.9687,5.2812,5.6523,5.8242,6.3281,6.9062,7.3164,7.8437,8.3945,8.8906,9.332,9.7148,9.9765,10.1719,10.3281,10.4414,10.5117,10.5586,10.5898,10.6797,10.7304,10.6484,10.7304,10.7812,10.7187,10.7617,10.8008,10.8008,10.8008,10.8008,10.8008,10.8008,10.8008,10.8008,10.8008,10.8008,10.8008,10.8008,10.8008,10.8008,10.8008,10.8008,10.8008,10.8008,10.8008,10.8008,10.8008,10.8008,10.8008,10.8008,10.8008,10.8008,10.8008,10.8008,10.8008,10.8008,10.8008,10.8008,10.8008,10.8008,10.8008,0.0,0.0,0.0,0.0,0.0,0.0,0.0,0.0,3.5078,3.5976,0.0,0.0,0.0,0.0,0.0,3.5,3.4844,3.4805,3.4766,3.4766,3.5117,3.5976,3.6016,0.0,0.0,0.0,0.0,0.0,0.0,0.0,0.0,0.0,4.7148,0.0,4.8867,4.9766,5.1289,0.0,0.0,5.1992,0.0,5.9961,5.8555,0.0,0.0,0.0,7.5469,7.6875,0.0,0.0,0.0,0.0,0.0,0.0,0.0,0.0,5.1992,5.5351,0.0,0.0,0.0,7.0781,7.1758,7.4375,8.8789,9.1484,9.2734,9.8945,10.1484,10.3203,10.5117,10.5508,10.5781,10.6601,10.6719,10.6992,10.789,10.8008,10.8008,10.8008,10.8008,10.8008,10.8008,10.8008,10.8008,10.8008,10.8008,10.8008,10.8008,10.8008,10.8008,10.8008,10.8008,10.8008,10.8008,10.8008,10.8008,10.8008,10.8008,10.8008,10.8008,10.8008,10.8008,10.8008,10.8008,10.8008,10.8008,10.8008,10.8008,10.8008,10.8008,10.8008,10.8008,10.8008,10.8008,10.8008,0.0,0.0,0.0,0.0,0.0,3.4531,3.5195,3.6016,3.6875,0.0,0.0,0.0,0.0,0.0,0.0,3.8516,3.7891,3.7266,3.6601,3.5976,3.5742,3.5976,3.6601,3.6953,3.6953,0.0,0.0,0.0,0.0,0.0,0.0,0.0,0.0,0.0,4.7695,4.8555,4.9492,4.8008,0.0,0.0,6.1678,6.75,0.0,0.0,0.0,0.0,0.0,8.6562,0.0,0.0,8.1367,6.9414,0.0,0.0,5.1836,0.0,0.0,5.7031,5.6406,0.0,0.0,0.0,0.0,0.0,0.0,8.1328,8.5859,9.6289,9.6836,9.75,10.4297,10.5508,10.5781,10.6601,10.7187,10.7695,10.8008,10.8008,10.8008,10.8008,10.8008,10.8008,10.8008,10.8008,10.8008,0.0,10.8008,10.8008,10.8008,10.8008,10.8008,10.8008,10.8008,10.8008,10.8008,10.8008,10.8008,10.8008,10.8008,10.8008,10.8008,10.8008,10.8008,10.8008,10.8008,10.8008,10.8008,10.8008,10.8008,10.8008,10.8008,10.8008,10.8008,10.8008,10.8008,10.8008,0.0,0.0,3.6289,3.6797,3.7461,3.7969,3.8125,3.8906,3.9609,0.0,0.0,0.0,0.0,0.0,0.0,0.0,4.0156,3.9141,3.793,3.7031,3.6523,3.6523,3.7031,3.7461,3.7812,0.0,0.0,0.0,0.0,0.0,0.0,0.0,0.0,0.0,0.0,0.0,0.0,0.0,0.0,0.0,6.2493,0.0,0.0,8.2382,8.6444,0.0,0.0,0.0,9.0898,9.5703,8.8437,0.0,0.0,0.0,0.0,0.0,0.0,5.8242,5.7383,5.875,6.0469,6.0703,0.0,0.0,0.0,7.8008,8.3047,9.4765,9.5898,9.6719,10.3203,10.3789,10.3984,10.5898,10.6289,10.6797,10.789,10.8008,10.8008,10.8008,10.8008,10.8008,10.8008,10.8008,10.8008,10.8008,10.8008,10.8008,10.8008,10.8008,10.8008,10.8008,10.8008,10.8008,10.8008,10.8008,10.8008,10.8008,10.8008,10.8008,10.8008,10.8008,10.8008,10.8008,10.8008,10.8008,10.8008,10.8008,10.8008,10.8008,10.8008,10.8008,10.8008,10.8008,10.8008,10.8008,0.0,0.0,4.0,4.0273,4.1641,4.25,4.1992,4.2422,4.293,0.0,0.0,0.0,0.0,0.0,0.0,0.0,4.1953,4.0625,3.8984,3.7969,3.7422,3.7422,3.7539,3.7969,3.8711,3.875,3.875,0.0,0.0,0.0,0.0,0.0,0.0,0.0,4.5586,4.6289,4.6328,0.0,0.0,5.7711,6.2627,6.6316,0.0,0.0,8.3335,0.0,9.2116,9.4928,9.4725,9.7617,9.2695,0.0,0.0,0.0,0.0,0.0,5.7344,5.9687,5.8594,5.9414,6.0937,0.0,0.0,0.0,0.0,7.7578,8.1172,9.2344,9.4765,9.6094,10.0195,9.9726,9.9765,10.289,10.3594,10.4687,10.7304,10.7617,10.7617,10.7695,10.7695,10.7812,10.8008,10.8008,10.8008,10.8008,10.8008,10.8008,10.8008,10.8008,10.8008,10.8008,10.8008,10.8008,10.8008,10.8008,10.8008,10.8008,10.8008,10.8008,10.8008,10.8008,10.8008,10.8008,10.8008,10.8008,10.8008,10.8008,10.8008,10.8008,10.8008,10.8008,10.8008,10.8008,10.8008,10.8008,3.9453,3.9766,4.0547,4.2617,4.3828,4.4922,4.6172,4.5898,4.6289,4.8398,0.0,0.0,0.0,0.0,0.0,0.0,0.0,4.1758,4.0742,3.9219,3.8359,3.8359,3.9023,3.9453,3.9648,3.9648,3.9648,3.9648,0.0,0.0,0.0,0.0,0.0,0.0,0.0,4.6289,4.6445,0.0,0.0,6.1781,6.5067,0.0,8.1757,8.8118,9.1828,9.3952,9.5985,9.6758,9.5904,0.0,8.7929,8.5742,0.0,0.0,0.0,0.0,0.0,0.0,0.0,0.0,0.0,0.0,0.0,0.0,0.0,6.8203,7.0273,8.082,7.9805,7.9336,8.6992,8.8711,8.9179,8.9844,9.6211,10.2187,10.5508,10.539,10.5195,10.5898,10.6015,10.6484,10.789,10.8008,10.8008,10.8008,10.8008,10.8008,10.8008,10.8008,10.8008,10.8008,10.8008,10.8008,10.8008,10.8008,10.8008,10.8008,10.8008,10.8008,10.8008,10.8008,10.8008,10.8008,10.8008,10.8008,10.8008,10.8008,10.8008,10.8008,10.8008,10.8008,10.8008,10.8008,10.8008,10.8008,4.0976,4.1836,4.3125,4.5273,4.6719,4.8008,4.9297,4.9492,4.9805,0.0,0.0,0.0,0.0,0.0,0.0,0.0,0.0,0.0,4.25,4.0859,3.9883,3.9883,3.9883,4.0273,4.1133,4.0742,4.0742,4.1133,0.0,0.0,0.0,0.0,0.0,0.0,0.0,0.0,0.0,0.0,5.6718,6.4403,6.7448,0.0,8.4948,9.0134,9.3451,9.5533,9.6815,9.7408,9.6673,9.0739,8.8476,0.0,0.0,7.5312,7.293,0.0,6.625,6.5586,0.0,0.0,0.0,6.289,0.0,0.0,0.0,0.0,6.9453,7.8476,7.7265,7.6562,8.3047,8.3554,8.3515,8.5273,9.0976,9.5312,9.582,10.1797,10.5898,10.5508,10.5508,10.6015,10.7187,10.7383,10.75,10.8008,10.8008,10.8008,10.8008,10.8008,10.8008,10.8008,10.8008,10.8008,10.8008,10.8008,10.8008,10.8008,10.8008,10.8008,10.8008,10.8008,10.8008,10.8008,10.8008,10.8008,10.8008,10.8008,10.8008,10.8008,10.8008,10.8008,10.8008,10.8008,10.8008,10.8008,4.2539,4.3906,4.5547,4.7305,4.9023,5.0469,5.1289,5.1992,5.2305,0.0,0.0,0.0,0.0,0.0,0.0,0.0,0.0,0.0,0.0,4.4023,4.3086,4.293,4.1445,4.1562,4.3594,4.2187,4.168,4.2187,0.0,0.0,0.0,0.0,0.0,0.0,0.0,0.0,0.0,0.0,0.0,6.8031,0.0,7.6981,8.4188,8.9986,9.2393,9.3121,9.6464,9.7656,9.7089,9.3746,0.0,8.875,8.4648,8.0781,0.0,0.0,0.0,0.0,0.0,0.0,0.0,0.0,0.0,6.5078,0.0,0.0,0.0,0.0,0.0,0.0,0.0,7.8398,7.789,8.0742,8.5039,8.707,0.0,9.5703,0.0,10.2187,10.3281,10.4609,10.539,10.6093,10.6914,10.789,10.7695,10.7695,10.8008,10.8008,10.8008,10.8008,10.8008,10.8008,10.8008,10.8008,10.8008,10.8008,10.8008,10.8008,10.8008,10.8008,10.8008,10.8008,10.8008,10.8008,10.8008,10.8008,10.8008,10.8008,10.8008,10.8008,10.8008,10.8008,10.8008,10.8008,4.3516,4.4336,4.5547,4.7305,4.9023,5.0469,5.1289,5.1484,5.207,0.0,0.0,0.0,0.0,0.0,0.0,0.0,0.0,0.0,5.1992,0.0,4.9922,4.9219,4.5391,4.4805,4.8086,4.4297,4.1953,4.1328,4.125,0.0,0.0,0.0,0.0,0.0,5.1068,0.0,0.0,0.0,6.7788,0.0,7.8981,8.0489,0.0,8.9862,9.1455,9.0122,9.6114,9.7799,9.6714,0.0,9.4375,9.4883,0.0,8.5664,0.0,0.0,0.0,0.0,0.0,0.0,0.0,0.0,6.7109,0.0,0.0,0.0,0.0,0.0,0.0,0.0,0.0,0.0,0.0,0.0,0.0,0.0,7.6367,8.457,9.0547,8.9648,9.5586,10.0117,10.0898,10.3789,10.6289,10.789,10.6601,10.6406,10.789,10.8008,10.8008,10.8008,10.8008,10.8008,10.8008,10.8008,10.8008,10.8008,10.8008,10.8008,10.8008,10.8008,10.8008,10.8008,10.8008,10.8008,10.8008,10.8008,10.8008,10.8008,10.8008,10.8008,10.8008,10.8008,10.8008,10.8008,4.3789,4.4805,4.6289,4.8047,4.8945,5.0078,5.1875,5.3437,5.5039,0.0,0.0,0.0,0.0,0.0,0.0,0.0,0.0,0.0,0.0,0.0,5.4492,5.4648,4.7617,4.578,5.0266,4.5147,4.2496,4.2656,4.1641,4.1561,0.0,0.0,0.0,0.0,5.5178,0.0,6.5077,0.0,0.0,0.0,0.0,0.0,0.0,8.8499,9.2139,9.1771,9.6039,9.7697,9.7688,0.0,9.5111,0.0,0.0,0.0,0.0,0.0,0.0,0.0,0.0,0.0,0.0,0.0,0.0,0.0,0.0,0.0,6.2969,0.0,0.0,0.0,0.0,0.0,0.0,0.0,7.0586,0.0,0.0,0.0,8.3203,8.6367,0.0,0.0,9.832,9.9687,10.1992,10.6211,10.3594,10.3086,10.6406,10.75,10.8008,10.8008,10.8008,10.8008,10.8008,10.8008,10.8008,10.8008,10.8008,10.8008,10.8008,10.8008,10.8008,10.8008,10.8008,10.8008,10.8008,10.8008,10.8008,10.8008,10.8008,10.8008,10.8008,10.8008,10.8008,10.8008,4.4178,4.5273,4.6719,4.7969,4.8398,4.9492,5.2266,5.4492,0.0,0.0,0.0,0.0,6.539,6.3045,0.0,0.0,0.0,6.793,0.0,0.0,6.0781,0.0,0.0,0.0,0.0,4.8184,4.4477,4.3708,4.2421,4.2261,0.0,0.0,0.0,0.0,0.0,6.2949,7.0814,0.0,0.0,7.8026,8.2514,8.1755,7.8941,8.7796,9.2011,9.3554,9.6281,9.7225,9.7347,9.8673,9.598,0.0,9.6795,0.0,0.0,0.0,0.0,0.0,7.6133,0.0,0.0,0.0,0.0,0.0,0.0,0.0,0.0,0.0,0.0,0.0,0.0,0.0,0.0,0.0,0.0,0.0,0.0,0.0,0.0,0.0,0.0,0.0,0.0,9.4023,9.6289,10.2617,9.9453,9.9648,10.5195,10.6719,10.75,10.8008,10.8008,10.8008,10.8008,10.8008,10.8008,10.8008,10.8008,10.8008,10.8008,10.8008,10.8008,10.8008,10.8008,10.8008,10.8008,10.8008,10.8008,10.8008,10.8008,10.8008,10.8008,10.8008,10.8008,10.8008,4.495,4.5662,4.6328,4.6367,4.707,4.8789,5.2187,0.0,0.0,0.0,0.0,0.0,0.0,0.0,0.0,0.0,0.0,8.1836,7.9375,0.0,7.0469,0.0,0.0,0.0,0.0,0.0,4.8685,4.3684,4.362,4.4054,4.4911,4.494,4.6376,4.9148,0.0,6.212,7.0455,7.5365,8.3235,9.2338,9.1527,9.1438,9.1518,0.0,9.0094,9.4051,9.6854,0.0,0.0,9.6472,9.7635,0.0,0.0,0.0,0.0,0.0,0.0,0.0,0.0,0.0,0.0,8.0742,0.0,0.0,0.0,0.0,6.5234,0.0,0.0,0.0,0.0,0.0,0.0,0.0,0.0,0.0,0.0,0.0,0.0,0.0,0.0,0.0,0.0,8.6562,8.9375,0.0,9.4297,9.6523,10.5,10.5586,10.6289,10.789,10.8008,10.8008,10.8008,10.8008,10.8008,10.8008,10.8008,10.8008,10.8008,10.8008,10.8008,10.8008,10.8008,10.8008,10.8008,10.8008,10.8008,10.8008,10.8008,10.8008,10.8008,10.8008,10.8008,10.8008,4.6573,4.682,4.6868,4.6406,4.6523,4.8085,0.0,5.4903,0.0,0.0,0.0,0.0,0.0,0.0,8.0808,0.0,0.0,8.6229,8.6516,7.9257,0.0,0.0,0.0,6.1951,0.0,0.0,5.1469,4.6261,4.5055,4.4871,4.5722,4.5092,4.6727,5.0526,0.0,6.5467,0.0,0.0,0.0,0.0,0.0,8.7924,8.9363,0.0,0.0,9.3284,9.5893,9.6621,0.0,9.796,9.8312,9.8156,9.8146,9.625,9.3845,9.285,9.0742,0.0,0.0,0.0,9.0429,8.6953,0.0,0.0,0.0,0.0,0.0,0.0,0.0,0.0,0.0,0.0,0.0,0.0,0.0,0.0,0.0,0.0,0.0,0.0,0.0,0.0,0.0,0.0,0.0,0.0,9.332,0.0,10.3398,10.4883,10.6289,10.789,10.8008,10.8008,10.8008,10.8008,10.8008,10.8008,10.8008,10.8008,10.8008,10.8008,10.8008,10.8008,10.8008,10.8008,10.8008,10.8008,10.8008,10.8008,10.8008,10.8008,10.8008,10.8008,10.8008,10.8008,4.7903,4.7654,4.7325,4.6834,4.7499,0.0,0.0,0.0,0.0,0.0,7.1636,0.0,8.1873,0.0,8.3773,0.0,9.0296,8.9623,9.0828,8.4629,0.0,8.6864,7.5229,0.0,0.0,0.0,0.0,5.1969,4.8633,4.7135,4.7398,4.6496,4.796,5.1618,0.0,0.0,0.0,0.0,8.4781,0.0,0.0,8.8786,0.0,0.0,9.3826,9.2056,0.0,9.7134,9.7325,9.8962,9.9193,9.915,10.1195,9.9332,9.666,9.8266,9.6404,9.4219,9.6172,9.6836,0.0,9.3906,8.9101,0.0,7.832,0.0,0.0,0.0,0.0,0.0,0.0,0.0,0.0,0.0,0.0,0.0,0.0,0.0,0.0,0.0,0.0,0.0,0.0,0.0,0.0,0.0,0.0,0.0,0.0,10.3984,10.5586,10.789,10.8008,10.8008,10.8008,10.8008,10.8008,10.8008,10.8008,10.8008,10.8008,10.8008,10.8008,10.8008,10.8008,10.8008,10.8008,10.8008,10.8008,10.8008,10.8008,10.8008,10.8008,10.8008,10.8008,10.8008,0.0,0.0,0.0,0.0,5.0066,0.0,0.0,0.0,6.793,0.0,7.467,7.8371,8.0996,8.2266,8.5891,9.3302,9.2963,0.0,9.2702,8.8234,0.0,0.0,8.3575,8.0528,8.296,0.0,0.0,0.0,5.4018,5.0622,4.9792,4.8992,4.9808,5.2128,5.3872,0.0,7.2476,7.663,8.3401,9.1479,9.2364,9.4134,9.6211,9.6403,9.3864,9.0902,9.6711,9.7788,9.6788,9.9211,10.02,10.069,10.2406,10.3296,10.3904,10.4889,10.5214,10.5195,10.4492,10.1289,9.8789,10.1211,9.4844,0.0,0.0,0.0,8.4648,0.0,0.0,0.0,0.0,0.0,0.0,0.0,0.0,0.0,0.0,0.0,0.0,0.0,0.0,0.0,0.0,0.0,0.0,0.0,0.0,0.0,0.0,10.2617,10.4219,10.7812,10.789,10.789,10.789,10.789,10.789,10.789,10.8008,10.8008,10.8008,10.8008,10.8008,10.8008,10.8008,10.8008,10.8008,10.8008,10.8008,10.8008,10.8008,10.8008,10.8008,10.8008,10.8008,10.8008,5.0414,5.1229,5.2036,0.0,5.4918,5.8062,0.0,0.0,0.0,0.0,7.9602,8.3423,8.8728,9.0687,9.2443,9.4604,9.4394,0.0,0.0,0.0,0.0,9.3361,8.785,8.4725,8.4746,7.5545,0.0,6.2736,0.0,5.1068,4.9674,4.9975,5.0468,5.1202,0.0,0.0,7.2399,7.5361,8.3362,9.4134,9.5634,9.548,0.0,0.0,9.6865,9.4134,9.7557,9.8519,9.825,9.8904,9.9595,10.0319,10.0898,10.2107,10.3321,10.4009,10.4599,10.5092,10.5194,10.5312,10.5195,10.4609,9.9765,9.4804,0.0,0.0,0.0,0.0,0.0,0.0,0.0,0.0,0.0,0.0,0.0,0.0,0.0,0.0,0.0,0.0,0.0,0.0,0.0,0.0,0.0,0.0,0.0,0.0,0.0,0.0,9.9922,10.6015,10.6093,10.6093,10.6093,10.6093,10.6093,10.6211,10.7383,10.8008,10.8008,10.8008,10.8008,10.8008,10.8008,10.8008,10.8008,10.8008,10.8008,10.8008,10.8008,10.8008,10.8008,10.8008,10.8008,10.8008,5.2575,0.0,0.0,5.6329,0.0,0.0,6.5307,0.0,0.0,7.9718,8.3563,0.0,8.9599,9.2068,9.4017,9.5264,9.4853,0.0,0.0,0.0,0.0,9.2556,9.1467,9.0509,8.9599,8.225,0.0,6.8519,0.0,0.0,5.0619,5.101,5.1433,5.1933,5.4934,6.1166,6.9898,7.6938,8.4863,9.2979,9.5441,9.6211,0.0,9.9019,9.9365,9.8557,10.0404,10.0481,9.9904,9.9904,10.0212,10.0673,10.1199,10.25,10.3794,10.4594,10.5514,10.6414,10.6517,10.7303,10.7812,10.6797,10.4414,10.1719,9.9609,9.7617,9.5781,0.0,0.0,0.0,0.0,0.0,0.0,0.0,0.0,0.0,0.0,0.0,0.0,0.0,0.0,0.0,0.0,0.0,0.0,0.0,0.0,0.0,0.0,0.0,0.0,10.5312,10.5117,10.4686,10.4405,10.5507,10.5781,10.5508,10.7187,10.8008,10.8008,10.8008,10.8008,10.8008,10.8008,10.8008,10.8008,10.8008,10.8008,10.8008,10.8008,10.8008,10.8008,10.8008,10.8008,10.8008,0.0,0.0,0.0,0.0,0.0,0.0,0.0,7.5702,0.0,8.1964,0.0,8.9194,8.7583,9.028,9.3076,9.5334,0.0,9.3523,9.2185,9.453,9.4366,9.0834,9.4174,9.5788,9.5018,8.9902,0.0,0.0,0.0,0.0,5.1933,5.2241,5.2702,5.3318,5.5972,0.0,0.0,8.0169,8.744,9.1171,9.4364,9.7134,9.9365,10.0096,10.1404,10.2904,10.3597,10.2904,10.1597,10.1597,10.1597,10.1789,10.2597,10.3714,10.4919,10.5916,10.6987,10.8016,10.8299,10.8316,10.8398,10.8515,10.8515,10.789,10.5703,10.5,10.4883,10.4883,10.0,9.7461,0.0,0.0,0.0,0.0,0.0,0.0,0.0,0.0,0.0,0.0,0.0,0.0,0.0,0.0,0.0,0.0,0.0,0.0,0.0,0.0,0.0,10.4609,10.4297,10.359,10.2693,10.5303,10.6093,10.5312,10.7109,10.8008,10.8008,10.8008,10.8008,10.8008,10.8008,10.8008,10.8008,10.8008,10.8008,10.8008,10.8008,10.8008,10.8008,10.8008,10.8008,10.8008,0.0,0.0,0.0,0.0,0.0,7.3358,7.6546,8.0404,8.3577,8.5318,8.8682,9.0874,9.0687,9.2468,9.3969,9.4574,9.4318,0.0,0.0,0.0,0.0,9.3097,9.448,9.5172,9.498,8.9286,8.2862,0.0,0.0,0.0,5.1972,5.4049,5.4395,5.3356,5.6626,0.0,7.5822,8.3632,0.0,9.6365,9.8404,10.0289,10.1981,10.2097,10.2789,10.3712,10.3789,10.3712,10.3405,10.3405,10.3405,10.3482,10.3598,10.4292,10.5319,10.6593,10.7187,10.7791,10.9604,11.0113,11.0312,11.1015,11.1211,11.1093,11.0703,10.9414,10.8398,10.8398,10.6914,10.5312,10.4414,0.0,0.0,0.0,0.0,0.0,0.0,0.0,0.0,0.0,0.0,0.0,0.0,0.0,0.0,0.0,0.0,0.0,0.0,0.0,0.0,0.0,10.25,0.0,0.0,0.0,10.5296,10.4414,10.6797,10.8008,10.8008,10.8008,10.8008,10.8008,10.8008,10.8008,10.8008,10.8008,10.8008,10.8008,10.8008,10.8008,10.8008,10.8008,10.8008,10.8008,0.0,0.0,0.0,0.0,0.0,0.0,0.0,8.5247,0.0,8.8374,8.9716,9.0736,9.0808,9.2659,9.4126,9.4665,9.4589,9.4795,9.5186,9.5126,9.4864,9.4403,9.5211,0.0,9.5018,9.2633,8.6555,7.6669,0.0,0.0,5.3895,5.4703,5.4857,5.4818,6.1743,6.8744,0.0,0.0,0.0,9.5865,9.9788,10.1904,10.2712,10.3597,10.4212,10.4597,10.4982,10.5213,10.5097,10.4212,10.3905,10.3905,10.3905,10.4484,10.5512,10.6688,10.75,10.8406,10.9902,11.052,11.0686,11.1087,11.1206,11.1089,11.0699,10.9882,10.9218,10.8711,10.8281,10.6484,10.1719,9.566,0.0,0.0,0.0,0.0,0.0,0.0,0.0,0.0,0.0,0.0,0.0,0.0,0.0,0.0,0.0,0.0,0.0,0.0,0.0,0.0,0.0,0.0,0.0,0.0,10.5186,10.359,10.6601,10.8008,10.8008,10.8008,10.8008,10.8008,10.8008,10.8008,10.8008,10.8008,10.8008,10.8008,10.8008,10.8008,10.8008,10.8008,10.8008,10.8008,0.0,7.036,0.0,0.0,7.7438,0.0,8.4247,8.944,9.2623,9.1385,9.15,9.1732,9.1732,9.3581,9.5057,9.5749,9.5788,9.6095,9.6788,9.6826,9.6519,9.5826,9.6288,9.6249,9.5557,9.6057,9.0748,0.0,0.0,0.0,5.8088,5.7126,5.7934,6.0666,6.9052,0.0,0.0,0.0,9.3864,9.6019,10.0904,10.2981,10.3289,10.4597,10.5213,10.5482,10.6213,10.6405,10.6213,10.4905,10.4405,10.4405,10.4405,10.5022,10.589,10.7001,10.8008,10.9004,11.0212,11.0676,11.08,11.0983,11.1106,11.0989,11.0286,10.999,10.9685,10.8983,10.8515,10.6406,10.0195,9.7422,0.0,0.0,0.0,0.0,0.0,0.0,0.0,0.0,0.0,0.0,0.0,0.0,0.0,0.0,0.0,0.0,0.0,0.0,0.0,0.0,0.0,9.9996,9.9483,0.0,10.5504,10.3702,10.66,10.8008,10.8008,10.8008,10.8008,10.8008,10.8008,10.8008,10.8008,10.8008,10.8008,10.8008,10.8008,10.8008,10.8008,10.8008,10.8008,10.8008,0.0,0.0,0.0,0.0,0.0,0.0,8.8055,9.1941,9.4708,9.4554,9.5863,9.6825,9.6825,9.7749,9.8365,9.8442,9.8442,9.8481,9.8557,9.8557,9.8519,9.8442,9.7788,9.7365,9.7288,9.6634,9.3056,0.0,0.0,7.3283,6.6013,6.4397,6.7821,7.5399,0.0,0.0,0.0,9.2749,9.6749,10.1904,10.3212,10.4212,10.4905,10.4982,10.5597,10.629,10.6405,10.6405,10.6405,10.6213,10.6213,10.6213,10.6213,10.6215,10.668,10.8479,10.8608,10.8724,11.1378,11.1697,11.1494,11.2283,11.2713,11.2791,11.2791,11.2205,11.1595,11.1584,11.0308,10.8008,10.4297,10.3398,10.0507,0.0,0.0,0.0,0.0,0.0,0.0,0.0,0.0,0.0,0.0,0.0,0.0,0.0,0.0,0.0,0.0,0.0,0.0,9.5675,0.0,9.611,9.6757,10.2597,10.58,10.6406,10.75,10.8008,10.8008,10.8008,10.8008,10.8008,10.8008,10.8008,10.8008,10.8008,10.8008,10.8008,10.8008,10.8008,10.8008,10.8008,10.8008,10.8008,0.0,0.0,0.0,0.0,0.0,0.0,0.0,9.5557,9.7288,9.7288,9.7403,9.7519,9.7519,9.8288,9.8788,9.8788,9.8788,9.8788,9.8788,9.8788,9.8788,9.8788,9.8481,9.8288,9.8288,9.798,9.4864,0.0,0.0,0.0,0.0,7.0206,7.2899,7.9823,0.0,8.9787,9.2826,9.775,10.1212,10.3482,10.4289,10.4789,10.5174,10.5713,10.6097,10.6405,10.6405,10.6405,10.6405,10.6405,10.6405,10.6405,10.6405,10.6405,10.6715,10.7991,10.8601,10.9195,11.0794,11.1598,11.2016,11.2406,11.2484,11.2289,11.1315,11.1318,11.1307,11.0307,11.0085,10.9514,10.7617,10.6015,10.3593,9.9664,0.0,0.0,0.0,0.0,0.0,0.0,0.0,0.0,0.0,0.0,0.0,0.0,0.0,0.0,0.0,0.0,0.0,9.4174,0.0,10.0819,10.1113,10.4011,10.5612,10.5917,10.7302,10.8008,10.8008,10.8008,10.8008,10.8008,10.8008,10.8008,10.8008,10.8008,10.8008,10.8008,10.8008,10.8008,10.8008,10.8008,10.8008,10.8008,8.9133,0.0,9.0287,0.0,9.3633,9.4557,9.6711,9.8442,9.9442,9.9211,9.8865,9.8519,9.8288,9.9019,9.9558,9.9558,9.9558,9.9558,9.9558,9.9558,9.9558,9.9558,9.9288,0.0,9.9173,9.8942,9.6865,9.2903,8.6709,0.0,8.0823,7.8746,8.0977,8.694,9.3172,9.6019,9.6557,10.1981,10.4289,10.4289,10.5213,10.5482,10.5482,10.6213,10.6405,10.6405,10.6405,10.6405,10.6405,10.6405,10.6405,10.6405,10.6405,10.6405,10.6597,10.7405,10.8184,10.8987,10.9876,11.0886,11.1787,11.1787,11.2103,11.2,11.0679,11.1102,11.1279,10.9912,11.0305,11.0612,10.9795,10.8199,10.6087,10.3513,0.0,0.0,0.0,0.0,0.0,0.0,0.0,0.0,0.0,0.0,0.0,0.0,0.0,0.0,0.0,0.0,0.0,0.0,0.0,0.0,10.2289,10.3897,10.5189,10.6185,10.7419,10.8008,10.8008,10.8008,10.8008,10.8008,10.8008,10.8008,10.8008,10.8008,10.8008,10.8008,10.8008,10.8008,10.8007,10.7996,10.7915,10.7894,9.6711,9.7365,9.7634,9.8557,9.9404,9.9712,9.8904,10.0212,10.1019,10.0173,10.0789,10.1019,10.0173,10.0789,10.1289,10.1289,10.1289,10.1289,10.1289,10.1289,10.1289,0.0,0.0,10.0096,10.0096,9.925,9.9173,9.9981,0.0,0.0,9.2287,9.1402,9.4134,9.9904,10.0789,10.2597,10.4982,10.4982,10.5097,10.5213,10.602,10.6405,10.6405,10.6405,10.6405,10.6405,10.6405,10.6405,10.6405,10.6405,10.6405,10.6405,10.6405,10.6405,10.6597,10.7405,10.7713,10.7905,10.8675,10.9803,11.0593,11.0593,11.1506,11.2311,11.2311,11.2311,11.2075,11.1489,11.1422,11.1182,11.0714,11.0587,10.8299,10.1515,0.0,0.0,0.0,0.0,0.0,0.0,8.6918,8.6789,9.437,0.0,0.0,0.0,0.0,0.0,0.0,0.0,0.0,9.4832,9.3576,0.0,9.776,10.1187,10.4603,10.8008,10.8008,10.8008,10.8008,10.8008,10.8008,10.8008,10.8008,10.8008,10.8008,10.8008,10.8008,10.8008,10.8008,10.8008,10.8001,10.7907,10.7802,10.7794,9.8942,9.9712,10.0404,10.1212,10.1597,10.1904,10.2212,10.2712,10.2981,10.2712,10.2904,10.2981,10.2712,10.1904,10.152,0.0,10.1597,10.1597,0.0,10.1597,10.1597,10.2212,10.1904,10.2097,10.2712,10.2404,10.2404,10.2712,0.0,0.0,0.0,9.7403,10.0019,10.3482,10.4405,10.4905,10.5097,10.5713,10.602,10.602,10.629,10.6405,10.6405,10.6405,10.6405,10.6405,10.6405,10.6405,10.6405,10.6405,10.6405,10.6405,10.6405,10.6405,10.6521,10.6713,10.7213,10.779,10.7982,10.8721,10.9378,10.9378,11.0189,11.0689,11.0071,11.0593,11.1273,11.1919,11.1994,11.1819,11.131,11.1112,10.9714,10.5412,10.662,0.0,9.9257,0.0,0.0,0.0,9.7037,9.7955,0.0,9.2551,0.0,0.0,0.0,0.0,0.0,0.0,0.0,0.0,10.0102,0.0,10.3811,10.4294,10.5687,10.8008,10.8008,10.8008,10.8008,10.8008,10.8008,10.8008,10.8008,10.8008,10.8007,10.7917,10.7922,10.7788,10.7722,10.7586,10.7597,10.7377,10.7414,10.7485,10.0904,10.1404,10.2097,10.2904,10.3097,10.3289,10.3789,10.4212,10.4405,10.4405,10.4405,10.4405,10.4405,10.3097,0.0,10.302,10.2597,10.252,10.3097,10.2597,10.252,10.3097,10.3097,10.3289,10.3905,10.3905,0.0,10.3905,10.0981,9.9712,9.9942,10.2212,10.3905,10.5097,10.602,10.6097,10.5597,10.6213,10.6405,10.6405,10.6405,10.6405,10.6405,10.6405,10.6405,10.6405,10.6405,10.6405,10.6405,10.6405,10.6405,10.6405,10.6405,10.6405,10.6405,10.6405,10.679,10.7213,10.7213,10.779,10.8406,10.8406,10.9098,10.9713,10.9406,11.0188,11.1184,11.201,11.2108,11.2091,11.1814,11.1705,11.0993,10.8792,10.9388,10.8499,10.4085,0.0,10.551,0.0,0.0,0.0,0.0,9.8331,9.561,0.0,0.0,0.0,0.0,0.0,0.0,9.9257,10.3207,10.5582,10.6193,10.5685,10.6303,10.8008,10.7903,10.7899,10.7899,10.7786,10.7814,10.7814,10.7814,10.7814,10.7801,10.7692,10.7716,10.7619,10.7474,10.7403,10.7309,10.7104,10.7114,10.7204,10.252,10.2712,10.2981,0.0,10.3982,0.0,10.4097,10.4713,10.5213,10.5213,10.5213,10.5213,10.5213,10.4482,10.4097,10.4097,0.0,0.0,10.3982,10.3905,10.3905,10.3982,10.3982,10.3982,10.4097,10.4097,10.4097,10.4097,10.4789,10.4789,10.4097,10.5713,10.602,10.5213,10.602,10.6405,10.6405,10.6405,10.6405,10.6405,10.6405,10.6405,10.6405,10.6405,10.6405,10.6405,10.6405,10.6405,10.6405,10.6405,10.6405,10.6405,10.6405,10.6405,10.6405,10.6405,10.6405,10.6405,10.6405,10.7021,10.7598,10.7598,10.8213,10.9098,10.9983,11.0791,11.1494,11.1802,11.1912,11.1975,11.2192,11.2285,11.2106,11.159,11.1398,11.0314,10.7192,10.8081,10.6219,0.0,0.0,0.0,10.0908,10.0991,10.2792,0.0,0.0,0.0,0.0,0.0,9.6007,10.4089,10.3581,10.4003,10.5615,10.5591,10.6395,10.8001,10.7805,10.7795,10.7802,10.761,10.7516,10.7516,10.7498,10.7498,10.7498,10.7498,10.7404,10.7372,10.7295,10.7297,10.71,10.6912,10.6873,10.6912,0.0,0.0,10.3905,10.4713,10.4789,10.4982,10.5713,10.602,10.6097,10.6097,10.6097,10.6097,10.6097,10.5905,10.579,10.579,10.4597,10.4212,10.4789,10.4212,10.4212,10.4789,10.4789,10.5097,10.579,10.579,10.579,10.579,10.602,10.602,10.579,10.6213,10.629,10.6097,10.629,10.6405,10.6405,10.6405,10.6405,10.6405,10.6405,10.6405,10.6405,10.6405,10.6405,10.6405,10.6405,10.6405,10.6405,10.6405,10.6405,10.6405,10.6405,10.6405,10.6405,10.6405,10.6405,10.6405,10.6405,10.6597,10.6713,10.6713,10.7405,10.8406,10.9906,11.0406,11.0718,11.1378,11.1612,11.1693,11.1898,11.2002,11.201,11.2083,11.1491,11.0199,10.7488,10.7605,10.7001,10.4294,10.5114,10.6493,10.7987,10.8196,10.6204,0.0,0.0,0.0,0.0,10.0898,10.3705,10.6991,10.6913,10.6991,10.7419,10.7402,10.7495,10.7804,10.771,10.761,10.7608,10.7493,10.7513,10.7513,10.7432,10.7408,10.7408,10.7111,10.7014,10.6989,10.6796,10.668,10.668,10.6602,10.6603,10.6603,10.4405,10.4405,10.4713,10.5482,10.5713,10.5905,10.629,10.6405,10.6405,10.6405,10.6405,10.6405,10.6405,10.6405,10.6405,10.6405,10.5597,10.5213,10.5713,10.529,10.5213,10.5713,10.5713,10.5905,10.6405,10.6405,10.6405,10.6405,10.6405,10.6405,10.6405,10.6405,10.6405,10.6405,10.6405,10.6405,10.6405,10.6405,10.6405,10.6405,10.6405,10.6405,10.6405,10.6405,10.6405,10.6405,10.6405,10.6405,10.6405,10.6405,10.6405,10.6405,10.6405,10.6405,10.6405,10.6405,10.6405,10.6405,10.6405,10.6405,10.6405,10.6405,10.729,10.8406,10.8906,10.9983,11.0791,11.0906,11.1214,11.1529,11.1732,11.1732,11.1805,11.2096,11.069,10.9228,10.8004,10.7593,10.7402,10.7485,10.8607,11.0012,11.1602,11.1306,10.9319,10.5204,10.5896,0.0,10.2309,10.4219,10.5914,10.7187,10.7695,10.7987,10.7986,10.7895,10.7802,10.7724,10.7507,10.7403,10.7382,10.7305,10.7227,10.7199,10.7095,10.71,10.7102,10.6911,10.6796,10.6719,10.6603,10.6487,10.6409,10.6367,10.6407,10.6486,10.5213,10.529,10.5482,10.629,10.6405,10.6405,10.6405,10.6405,10.6405,10.6405,10.6405,10.6405,10.6405,10.6405,10.6405,10.6405,10.6405,10.6405,10.6405,10.6405,10.6405,10.6405,10.6405,10.6405,10.6405,10.6405,10.6405,10.6405,10.6405,10.6405,10.6405,10.6405,10.6405,10.6405,10.6405,10.6405,10.6405,10.6405,10.6405,10.6405,10.6405,10.6405,10.6405,10.6405,10.6405,10.6405,10.6405,10.6405,10.6405,10.6405,10.6405,10.6405,10.6405,10.6405,10.6405,10.6405,10.6405,10.6405,10.6405,10.6405,10.6405,10.6405,10.7521,10.8406,10.779,10.9483,11.0906,11.0291,11.0906,11.1522,11.1522,11.1522,11.1301,11.0607,10.9093,10.7802,10.7092,10.721,10.7688,10.8692,11.0104,11.1489,11.2682,11.1807,11.1212,11.1407,10.8405,10.7199,10.85,10.6603,10.5612,10.6107,10.7313,10.7986,10.7929,10.7774,10.7614,10.7421,10.7305,10.7189,10.7189,10.7111,10.6923,10.6821,10.6786,10.6712,10.6679,10.6718,10.6565,10.6487,10.6487,10.6486,10.6405,10.6405,10.6405,10.6405,10.6213,10.6213,10.6213,10.6405,10.6405,10.6405,10.6405,10.6405,10.6405,10.6405,10.6405,10.6405,10.6405,10.6405,10.6405,10.6405,10.6405,10.6405,10.6405,10.6405,10.6405,10.6405,10.6405,10.6405,10.6405,10.6405,10.6405,10.6405,10.6405,10.6405,10.6405,10.6405,10.6405,10.6405,10.6405,10.6405,10.6405,10.6405,10.6405,10.6405,10.6405,10.6405,10.6405,10.6405,10.6405,10.6405,10.6405,10.6405,10.6405,10.6405,10.6405,10.6405,10.6405,10.6405,10.6405,10.6405,10.6405,10.6405,10.6405,10.6405,10.6405,10.6405,10.6597,10.6905,10.7598,10.8482,10.9483,11.0098,11.0906,11.1522,11.1522,11.1522,10.9867,10.4869,10.6102,10.5986,10.0977,10.4692,10.8013,10.8181,10.989,11.1103,11.1305,11.0615,10.9793,10.9091,10.851,10.7313,10.5194,10.6194,10.6187,10.4711,10.6782,10.7909,10.7681,10.7409,10.7208,10.7208,10.7117,10.6995,10.6995,10.6995,10.6923,10.6821,10.6712,10.6602,10.6526,10.6486,10.6407,10.6407,10.6407,10.6405,10.6405,10.6405,10.6405,10.6405,10.6405,10.6405,10.6405,10.6405,10.6405,10.6405,10.6405,10.6405,10.6405,10.6405,10.6405,10.6405,10.6405,10.6405,10.6405,10.6405,10.6405,10.6405,10.6405,10.6405,10.6405,10.6405,10.6405,10.6405,10.6405,10.6405,10.6405,10.6405,10.6405,10.6405,10.6405,10.6405,10.6405,10.6405,10.6405,10.6405,10.6405,10.6405,10.6405,10.6405,10.6405,10.6405,10.6405,10.6405,10.6405,10.6405,10.6405,10.6405,10.6405,10.6405,10.6405,10.6405,10.6405,10.6405,10.6405,10.6405,10.6405,10.6405,10.6405,10.6405,10.6405,10.6405,10.679,10.7098,10.7021,10.7982,10.8906,10.8906,10.9483,11.0098,11.0098,11.0098,10.8906,10.5213,10.602,10.5597,10.1404,10.4484,10.7098,10.6686,10.862,11.0027,11.0304,10.9501,10.8789,10.8505,10.8086,10.7197,10.5899,10.6704,10.6796,10.5904,10.6989,10.7498,10.718,10.7066,10.6985,10.6902,10.6894,10.6923,10.6995,10.6995,10.689,10.6712,10.6714,10.6603,10.6409,10.6367,10.6405,10.6405,10.6405,10.6405,10.6405,10.6405,10.6405,10.6405,10.6405,10.6405,10.6405,10.6405,10.6405,10.6405,10.6405,10.6405,10.6405,10.6405,10.6405,10.6405,10.6405,10.6405,10.6405,10.6405,10.6405,10.6405,10.6405,10.6405,10.6405,10.6405,10.6405,10.6405,10.6405,10.6405,10.6405,10.6405,10.6405,10.6405,10.6405,10.6405,10.6405,10.6405,10.6405,10.6405,10.6405,10.6405,10.6405,10.6405,10.6405,10.6405,10.6405,10.6405,10.6405,10.6405,10.6405,10.6405,10.6405,10.6405,10.6405,10.6405,10.6405,10.6405,10.6405,10.6405,10.6405,10.6405,10.6405,10.6405,10.6405,10.6405,10.6905,10.7213,10.6597,10.7598,10.8406,10.779,10.829,10.8906,10.8906,10.8906,10.7982,10.5405,10.5597,10.5097,10.2404,10.4405,10.6102,10.6319,10.7683,10.8801,10.9305,10.8305,10.7807,10.7978,10.7425,10.697,10.697,10.697,10.6989,10.6995,10.7104,10.6989,10.6912,10.6912,10.6794,10.6786,10.6783,10.6928,10.7001,10.7001,10.6783,10.6679,10.6679,10.6603,10.6405,10.6405,10.6405,10.6405,10.6405,10.6405,10.6405,10.6405,10.6405,10.6405,10.6405,10.6405,10.6405,10.6405,10.6405,10.6405,10.6405,10.6405,10.6405,10.6405,10.6405,10.6405,10.6405,10.6405,10.6405,10.6405,10.6405,10.6405,10.6405,10.6405,10.6405,10.6405,10.6405,10.6405,10.6405,10.6405,10.6405,10.6405,10.6405,10.6405,10.6405,10.6405,10.6405,10.6405,10.6405,10.6405,10.6405,10.6405,10.6405,10.6405,10.6405,10.6405,10.6405,10.6405,10.6405,10.6405,10.6405,10.6405,10.6405,10.6405,10.6405,10.6405,10.6405,10.6405,10.6405,10.6405,10.6405,10.6405,10.6405,10.6405,10.6405,10.6405,10.6405,10.6521,10.6405,10.7098,10.779,10.7713,10.829,10.8906,10.8906,10.8906,10.7098,10.1481,10.3212,10.3982,10.0712,10.3097,10.6097,10.8409,10.8098,10.7831,10.7872,10.7025,10.6484,10.6602,10.6486,10.6486,10.6486,10.6486,10.6486,10.6484,10.6679,10.6794,10.6831,10.6681,10.6716,10.6678,10.6894,10.6923,10.6783,10.6783,10.6676,10.6488,10.6488,10.6526,10.6405,10.6405,10.6405,10.6405,10.6405,10.6405,10.6405,10.6405,10.6405,10.6405,10.6405,10.6405,10.6405,10.6405,10.6405,10.6405,10.6405,10.6405,10.6405,10.6405,10.6405,10.6405,10.6405,10.6405,10.6405,10.6405,10.6405,10.6405,10.6405,10.6405,10.6405,10.6405,10.6405,10.6405,10.6405,10.6405,10.6405,10.6405,10.6405,10.6405,10.6405,10.6405,10.6405,10.6405,10.6405,10.6405,10.6405,10.6405,10.6405,10.6405,10.6405,10.6405,10.6405,10.6405,10.6405,10.6405,10.6405,10.6405,10.6405,10.6405,10.6405,10.6405,10.6405,10.6405,10.6405,10.6405,10.6405,10.6405,10.6405,10.6405,10.6405,10.6405,10.6405,10.6405,10.6405,10.6713,10.6905,10.6905,10.7098,10.729,10.729,10.729,10.629,10.2981,10.4905,10.5713,10.2904,10.4905,10.6905,10.729,10.7098,10.6905,10.6905,10.6597,10.6405,10.6405,10.6405,10.6405,10.6405,10.6405,10.6405,10.6405,10.6521,10.6597,10.6597,10.6486,10.6526,10.6603,10.6716,10.6714,10.6676,10.6676,10.6716,10.6488,10.6488,10.6526,10.6405,10.6405,10.6405,10.6405,10.6405,10.6405,10.6405,10.6405,10.6405,10.6405,10.6405,10.6405,10.6405,10.6405,10.6405,10.6405,10.6405,10.6405,10.6405,10.6405,10.6405,10.6405,10.6405,10.6405,10.6405,10.6405,10.6405,10.6405,10.6405,10.6405,10.6405,10.6405,10.6405,10.6405,10.6405,10.6405,10.6405,10.6405,10.6405,10.6405,10.6405,10.6405,10.6405,10.6405,10.6405,10.6405,10.6405,10.6405,10.6405,10.6405,10.6405,10.6405,10.6405,10.6405,10.6405,10.6405,10.6405,10.6405,10.6405,10.6405,10.6405,10.6405,10.6405,10.6405,10.6405,10.6405,10.6405,10.6405,10.6405,10.6405,10.6405,10.6405,10.6405,10.6405,10.6405,10.6405,10.6405,10.6405,10.6405,10.6405,10.6405,10.6405,10.602,10.4905,10.6213,10.6713,10.4905,10.6213,10.7098,10.6521,10.6405,10.6405,10.6405,10.6405,10.6405,10.6405,10.6405,10.6405,10.6405,10.6405,10.6405,10.6405,10.6405,10.6405,10.6405,10.6407,10.6486,10.6488,10.6488,10.6603,10.6602,10.6602,10.6603,10.6526,10.6526,10.6409,10.6405,10.6405,10.6405,10.6405,10.6405,10.6405,10.6405,10.6405,10.6405,10.6405,10.6405,10.6405,10.6405,10.6405,10.6405,10.6405,10.6405,10.6405,10.6405,10.6405,10.6405,10.6405,10.6405,10.6405,10.6405,10.6405,10.6405,10.6405,10.6405,10.6405,10.6405,10.6405,10.6405,10.6405,10.6405,10.6405,10.6405,10.6405,10.6405,10.6405,10.6405,10.6405,10.6405,10.6405,10.6405,10.6405,10.6405,10.6405,10.6405,10.6405,10.6405,10.6405,10.6405,10.6405,10.6405,10.6405,10.6405,10.6405,10.6405,10.6405,10.6405,10.6405,10.6405,10.6405,10.6405,10.6405,10.6405,10.6405,10.6405,10.6405,10.6405,10.6405,10.6405,10.6405,10.6405,10.6405,10.6405,10.6405,10.6405,10.6405,10.6405,10.6405,10.6405,10.6405,10.6405,10.6405,10.6405,10.6405,10.6405,10.6405,10.6405,10.6405,10.6405,10.6405,10.6405,10.6405,10.6405,10.6405,10.6405,10.6405,10.6405,10.6405,10.6405,10.6405,10.6405,10.6526,10.6488,10.6488,10.6602,10.6602,10.6488,10.6488,10.6526,10.6405,10.6405,10.6405,10.6405,10.6405,10.6405,10.6405,10.6405,10.6405,10.6405,10.6405,10.6405,10.6405,10.6405,10.6405,10.6405,10.6405,10.6405,10.6405,10.6405,10.6405,10.6405,10.6405,10.6405,10.6405,10.6405,10.6405,10.6405,10.6405,10.6405,10.6405,10.6405,10.6405,10.6405,10.6405,10.6405,10.6405,10.6405,10.6405,10.6405,10.6405,10.6405,10.6405,10.6405,10.6405,10.6405,10.6405,10.6405,10.6405,10.6405,10.6405,10.6405,10.6405,10.6405,10.6405,10.6405,10.6405,10.6405,10.6405,10.6405,10.6405,10.6405,10.6405,10.6405,10.6405,10.6405,10.6405,10.6405,10.6405,10.6405,10.6405,10.6405,10.6405,10.6405,10.6405,10.6405,10.6405,10.6405,10.6405,10.6405,10.6405,10.6405,10.6405,10.6405,10.6405,10.6405,10.6405,10.6405,10.6405,10.6405,10.6405,10.6405,10.6405,10.6405,10.6405,10.6405,10.6405,10.6405,10.6405,10.6405,10.6405,10.6405,10.6405,10.6405,10.6405,10.6405,10.6405,10.6405,10.6407,10.6407,10.6407,10.6486,10.6486,10.6407,10.6407,10.6407,10.6405,10.6405,10.6405,10.6405,10.6405,10.6405,10.6405,10.6405,10.6405,10.6405,10.6405,10.6405,10.6405,10.6405,10.6405,10.6405,10.6405,10.6405,10.6405,10.6405,10.6405,10.6405,10.6405,10.6405,10.6405,10.6405,10.6405,10.6405,10.6405,10.6405,10.6405,10.6405,10.6405,10.6405,10.6405,10.6405,10.6405,10.6405,10.6405,10.6405,10.6405,10.6405,10.6405,10.6405,10.6405,10.6405,10.6405,10.6405,10.6405,10.6405,10.6405,10.6405,10.6405,10.6405,10.6405,10.6405,10.6405,10.6405,10.6405,10.6405,10.6405,10.6405,10.6405,10.6405,10.6405,10.6405,10.6405,10.6405,10.6405,10.6405,10.6405,10.6405,10.6405,10.6405,10.6405,10.6405,10.6405,10.6405,10.6405,10.6405,10.6405,10.6405,10.6405,10.6405,10.6405,10.6405,10.6405,10.6405,10.6405,10.6405,10.6405,10.6405,10.6405,10.6405,10.6405,10.6405,10.6405,10.6405,10.6405,10.6405,10.6405,10.6405,10.6405,10.6405,10.6405,10.6405,10.6405,10.6405,10.6405,10.6405,10.6405,10.6405,10.6405,10.6405,10.6405,10.6405,10.6405,10.6405,10.6405,10.6405,10.6405,10.6405,10.6405,10.6405,10.6405,10.6405,10.6405,10.6405,10.6405,10.6405,10.6405,10.6405,10.6405,10.6405,10.6405,10.6405,10.6405,10.6405,10.6405,10.6405,10.6405,10.6405,10.6405,10.6405,10.6405,10.6405,10.6405,10.6405,10.6405,10.6405,10.6405,10.6405,10.6405,10.6405,10.6405,10.6405,10.6405,10.6405,10.6405,10.6405,10.6405,10.6405,10.6405,10.6405,10.6405,10.6405,10.6405,10.6405,10.6405,10.6405,10.6405,10.6405,10.6405,10.6405,10.6405,10.6405,10.6405,10.6405,10.6405,10.6405,10.6405,10.6405,10.6405,10.6405,10.6405,10.6405,10.6405,10.6405,10.6405,10.6405,10.6405,10.6405,10.6405,10.6405,10.6405,10.6405,10.6405,10.6405,10.6405,10.6405,10.6405,10.6405,10.6405,10.6405,10.6405,10.6405,10.6405,10.6405,10.6405,10.6405,10.6405,10.6405,10.6405,10.6405,10.6405,10.6405,10.6405,10.6405,10.6405,10.6405,10.6405,10.6405,10.6405,10.6405,10.6405,10.6405,10.6405,10.6405,10.6405,10.6405,10.6405,10.6405,10.6405,10.6405,10.6405,10.6405,10.6405,10.6405,10.6405,10.6405,10.6405,10.6405,10.6405,10.6405,10.6405,10.6405,10.6405,10.6405,10.6405,10.6405,10.6405,10.6405,10.6405,10.6405,10.6405,10.6405,10.6405,10.6405,10.6405,10.6405,10.6405,10.6405,10.6405,10.6405,10.6405,10.6405,10.6405,10.6405,10.6405,10.6405,10.6405,10.6405,10.6405,10.6405,10.6405,10.6405,10.6405,10.6405,10.6405,10.6405,10.6405,10.6405,10.6405,10.6405,10.6405,10.6405,10.6405,10.6405,10.6405,10.6405,10.6405,10.6405,10.6405,10.6405,10.6405,10.6405,10.6405,10.6405,10.6405,10.6405,10.6405,10.6405,10.6405,10.6405,10.6405,10.6405,10.6405,10.6405,10.6405,10.6405,10.6405,10.6405,10.6405,10.6405,10.6405,10.6405,10.6405,10.6405,10.6405,10.6405,10.6405,10.6405,10.6405,10.6405,10.6405,10.6405,10.6405,10.6405,10.6405,10.6405,10.6405,10.6405,10.6405,10.6405,10.6405,10.6405,10.6405,10.6405,10.6405,10.6405,10.6405,10.6405,10.6405,10.6405,10.6405,10.6405,10.6405,10.6405,10.6405,10.6405,10.6405,10.6405,10.6405,10.6405,10.6405,10.6405,10.6405,10.6405,10.6405,10.6405,10.6405,10.6405,10.6405,10.6405,10.6405,10.6405,10.6405,10.6405,10.6405,10.6405,10.6405,10.6405,10.6405,10.6405,10.6405,10.6405,10.6405,10.6405,10.6405,10.6405,10.6405,10.6405,10.6405,10.6405,10.6405,10.6405,10.6405,10.6405,10.6405,10.6405,10.6405,10.6405,10.6405,10.6405,10.6405,10.6405,10.6405,10.6405,10.6405,10.6405,10.6405,10.6405,10.6405,10.6405,10.6405,10.6405,10.6405,10.6405,10.6405,10.6405,10.6405,10.6405,10.6405,10.6405,10.6405,10.6405,10.6405,10.6405,10.6405,10.6405,10.6405,10.6405,10.6405,10.6405,10.6405,10.6405,10.6405,10.6405,10.6405,10.6405,10.6405,10.6405,10.6405,10.6405,10.6405,10.6405,10.6405,10.6405,10.6405,10.6405,10.6405,10.6405,10.6405,10.6405,10.6405,10.6405,10.6405,10.6405,10.6405,10.6405,10.6405,10.6405,10.6405,10.6405,10.6405,10.6405,10.6405,10.6405,10.6405,10.6405,10.6405,10.6405,10.6405,10.6405,10.6405,10.6405,10.6405,10.6405,10.6405,10.6405,10.6405,10.6405,10.6405,10.6405,10.6405,10.6405,10.6405,10.6405,10.6405,10.6405,10.6405,10.6405,10.6405,10.6405,10.6405,10.6405,10.6405,10.6405,10.6405,10.6405,10.6405,10.6405,10.6405,10.6405,10.6405,10.6405,10.6405,10.6405,10.6405,10.6405,10.6405,10.6405,10.6405,10.6405,10.6405,10.6405,10.6405,10.6405,10.6405,10.6405,10.6405,10.6405,10.6405,10.6405,10.6405,10.6405,10.6405,10.6405,10.6405,10.6405,10.6405,10.6405,10.6405,10.6405,10.6405,10.6405,10.6405,10.6405,10.6405,10.6405,10.6405,10.6405,10.6405,10.6405,10.6405,10.6405,10.6405,10.6405,10.6405,10.6405,10.6405,10.6405,10.6405,10.6405,10.6405,10.6405,10.6405,10.6405,10.6405,10.6405,10.6405,10.6405,10.6405,10.6405,10.6405,10.6405,10.6405,10.6405,10.6405,10.6405,10.6405,10.6405,10.6405,10.6405,10.6405,10.6405,10.6405,10.6405,10.6405,10.6405,10.6405,10.6405,10.6405,10.6405,10.6405,10.6405,10.6405,10.6405,10.6405,10.6405,10.6405,10.6405,10.6405,10.6405,10.6405,10.6405,10.6405,10.6405,10.6405,10.6405,10.6405,10.6405,10.6405,10.6405,10.6405,10.6405,10.6405,10.6405,10.6405,10.6405,10.6405,10.6405,10.6405,10.6405,10.6405,10.6405,10.6405,10.6405,10.6405,10.6405,10.6405,10.6405,10.6405,10.6405,10.6405,10.6405,10.6405,10.6405,10.6405,10.6405,10.6405,10.6405,10.6405,10.6405,10.6405,10.6405,10.6405,10.6405,10.6405,10.6405,10.6405,10.6405,10.6405,10.6405,10.6405,10.6405,10.6405,10.6405,10.6405,10.6405,10.6405,10.6405,10.6405,10.6405,10.6405,10.6405,10.6405,10.6405,10.6405,10.6405,10.6405,10.6405,10.6405,10.6405,10.6405,10.6405,10.6405,10.6405,10.6405,10.6405,10.6405,10.6405,10.6405,10.6405,10.6405,10.6405,10.6405,10.6405,10.6405,10.6405,10.6405,10.6405,10.6405,10.6405,10.6405,10.6405,10.6405,10.6405,10.6405,10.6405,10.6405,10.6405,10.6405,10.6405,10.6405,10.6405,10.6405,10.6405,10.6405,10.6405,10.6405,10.6405,10.6405,10.6405,10.6405,10.6405,10.6405,10.6405,10.6405,10.6405,10.6405,10.6405,10.6405,10.6405,10.6405,10.6405,10.6405,10.6405,10.6405,10.6405,10.6405,10.6405,10.6405,10.6405,10.6405,10.6405,10.6405,10.6405,10.6405,10.6405,10.6405,10.6405,10.6405,10.6405,10.6405,10.6405,10.6405,10.6405,10.6405,10.6405,10.6405,10.6405,10.6405,10.6405,10.6405,10.6405,10.6405,10.6405,10.6405,10.6405,10.6405,10.6405,10.6405,10.6405,10.6405,10.6405,10.6405,10.6405,10.6405,10.6405,10.6405,10.6405,10.6405,10.6405,10.6405,10.6405,10.6405,10.6405,10.6405,10.6405,10.6405,10.6405,10.6405,10.6405,10.6405,10.6405,10.6405,10.6405,10.6405,10.6405,10.6405,10.6405,10.6405,10.6405,10.6405,10.6405,10.6405,10.6405,10.6405,10.6405,10.6405,10.6405,10.6405,10.6405,10.6405,10.6405,10.6405,10.6405,10.6405,10.6405,10.6405,10.6405,10.6405,10.6405,10.6405,10.6405,10.6405,10.6405,10.6405,10.6405,10.6405,10.6405,10.6405,10.6405,10.6405,10.6405,10.6405,10.6405,10.6405,10.6405,10.6405,10.6405,10.6405,10.6405,10.6405,10.6405,10.6405,10.6405,10.6405,10.6405,10.6405,10.6405,10.6405,10.6405,10.6405]},{"header":{"parameterUnit":"m.s-1","parameterCategory":1,"la1":30.6,"la2":28.766,"lo1":-90.7593,"lo2":-88.6598,"dx":0.0162,"dy":0.0183,"nx":116,"ny":114,"refTime":"2022-11-14T06:00:00:Z","depth":0,"parameterNumber":3,"parameterNumberName":"V-component_of_WINDS"},"data":[0.0,0.0,0.0,0.0,0.0,0.0,0.0,0.0,0.0,0.0,0.0,0.0,0.0,0.0,0.0,0.0,0.0,0.0,0.0,0.0,0.0,0.0,0.0,0.0,0.0,0.0,0.0,0.0,0.0,0.0,0.0,0.0,0.0,0.0,0.0,0.0,0.0,0.0,0.0,0.0,0.0,0.0,0.0,0.0,0.0,0.0,0.0,0.0,0.0,0.0,0.0,0.0,0.0,0.0,0.0,0.0,0.0,0.0,0.0,0.0,0.0,0.0,0.0,0.0,0.0,0.0,0.0,0.0,0.0,0.0,0.0,0.0,0.0,0.0,0.0,0.0,0.0,0.0,0.0,0.0,0.0,0.0,0.0,0.0,0.0,0.0,0.0,0.0,0.0,0.0,0.0,0.0,0.0,0.0,0.0,0.0,0.0,0.0,0.0,0.0,0.0,0.0,0.0,0.0,0.0,0.0,0.0,0.0,0.0,0.0,0.0,0.0,0.0,0.0,0.0,0.0,0.0,0.0,0.0,0.0,0.0,0.0,0.0,0.0,0.0,0.0,0.0,0.0,0.0,0.0,0.0,0.0,0.0,0.0,0.0,0.0,0.0,0.0,0.0,0.0,0.0,0.0,0.0,0.0,0.0,0.0,0.0,0.0,0.0,0.0,0.0,0.0,0.0,0.0,0.0,0.0,0.0,0.0,0.0,0.0,0.0,0.0,0.0,0.0,0.0,0.0,0.0,0.0,0.0,0.0,0.0,0.0,0.0,0.0,0.0,0.0,0.0,0.0,0.0,0.0,0.0,0.0,0.0,0.0,0.0,0.0,0.0,0.0,0.0,0.0,0.0,0.0,0.0,0.0,0.0,0.0,0.0,0.0,0.0,0.0,0.0,0.0,0.0,0.0,0.0,0.0,0.0,0.0,0.0,0.0,0.0,0.0,0.0,0.0,0.0,0.0,0.0,0.0,0.0,0.0,0.0,0.0,0.0,0.0,0.0,0.0,0.0,0.0,0.0,0.0,0.0,0.0,0.0,0.0,0.0,0.0,0.0,0.0,0.0,0.0,0.0,0.0,0.0,0.0,0.0,0.0,0.0,0.0,0.0,0.0,0.0,0.0,0.0,0.0,0.0,0.0,0.0,0.0,0.0,0.0,0.0,0.0,0.0,0.0,0.0,0.0,0.0,0.0,0.0,0.0,0.0,0.0,0.0,0.0,0.0,0.0,0.0,0.0,0.0,0.0,0.0,0.0,0.0,0.0,0.0,0.0,0.0,0.0,0.0,0.0,0.0,0.0,0.0,0.0,0.0,0.0,0.0,0.0,0.0,0.0,0.0,0.0,0.0,0.0,0.0,0.0,0.0,0.0,0.0,0.0,0.0,0.0,0.0,0.0,0.0,0.0,0.0,0.0,0.0,0.0,0.0,0.0,0.0,0.0,0.0,0.0,0.0,0.0,0.0,0.0,0.0,0.0,0.0,0.0,0.0,0.0,0.0,0.0,0.0,0.0,0.0,0.0,0.0,0.0,0.0,0.0,0.0,0.0,0.0,0.0,0.0,0.0,0.0,0.0,0.0,0.0,0.0,0.0,0.0,0.0,0.0,0.0,0.0,0.0,0.0,0.0,0.0,0.0,0.0,0.0,0.0,0.0,0.0,0.0,0.0,0.0,0.0,0.0,0.0,0.0,0.0,0.0,0.0,0.0,0.0,0.0,0.0,0.0,0.0,0.0,0.0,0.0,0.0,0.0,0.0,0.0,0.0,0.0,0.0,0.0,0.0,0.0,0.0,0.0,0.0,0.0,0.0,0.0,0.0,0.0,0.0,0.0,0.0,0.0,0.0,0.0,0.0,0.0,0.0,0.0,0.0,0.0,0.0,0.0,0.0,0.0,0.0,0.0,0.0,0.0,0.0,0.0,0.0,0.0,0.0,0.0,0.0,0.0,0.0,0.0,0.0,0.0,0.0,0.0,0.0,0.0,0.0,0.0,0.0,0.0,0.0,0.0,0.0,0.0,0.0,0.0,0.0,0.0,0.0,0.0,0.0,0.0,0.0,0.0,0.0,0.0,0.0,0.0,0.0,0.0,0.0,0.0,0.0,0.0,0.0,0.0,0.0,0.0,0.0,0.0,0.0,0.0,0.0,0.0,0.0,0.0,0.0,0.0,0.0,0.0,0.0,0.0,0.0,0.0,0.0,0.0,0.0,0.0,0.0,0.0,0.0,0.0,0.0,0.0,0.0,0.0,0.0,0.0,0.0,0.0,0.0,0.0,0.0,0.0,0.0,0.0,0.0,0.0,0.0,0.0,0.0,0.0,0.0,0.0,0.0,0.0,0.0,0.0,0.0,0.0,0.0,0.0,0.0,0.0,0.0,0.0,0.0,0.0,0.0,0.0,0.0,0.0,0.0,0.0,0.0,0.0,0.0,0.0,0.0,0.0,0.0,0.0,0.0,0.0,0.0,0.0,0.0,0.0,0.0,0.0,0.0,0.0,0.0,0.0,0.0,0.0,0.0,0.0,0.0,0.0,0.0,0.0,0.0,0.0,0.0,0.0,0.0,0.0,0.0,0.0,0.0,0.0,0.0,0.0,0.0,0.0,0.0,0.0,0.0,0.0,0.0,0.0,0.0,0.0,0.0,0.0,0.0,0.0,0.0,0.0,0.0,0.0,0.0,0.0,0.0,0.0,0.0,0.0,0.0,0.0,0.0,0.0,0.0,0.0,0.0,0.0,0.0,0.0,0.0,0.0,0.0,0.0,0.0,0.0,0.0,0.0,0.0,0.0,0.0,0.0,0.0,0.0,0.0,0.0,0.0,0.0,0.0,0.0,0.0,0.0,0.0,0.0,0.0,0.0,0.0,0.0,0.0,0.0,0.0,0.0,0.0,0.0,0.0,0.0,0.0,0.0,0.0,0.0,0.0,0.0,0.0,0.0,0.0,0.0,0.0,0.0,0.0,0.0,0.0,0.0,0.0,0.0,0.0,0.0,0.0,0.0,0.0,0.0,0.0,0.0,0.0,0.0,0.0,0.0,0.0,0.0,0.0,0.0,0.0,0.0,0.0,0.0,0.0,0.0,0.0,0.0,0.0,0.0,0.0,0.0,0.0,0.0,0.0,0.0,0.0,0.0,0.0,0.0,0.0,0.0,0.0,0.0,0.0,0.0,0.0,0.0,0.0,0.0,0.0,0.0,0.0,0.0,0.0,0.0,0.0,0.0,0.0,0.0,0.0,0.0,0.0,0.0,0.0,0.0,0.0,0.0,0.0,0.0,0.0,0.0,0.0,0.0,0.0,0.0,0.0,0.0,0.0,0.0,0.0,0.0,0.0,0.0,0.0,0.0,0.0,0.0,0.0,0.0,0.0,0.0,0.0,0.0,0.0,0.0,0.0,0.0,0.0,0.0,0.0,0.0,0.0,0.0,0.0,0.0,0.0,0.0,0.0,0.0,0.0,0.0,0.0,0.0,0.0,0.0,0.0,0.0,0.0,0.0,0.0,0.0,0.0,0.0,0.0,0.0,0.0,0.0,0.0,0.0,0.0,0.0,0.0,0.0,0.0,0.0,0.0,0.0,0.0,0.0,0.0,0.0,0.0,0.0,0.0,0.0,0.0,0.0,0.0,0.0,0.0,0.0,0.0,0.0,0.0,0.0,0.0,0.0,0.0,0.0,0.0,0.0,0.0,0.0,0.0,0.0,0.0,0.0,0.0,0.0,0.0,0.0,0.0,0.0,0.0,0.0,0.0,0.0,0.0,0.0,0.0,0.0,0.0,0.0,0.0,0.0,0.0,0.0,0.0,0.0,0.0,0.0,0.0,0.0,0.0,0.0,0.0,0.0,0.0,0.0,0.0,0.0,0.0,0.0,0.0,0.0,0.0,0.0,0.0,0.0,0.0,0.0,0.0,0.0,0.0,0.0,0.0,0.0,0.0,0.0,0.0,0.0,0.0,0.0,0.0,0.0,0.0,0.0,0.0,0.0,0.0,0.0,0.0,0.0,0.0,0.0,0.0,0.0,0.0,0.0,0.0,0.0,0.0,0.0,0.0,0.0,0.0,0.0,0.0,0.0,0.0,0.0,0.0,0.0,0.0,0.0,0.0,0.0,0.0,0.0,0.0,0.0,0.0,0.0,0.0,0.0,0.0,0.0,0.0,0.0,0.0,0.0,0.0,0.0,0.0,0.0,0.0,0.0,0.0,0.0,0.0,0.0,0.0,0.0,0.0,0.0,0.0,0.0,0.0,0.0,0.0,0.0,0.0,0.0,0.0,0.0,0.0,0.0,0.0,0.0,0.0,0.0,0.0,0.0,0.0,0.0,0.0,0.0,0.0,0.0,0.0,0.0,0.0,0.0,0.0,0.0,0.0,0.0,0.0,0.0,0.0,0.0,0.0,0.0,0.0,0.0,0.0,0.0,0.0,0.0,0.0,0.0,0.0,0.0,0.0,0.0,0.0,0.0,0.0,0.0,0.0,0.0,0.0,0.0,0.0,0.0,0.0,0.0,0.0,0.0,0.0,0.0,0.0,0.0,0.0,0.0,0.0,0.0,0.0,0.0,0.0,0.0,0.0,0.0,0.0,0.0,0.0,0.0,0.0,0.0,0.0,0.0,0.0,0.0,0.0,0.0,0.0,0.0,0.0,0.0,0.0,0.0,0.0,0.0,0.0,0.0,0.0,0.0,0.0,0.0,0.0,0.0,0.0,0.0,0.0,0.0,0.0,0.0,0.0,0.0,0.0,0.0,0.0,0.0,0.0,0.0,0.0,0.0,0.0,0.0,0.0,0.0,0.0,0.0,0.0,0.0,0.0,0.0,0.0,0.0,0.0,0.0,0.0,0.0,0.0,0.0,0.0,0.0,0.0,0.0,0.0,0.0,0.0,0.0,0.0,0.0,0.0,0.0,0.0,0.0,0.0,0.0,0.0,0.0,0.0,0.0,0.0,0.0,0.0,0.0,0.0,0.0,0.0,0.0,0.0,0.0,0.0,0.0,0.0,0.0,0.0,0.0,0.0,0.0,0.0,0.0,0.0,0.0,0.0,0.0,0.0,0.0,0.0,0.0,0.0,0.0,0.0,0.0,0.0,0.0,0.0,0.0,0.0,0.0,0.0,0.0,0.0,0.0,0.0,0.0,0.0,0.0,0.0,0.0,0.0,0.0,0.0,0.0,0.0,0.0,0.0,0.0,0.0,0.0,0.0,0.0,0.0,0.0,0.0,0.0,0.0,0.0,0.0,0.0,0.0,0.0,0.0,0.0,0.0,0.0,0.0,0.0,0.0,0.0,0.0,0.0,0.0,0.0,0.0,0.0,0.0,0.0,0.0,0.0,0.0,0.0,0.0,0.0,0.0,0.0,0.0,0.0,0.0,0.0,0.0,0.0,0.0,0.0,0.0,0.0,0.0,0.0,0.0,0.0,0.0,0.0,0.0,0.0,0.0,0.0,0.0,0.0,0.0,0.0,0.0,0.0,0.0,0.0,0.0,0.0,0.0,0.0,0.0,0.0,0.0,0.0,0.0,0.0,0.0,0.0,0.0,0.0,0.0,0.0,0.0,0.0,0.0,0.0,0.0,0.0,0.0,0.0,0.0,0.0,0.0,0.0,0.0,0.0,0.0,0.0,0.0,0.0,0.0,0.0,0.0,0.0,0.0,0.0,0.0,0.0,0.0,0.0,0.0,0.0,0.0,0.0,0.0,0.0,0.0,0.0,0.0,0.0,0.0,0.0,0.0,0.0,0.0,0.0,0.0,0.0,0.0,0.0,0.0,0.0,0.0,0.0,0.0,0.0,0.0,0.0,0.0,0.0,0.0,0.0,0.0,0.0,0.0,0.0,0.0,0.0,0.0,0.0,0.0,0.0,0.0,0.0,0.0,0.0,0.0,0.0,0.0,0.0,0.0,0.0,0.0,0.0,0.0,0.0,0.0,0.0,0.0,0.0,0.0,0.0,0.0,0.0,0.0,0.0,0.0,0.0,0.0,0.0,0.0,0.0,0.0,0.0,0.0,0.0,0.0,0.0,0.0,0.0,0.0,0.0,0.0,0.0,0.0,0.0,0.0,0.0,0.0,0.0,0.0,0.0,0.0,0.0,0.0,0.0,0.0,0.0,0.0,0.0,-0.8472,0.0,0.0,0.0,0.0,0.0,0.0,0.0,0.0,0.0,0.0,0.0,0.0,0.0,0.0,0.0,0.0,0.0,0.0,0.0,0.0,0.0,0.0,0.0,0.0,-0.3975,-0.405,-0.4073,-0.408,0.0,0.0,0.0,0.0,0.0,0.0,0.0,-0.3823,-0.3723,-0.3828,-0.4157,-0.3946,-0.4456,-0.5483,-0.3687,-0.3288,-0.4072,0.0,0.0,0.0,0.0,0.0,0.0,0.0,0.0,0.0,0.0,0.0,0.0,0.0,0.0,0.0,0.0,0.0,0.0,0.0,0.0,0.0,0.0,0.0,0.0,0.0,0.0,0.0,0.0,0.0,0.0,0.0,0.0,0.0,0.0,0.0,0.0,0.0,0.0,0.0,0.0,0.0,0.0,0.0,0.0,0.0,0.0,0.0,0.0,0.0,0.0,0.0,0.0,0.0,0.0,0.0,0.0,0.0,0.0,0.0,0.0,0.0,0.0,0.0,0.0,0.0,0.0,0.0,0.0,0.0,0.0,0.0,-0.8676,0.0,0.0,0.0,0.0,0.0,0.0,0.0,0.0,0.0,0.0,0.0,0.0,0.0,0.0,0.0,0.0,0.0,0.0,0.0,0.0,0.0,-0.3927,-0.4077,-0.4117,-0.4206,-0.4334,-0.4321,-0.4254,-0.4308,-0.4234,0.0,0.0,0.0,0.0,-0.3734,-0.3672,-0.3903,-0.44,-0.3834,-0.432,-0.5858,-0.3317,0.0,0.0,0.0,0.0,0.0,0.0,0.0,0.0,0.0,0.0,0.0,0.0,0.0,0.0,0.0,0.0,0.0,0.0,0.0,0.0,0.0,0.0,0.0,0.0,0.0,0.0,0.0,0.0,0.0,0.0,0.0,0.0,0.0,0.0,0.0,0.0,0.0,0.0,0.0,0.0,0.0,0.0,0.0,0.0,0.0,0.0,0.0,0.0,0.0,0.0,0.0,0.0,0.0,0.0,0.0,0.0,0.0,0.0,0.0,0.0,0.0,0.0,0.0,0.0,0.0,0.0,-1.0405,-1.0595,-1.0744,-1.0616,-1.0833,-1.124,-1.0195,-1.0209,-1.0846,-0.9083,0.0,0.0,0.0,0.0,0.0,0.0,0.0,0.0,0.0,0.0,0.0,0.0,0.0,0.0,0.0,0.0,0.0,0.0,0.0,-0.4246,-0.4389,-0.4524,-0.4714,-0.4992,-0.4716,-0.4584,-0.4644,-0.4358,0.0,0.0,0.0,0.0,-0.4143,-0.3958,-0.3966,-0.4137,-0.2796,-0.2921,-0.4592,-0.3908,-0.4026,-0.47,0.0,0.0,0.0,0.0,0.0,0.0,0.0,0.0,0.0,0.0,0.0,0.0,0.0,0.0,0.0,0.0,0.0,0.0,0.0,0.0,0.0,0.0,0.0,0.0,0.0,0.0,0.0,0.0,0.0,0.0,0.0,0.0,0.0,0.0,0.0,0.0,0.0,0.0,0.0,0.0,0.0,0.0,0.0,0.0,-0.8065,-0.8689,0.0,0.0,0.0,0.0,0.0,0.0,0.0,0.0,0.0,0.0,0.0,0.0,0.0,-1.0019,-1.0507,-1.0941,-1.1294,-1.1572,-1.2115,-1.2461,-1.261,-1.2589,-1.2623,-1.2671,-1.2244,0.0,-1.1104,-1.0704,0.0,0.0,0.0,0.0,0.0,0.0,0.0,0.0,0.0,0.0,0.0,0.0,0.0,0.0,0.0,0.0,0.0,0.0,0.0,0.0,0.0,-0.5009,-0.5332,-0.5464,-0.55,-0.5402,-0.5237,-0.5078,0.0,0.0,0.0,-0.3978,-0.3865,-0.3895,-0.3871,-0.3801,-0.4241,-0.4321,-0.4312,-0.3992,-0.3249,-0.2105,-0.3236,-0.3572,-0.3542,-0.319,0.0,0.0,0.0,0.0,0.0,0.0,0.0,0.0,0.0,0.0,0.0,0.0,0.0,0.0,0.0,0.0,0.0,0.0,0.0,0.0,0.0,0.0,0.0,0.0,0.0,0.0,0.0,0.0,0.0,0.0,0.0,0.0,0.0,0.0,0.0,0.0,0.0,0.0,0.0,-0.7882,-0.8669,-0.9354,-0.8906,-0.8418,0.0,0.0,0.0,0.0,0.0,0.0,0.0,0.0,0.0,-1.0907,-1.1009,-1.1348,-1.1972,-1.225,-1.2454,-1.2589,-1.2942,-1.3186,-1.3336,-1.3247,-1.3254,-1.3322,-1.3105,-1.2786,-1.2366,-1.1626,-1.1056,-1.0582,0.0,0.0,0.0,0.0,-0.9897,-1.0059,0.0,0.0,0.0,0.0,0.0,0.0,0.0,0.0,0.0,0.0,0.0,0.0,-0.5036,-0.5582,-0.5995,-0.6091,-0.618,-0.6046,-0.5665,-0.5557,-0.4868,-0.3475,-0.3464,-0.3329,-0.3163,-0.3734,-0.3575,-0.2665,-0.4091,-0.4268,-0.3171,-0.3039,-0.1845,-0.0,-0.1576,-0.2198,-0.2125,-0.1928,-0.1704,0.0,0.0,0.0,0.0,0.0,0.0,0.0,0.0,0.0,0.0,0.0,0.0,0.0,0.0,0.0,0.0,0.0,0.0,0.0,0.0,0.0,0.0,0.0,0.0,0.0,0.0,0.0,0.0,0.0,0.0,0.0,0.0,0.0,0.0,0.0,0.0,0.0,0.0,-0.8682,-0.9361,-1.0032,-0.9788,-0.9374,0.0,0.0,0.0,0.0,0.0,0.0,-1.0487,-1.069,-1.1185,-1.2047,-1.2176,-1.2522,-1.3125,-1.32,-1.3247,-1.3288,-1.3403,-1.3539,-1.3682,-1.3566,-1.3573,-1.3675,-1.3559,-1.3512,-1.3437,-1.2474,-1.2006,-1.1857,-1.1369,-1.1036,-1.0867,-1.1138,-1.1335,-1.1552,0.0,0.0,0.0,0.0,0.0,0.0,0.0,0.0,0.0,0.0,0.0,-0.5475,-0.5883,-0.6177,-0.6519,-0.6678,-0.6513,-0.6241,-0.5885,-0.5507,-0.4302,-0.2018,-0.1914,-0.1934,-0.1874,-0.3412,-0.2888,-0.0126,-0.027,-0.0279,-0.0279,-0.014,-0.0139,-0.0,-0.0137,-0.0132,-0.0122,-0.0114,-0.0108,-0.0101,0.0,0.0,0.0,0.0,0.0,0.0,0.0,0.0,0.0,0.0,0.0,0.0,0.0,0.0,0.0,0.0,0.0,0.0,0.0,0.0,0.0,0.0,0.0,0.0,0.0,0.0,0.0,0.0,0.0,0.0,0.0,0.0,0.0,0.0,0.0,0.0,0.0,0.0,0.0,-1.0839,-1.1111,0.0,0.0,0.0,0.0,-1.0202,-1.0493,-1.0989,-1.1701,-1.2026,-1.2535,-1.3288,-1.3315,-1.341,-1.3593,-1.3458,-1.3464,-1.3607,-1.3614,-1.3695,-1.3831,-1.3824,-1.3824,-1.3831,-1.3824,-1.3817,-1.379,-1.3451,-1.3057,-1.2657,-1.2481,-1.2149,-1.1837,-1.2413,-1.2725,-1.2963,0.0,0.0,0.0,-0.3914,-0.4022,-0.4053,-0.4107,-0.4375,-0.4515,-0.45,-0.5243,-0.5817,-0.5889,-0.6576,-0.7129,-0.727,-0.7293,-0.7315,-0.7229,-0.7057,-0.5119,-0.0845,-0.061,-0.0644,-0.0597,-0.1253,-0.1007,0.0,0.0,0.0,0.0,0.0,0.0,0.0,0.0,0.0,0.0,0.0,0.0,0.0,0.0,0.0,0.0,0.0,0.0,0.0,0.0,0.0,0.0,0.0,0.0,0.0,0.0,0.0,0.0,0.0,0.0,0.0,0.0,0.0,0.0,0.0,0.0,0.0,0.0,0.0,0.0,0.0,0.0,0.0,0.0,0.0,0.0,0.0,0.0,0.0,0.0,0.0,0.0,-1.0921,-1.1212,0.0,-1.0826,-1.1131,-1.1335,-1.128,-1.1999,-1.2515,-1.2684,-1.2983,-1.3275,-1.3539,-1.3634,-1.3756,-1.3912,-1.3858,-1.3912,-1.4061,-1.4061,-1.4136,-1.4272,-1.4272,-1.4326,-1.4421,-1.4421,-1.4421,-1.4414,-1.4306,-1.3939,-1.3437,-1.3383,-1.3329,-1.3302,-1.3512,-1.3688,-1.3871,0.0,0.0,0.0,-0.4013,-0.3971,-0.3943,-0.3987,-0.4138,-0.4339,-0.4522,-0.529,-0.5947,-0.6321,-0.7085,-0.758,-0.7633,-0.7839,-0.7867,-0.7921,-0.7866,-0.5575,-0.0185,0.0,0.0,0.0,0.0,0.0,0.0,0.0,0.0,0.0,0.0,0.0,0.0,0.0,0.0,0.0,0.0,0.0,0.0,0.0,0.0,0.0,0.0,0.0,0.0,0.0,0.0,0.0,0.0,0.0,0.0,0.0,0.0,0.0,0.0,0.0,0.0,0.0,0.0,0.0,0.0,0.0,0.0,0.0,0.0,0.0,0.0,0.0,0.0,0.0,0.0,0.0,0.0,0.0,0.0,0.0,0.0,-1.0982,-1.1084,-1.1538,-1.1728,-1.143,-1.1938,-1.2305,-1.2359,-1.3057,-1.3478,-1.3478,-1.3668,-1.3824,-1.3926,-1.4014,-1.4143,-1.4292,-1.4299,-1.4346,-1.4448,-1.4448,-1.4496,-1.459,-1.459,-1.4645,-1.474,-1.474,-1.474,-1.474,-1.474,-1.4502,-1.4143,-1.4143,-1.4204,-1.4299,-1.4299,-1.4394,-1.455,0.0,0.0,-0.39,-0.4153,-0.3779,-0.3441,-0.3555,-0.3452,-0.3682,-0.4736,-0.5276,-0.6037,-0.7391,-0.7702,-0.7883,-0.7905,-0.7889,-0.7845,-0.785,-0.7768,-0.5342,0.0,0.0,0.0,0.0,0.0,0.0,0.0,0.0,0.0,0.0,0.0,0.0,0.0,0.0,0.0,0.0,0.0,0.0,0.0,0.0,0.0,0.0,0.0,0.0,0.0,0.0,0.0,0.0,0.0,0.0,0.0,0.0,0.0,0.0,0.0,0.0,0.0,0.0,0.0,0.0,0.0,0.0,0.0,0.0,0.0,0.0,0.0,0.0,0.0,0.0,0.0,0.0,0.0,0.0,0.0,-1.0324,-1.0955,-1.1423,-1.143,-1.221,-1.263,-1.2352,-1.2847,-1.3254,-1.341,-1.3566,-1.3777,-1.4068,-1.4089,-1.4224,-1.4509,-1.4516,-1.459,-1.4746,-1.4746,-1.4746,-1.4753,-1.4753,-1.4753,-1.4753,-1.476,-1.476,-1.4753,-1.476,-1.4767,-1.476,-1.4767,-1.4767,-1.4767,-1.4746,-1.474,-1.474,-1.474,-1.4835,-1.4991,-0.408,-0.41,-0.4178,-0.4368,-0.3911,-0.3534,-0.3622,-0.3576,-0.3742,-0.4417,-0.5734,-0.6692,-0.7067,-0.7546,-0.7926,-0.7894,-0.7948,-0.7905,-0.7872,-0.4279,-0.1485,0.0,0.0,0.0,0.0,0.0,0.0,0.0,0.0,0.0,0.0,0.0,0.0,0.0,0.0,0.0,0.0,0.0,0.0,0.0,0.0,0.0,0.0,0.0,0.0,0.0,0.0,0.0,0.0,0.0,0.0,0.0,0.0,0.0,0.0,0.0,0.0,0.0,0.0,0.0,0.0,0.0,0.0,0.0,0.0,0.0,0.0,0.0,0.0,0.0,0.0,0.0,0.0,0.0,0.0,-1.1228,-1.1267,-1.1708,-1.2121,-1.2338,-1.2773,-1.3064,-1.3091,-1.3342,-1.3614,-1.3871,-1.4027,-1.4197,-1.438,-1.4496,-1.459,-1.4672,-1.4679,-1.4753,-1.4903,-1.4534,-1.4401,-1.4499,-1.4132,-1.3946,-1.3952,-1.4046,-1.4034,-1.3958,-1.4153,-1.4184,-1.4096,-1.4197,-1.4241,-1.4203,-1.454,-1.474,-1.474,-1.474,-1.4835,-1.4977,-0.428,-0.4234,-0.4241,-0.4491,-0.3793,-0.3294,-0.3461,-0.2897,-0.2788,-0.3659,-0.5913,-0.7347,-0.7387,-0.7731,-0.7884,-0.7958,-0.7891,-0.693,-0.4754,-0.1715,0.0,0.0,0.0,0.0,0.0,0.0,0.0,0.0,0.0,0.0,0.0,0.0,0.0,0.0,0.0,0.0,0.0,0.0,0.0,0.0,0.0,0.0,0.0,0.0,0.0,0.0,0.0,0.0,0.0,0.0,0.0,0.0,0.0,0.0,0.0,0.0,0.0,0.0,0.0,0.0,0.0,0.0,0.0,0.0,0.0,0.0,0.0,0.0,0.0,0.0,0.0,0.0,0.0,0.0,-1.1332,-1.2092,-1.2352,-1.2481,-1.2678,-1.2976,-1.3166,-1.3376,-1.3654,-1.3817,-1.4007,-1.4238,-1.4216,-1.437,-1.4699,-1.4421,-1.4494,-1.4923,-1.456,-1.444,-1.4778,-1.4397,-1.409,-1.4222,-1.4038,-1.3853,-1.3853,-1.3926,-1.392,-1.3859,-1.4012,-1.403,-1.3963,-1.4042,-1.4042,0.0,0.0,0.0,0.0,0.0,-1.4345,-1.4519,-0.4382,-0.4348,-0.4261,-0.4388,-0.3516,-0.285,-0.3132,-0.1894,-0.1368,-0.2695,-0.5784,-0.7942,-0.7895,-0.7889,-0.7849,-0.787,-0.7331,-0.5035,-0.0352,0.0,0.0,0.0,0.0,0.0,0.0,0.0,0.0,0.0,0.0,0.0,0.0,0.0,0.0,0.0,0.0,0.0,0.0,0.0,0.0,0.0,0.0,0.0,0.0,0.0,0.0,0.0,0.0,0.0,0.0,0.0,0.0,0.0,0.0,0.0,0.0,0.0,0.0,0.0,0.0,0.0,0.0,0.0,0.0,0.0,0.0,0.0,0.0,0.0,0.0,0.0,0.0,0.0,0.0,0.0,-1.1828,-1.2514,-1.3231,-1.3241,-1.3173,-1.3397,-1.3471,-1.3661,-1.4061,-1.4251,-1.4407,-1.455,-1.414,-1.4277,-1.4984,0.0,0.0,0.0,0.0,-1.3957,-1.447,-1.4087,-1.3765,-1.3885,-1.3885,-1.3897,-1.3909,-1.3733,-1.3745,-1.3745,-1.3774,-1.3768,-1.3745,-1.3951,-1.3879,-1.3765,-1.3819,-1.4042,-1.4055,-1.4036,-1.3884,-1.3719,-0.42,-0.4362,-0.432,-0.3843,-0.3461,-0.2965,-0.2408,-0.1541,-0.1368,-0.2695,-0.5784,-0.7942,-0.7895,-0.7894,-0.7891,-0.7858,-0.4036,-0.1044,-0.0129,0.0,0.0,0.0,0.0,0.0,0.0,0.0,0.0,0.0,0.0,0.0,0.0,0.0,0.0,0.0,0.0,0.0,0.0,0.0,0.0,0.0,0.0,0.0,0.0,0.0,0.0,0.0,0.0,0.0,0.0,0.0,0.0,-0.0,-0.0382,0.0,0.0,0.0,0.0,0.0,0.0,0.0,0.0,0.0,0.0,0.0,0.0,0.0,0.0,0.0,0.0,0.0,0.0,0.0,0.0,-1.228,-1.2631,-1.2978,-1.3062,-1.3298,-1.3449,-1.3607,-1.3905,-1.4163,-1.4245,-1.4137,-1.4348,-1.4869,-1.4164,-1.387,-1.4565,-1.4015,-1.3895,-1.4216,-1.4031,-1.3902,-1.4036,-1.3649,-1.3468,-1.3497,0.0,0.0,-1.27,-1.2814,-1.2868,-1.2879,-1.3069,-1.3042,-1.2873,-1.2966,-1.2933,-1.2781,-1.3548,-1.3822,-1.3902,-1.3798,-1.3731,-1.3694,-0.406,-0.4197,-0.4187,-0.4076,-0.3527,-0.3193,-0.3309,-0.1958,-0.1011,-0.1414,-0.5216,-0.7929,-0.7844,-0.5526,-0.3934,-0.3937,-0.1471,0.0,0.0,0.0,0.0,0.0,0.0,0.0,0.0,0.0,0.0,0.0,0.0,0.0,0.0,0.0,0.0,0.0,0.0,0.0,0.0,0.0,0.0,0.0,0.0,0.0,0.0,0.0,0.0,0.0,0.0,0.0,0.0,0.0,0.0,0.0,0.0,-0.351,-0.7399,0.0,0.0,0.0,0.0,0.0,0.0,0.0,0.0,0.0,0.0,0.0,0.0,0.0,0.0,-1.0975,0.0,0.0,-1.2383,-1.2295,-1.2733,-1.3016,-1.3016,-1.3142,-1.3154,-1.3121,-1.3696,-1.3925,-1.3894,-1.3846,-1.4018,-1.4416,-1.3682,-1.3548,-1.4247,-1.3501,-1.3339,-1.3975,-1.3409,-1.3314,-1.3905,-1.3127,-1.2963,-1.3024,-1.2835,-1.1425,-0.9408,-0.946,-0.948,-0.9488,-0.9572,-0.956,-0.948,-0.9685,-0.948,-0.9448,-0.9755,-1.1259,-1.3143,-1.3137,-1.3063,-1.2972,-0.3941,-0.3965,-0.3971,-0.42,-0.3699,-0.3426,-0.3772,-0.2077,-0.053,-0.0079,-0.4633,-0.7894,-0.7871,-0.3146,0.0,0.0,0.0,0.0,0.0,0.0,0.0,0.0,0.0,0.0,0.0,0.0,0.0,0.0,0.0,0.0,0.0,0.0,0.0,0.0,0.0,0.0,0.0,0.0,0.0,0.0,0.0,0.0,0.0,0.0,0.0,0.0,0.0,0.0,0.0,0.0,0.0,0.0,0.0,-0.4646,-1.0009,-1.0038,-0.8734,0.0,0.0,0.0,0.0,0.0,0.0,0.0,0.0,0.0,-0.9769,-1.0855,-1.1456,-1.171,-1.1792,-1.2346,-1.2599,-1.2266,-1.2409,-1.2776,-1.2776,-1.2891,-1.2933,-1.2645,-1.3263,-1.3613,-1.3492,-1.3517,-1.3615,-1.3859,-1.331,-1.3164,-1.3843,-1.2909,-1.2948,-1.3768,-1.2797,-1.2316,-1.2331,-1.1723,-1.1359,-1.1643,-1.2497,-1.1028,-0.7699,-0.5871,-0.507,-0.5087,-0.5079,-0.5075,-0.5072,-0.5229,-0.5635,-0.6472,-0.618,-0.8172,-1.1263,-1.1254,-1.1144,-1.1025,-0.377,-0.3744,-0.3527,-0.3198,-0.3822,-0.3655,-0.1628,-0.0593,-0.0066,-0.0,-0.4632,-0.7938,-0.7892,-0.321,0.0,0.0,0.0,0.0,0.0,0.0,0.0,0.0,0.0,0.0,0.0,0.0,0.0,0.0,0.0,0.0,0.0,0.0,0.0,0.0,0.0,0.0,0.0,0.0,0.0,0.0,0.0,0.0,0.0,0.0,0.0,0.0,0.0,0.0,0.0,0.0,0.0,0.0,0.0,-0.4675,-1.0,-1.0034,0.0,-0.5276,-0.5192,-0.657,0.0,-0.6344,-0.7224,-0.89,0.0,0.0,-1.0668,-1.2026,-1.2665,-1.2949,-1.2638,-1.3073,-1.3471,-1.3121,-1.274,-1.2494,-1.2494,-1.261,-1.25,-1.2118,-1.287,-1.3492,-1.3645,-1.3281,-1.3151,-1.3865,-1.2927,-1.2746,-1.3141,-1.2687,-1.2454,-1.2663,-1.2588,-1.0831,-0.7334,-0.7077,-0.705,-0.7261,-1.1033,-1.2585,-1.1827,-0.4139,-0.0626,-0.0635,-0.063,-0.0628,-0.0628,-0.0622,-0.2895,-0.6423,-0.6203,-0.641,-0.7011,-0.6967,-0.6866,-0.6857,-0.3683,-0.3644,-0.3309,-0.2464,-0.3203,-0.3151,-0.0729,-0.0175,0.0,0.0,-0.196,-0.3297,-0.3316,-0.1345,0.0,0.0,0.0,0.0,0.0,0.0,0.0,0.0,0.0,0.0,0.0,0.0,0.0,0.0,0.0,0.0,0.0,0.0,0.0,0.0,0.0,0.0,0.0,0.0,0.0,0.0,0.0,0.0,0.0,0.0,0.0,0.0,0.0,0.0,0.0,0.0,0.0,0.0,0.0,-0.1961,-0.4968,-0.8829,-0.8999,0.0,-0.7786,-0.8324,0.0,0.0,-0.9055,-0.9944,-1.1063,-1.1236,-1.1535,-1.2421,-1.2991,-1.3115,-1.301,-1.2873,-1.2921,0.0,-1.2386,-1.2281,-1.2281,-1.2393,-1.2311,-1.2194,-1.2578,-1.279,-1.2847,-1.2656,-1.2741,-1.3126,-1.2764,-1.2613,-1.2875,-1.2748,-1.1614,-0.9059,-1.1483,-1.1984,-1.0115,-0.5134,-0.2671,-0.2686,-0.4569,-0.5408,-0.5192,-0.1661,0.0,0.0,0.0,0.0,0.0,0.0,-0.1038,-0.2701,-0.2493,-0.2701,-0.2695,-0.2651,-0.2634,-0.2634,-0.3583,-0.3593,-0.3319,-0.2467,-0.2471,-0.2023,-0.028,0.0,0.0,0.0,0.0,0.0,0.0,0.0,0.0,0.0,0.0,0.0,0.0,0.0,0.0,0.0,0.0,0.0,0.0,0.0,0.0,0.0,0.0,0.0,0.0,0.0,0.0,0.0,0.0,0.0,0.0,0.0,0.0,0.0,0.0,0.0,0.0,0.0,0.0,0.0,0.0,0.0,0.0,0.0,0.0,0.0,0.0,0.0,-0.1,-0.5792,-0.7248,-0.765,-0.9618,0.0,0.0,-1.0594,-1.0768,-1.0863,-1.1407,-1.1635,-1.1834,-1.2448,-1.2758,-1.3047,-1.299,-1.2788,-1.2598,-1.25,-1.2218,-1.2102,-1.2134,-1.2188,-1.2265,-1.239,-1.2406,-1.2422,-1.246,-1.2428,-1.2493,-1.27,-1.2534,-1.2175,-1.1045,-1.214,-1.1378,-0.8329,-0.8963,-0.9247,-0.9388,-0.3119,0.0,0.0,0.0,0.0,0.0,0.0,0.0,0.0,0.0,0.0,0.0,0.0,0.0,0.0,0.0,0.0,0.0,0.0,0.0,0.0,-0.3583,-0.3599,-0.361,-0.3554,-0.1628,-0.0112,-0.0,0.0,0.0,0.0,0.0,0.0,0.0,0.0,0.0,0.0,0.0,0.0,0.0,0.0,0.0,0.0,0.0,0.0,0.0,0.0,0.0,0.0,0.0,0.0,0.0,0.0,0.0,0.0,0.0,0.0,0.0,0.0,0.0,0.0,0.0,0.0,0.0,0.0,0.0,0.0,0.0,0.0,0.0,0.0,0.0,0.0,0.0,0.0,0.0,-0.028,-0.0278,-0.1933,-0.9422,0.0,-1.0594,-1.1318,-1.1521,-1.1449,-1.158,-1.1612,-1.1688,-1.1922,-1.2348,-1.2574,-1.2328,-1.2634,-1.2909,-1.2527,-1.2341,-1.2384,-1.2504,-1.2422,-1.2395,-1.2515,-1.2531,-1.2585,0.0,-1.2607,-1.2591,-1.2534,-1.2545,-1.0744,-0.6558,-1.0555,-1.2795,-1.2688,-0.4771,-0.0417,-0.0421,-0.0209,0.0,0.0,0.0,0.0,0.0,0.0,0.0,0.0,0.0,0.0,0.0,0.0,0.0,0.0,0.0,0.0,0.0,0.0,0.0,0.0,-0.2575,-0.3035,-0.361,-0.361,-0.1628,0.0,0.0,0.0,0.0,0.0,0.0,0.0,0.0,0.0,0.0,0.0,0.0,0.0,0.0,0.0,0.0,0.0,0.0,0.0,0.0,0.0,0.0,0.0,0.0,0.0,0.0,0.0,0.0,0.0,0.0,0.0,0.0,0.0,0.0,0.0,0.0,0.0,0.0,0.0,0.0,0.0,0.0,0.0,0.0,0.0,0.0,0.0,0.0,0.0,0.0,0.0,0.0,-0.1172,-0.6466,0.0,-1.1444,-1.1535,-1.161,-1.1629,-1.1824,-1.1933,-1.2036,-1.2199,-1.2356,-1.2334,-1.227,-1.2449,-1.2449,-1.2341,-1.2422,-1.246,-1.2422,-1.2379,-1.2401,-1.252,-1.2547,0.0,0.0,0.0,0.0,-1.2863,-1.2895,-1.2125,-1.0766,-0.6534,-0.432,-0.4358,-0.1453,0.0,0.0,0.0,0.0,0.0,0.0,0.0,0.0,0.0,0.0,0.0,0.0,0.0,0.0,0.0,0.0,0.0,0.0,0.0,0.0,0.0,0.0,0.0,-0.2579,-0.3095,-0.361,-0.361,-0.1628,0.0,0.0,0.0,0.0,0.0,0.0,0.0,0.0,0.0,0.0,0.0,0.0,0.0,0.0,0.0,0.0,0.0,0.0,0.0,0.0,0.0,0.0,0.0,0.0,0.0,0.0,0.0,0.0,0.0,0.0,0.0,0.0,0.0,0.0,0.0,0.0,0.0,0.0,0.0,0.0,0.0,0.0,0.0,0.0,0.0,0.0,0.0,0.0,0.0,0.0,0.0,0.0,-0.0907,-0.5026,-0.8973,-1.1929,-1.1661,-1.1808,-1.1895,-1.2096,-1.2199,-1.2303,-1.246,-1.2362,-1.2292,-1.2449,-1.2384,-1.2341,-1.246,-1.258,-1.2618,-1.2498,-1.2515,-1.2564,-1.2607,-1.2656,-1.2754,0.0,0.0,0.0,-1.2955,-1.2813,-1.1638,-0.8406,-0.3092,0.0,0.0,0.0,0.0,0.0,0.0,0.0,0.0,0.0,0.0,0.0,0.0,0.0,0.0,0.0,0.0,0.0,0.0,0.0,0.0,0.0,0.0,0.0,0.0,0.0,0.0,-0.361,-0.3498,-0.3442,0.0,0.0,0.0,0.0,0.0,0.0,0.0,0.0,0.0,0.0,0.0,0.0,0.0,0.0,0.0,0.0,0.0,0.0,0.0,0.0,0.0,0.0,0.0,0.0,0.0,0.0,0.0,0.0,0.0,0.0,0.0,0.0,0.0,0.0,0.0,0.0,0.0,0.0,0.0,0.0,0.0,0.0,0.0,0.0,0.0,0.0,0.0,0.0,0.0,0.0,0.0,0.0,0.0,0.0,-0.0919,-0.4681,-0.89,-1.205,-1.1742,-1.1752,-1.1884,-1.1818,-1.2031,-1.2272,-1.2284,-1.232,-1.2395,0.0,0.0,-1.2536,-1.2645,-1.2786,-1.2846,-1.2732,-1.2808,-1.2846,0.0,0.0,0.0,0.0,0.0,0.0,-1.2191,0.0,-0.8625,-0.041,0.0,0.0,0.0,0.0,0.0,0.0,0.0,0.0,0.0,0.0,0.0,0.0,0.0,0.0,0.0,0.0,0.0,0.0,0.0,0.0,0.0,0.0,0.0,0.0,0.0,0.0,0.0,0.0,0.0,0.0,0.0,0.0,0.0,0.0,0.0,0.0,0.0,0.0,0.0,0.0,0.0,0.0,0.0,0.0,0.0,0.0,0.0,0.0,0.0,0.0,0.0,0.0,0.0,0.0,0.0,0.0,0.0,0.0,0.0,0.0,0.0,0.0,0.0,0.0,0.0,0.0,0.0,0.0,0.0,0.0,0.0,0.0,0.0,0.0,0.0,0.0,0.0,0.0,0.0,0.0,0.0,0.0,0.0,0.0,-0.0169,-0.1238,-0.6775,-1.1496,-0.8401,-0.7681,-0.7745,-0.7735,-0.7652,-0.7735,-0.7966,-1.0559,-1.2618,0.0,0.0,0.0,-1.2625,-1.2725,0.0,-1.2658,-1.2615,0.0,-1.2489,0.0,-1.25,-1.2893,-1.2952,0.0,0.0,-0.3307,-0.2283,-0.0209,0.0,0.0,0.0,0.0,0.0,0.0,0.0,0.0,0.0,0.0,0.0,0.0,0.0,0.0,0.0,0.0,0.0,0.0,0.0,0.0,0.0,0.0,0.0,0.0,0.0,0.0,0.0,0.0,0.0,0.0,0.0,0.0,0.0,0.0,0.0,0.0,0.0,0.0,0.0,0.0,0.0,0.0,0.0,0.0,0.0,0.0,0.0,0.0,0.0,0.0,0.0,0.0,0.0,0.0,0.0,0.0,0.0,0.0,0.0,0.0,0.0,0.0,0.0,0.0,0.0,0.0,0.0,0.0,0.0,0.0,0.0,0.0,0.0,0.0,0.0,0.0,0.0,0.0,0.0,0.0,0.0,0.0,0.0,0.0,0.0,0.0,-0.3395,-0.7122,-0.8547,-0.6048,-0.3517,-0.35,-0.3464,-0.3411,-0.3519,-0.5549,0.0,0.0,0.0,0.0,0.0,0.0,0.0,-1.2797,-1.1189,-1.0595,0.0,-1.2383,0.0,-1.2821,-0.951,-0.5177,0.0,0.0,0.0,0.0,0.0,0.0,0.0,0.0,0.0,0.0,0.0,0.0,0.0,0.0,0.0,0.0,0.0,0.0,0.0,0.0,0.0,0.0,0.0,0.0,0.0,0.0,0.0,0.0,0.0,0.0,0.0,0.0,0.0,0.0,0.0,0.0,0.0,0.0,0.0,0.0,0.0,0.0,0.0,0.0,0.0,0.0,0.0,0.0,0.0,0.0,0.0,0.0,0.0,0.0,0.0,0.0,0.0,0.0,0.0,0.0,0.0,0.0,0.0,0.0,0.0,0.0,0.0,0.0,0.0,0.0,0.0,0.0,0.0,0.0,0.0,0.0,0.0,0.0,0.0,0.0,0.0,0.0,0.0,0.0,0.0,0.0,0.0,0.0,0.0,0.0,0.0,-0.1749,-0.8844,-0.5153,0.0,0.0,0.0,0.0,0.0,0.0,-0.1172,-0.4834,-0.5306,-0.6374,-1.046,0.0,-1.2936,-1.2882,-0.9922,-0.8314,-1.0313,-1.0902,-1.1143,-1.1276,-0.4372,0.0,0.0,0.0,0.0,0.0,0.0,0.0,0.0,0.0,0.0,0.0,0.0,0.0,0.0,0.0,0.0,0.0,0.0,0.0,0.0,0.0,0.0,0.0,0.0,0.0,0.0,0.0,0.0,0.0,0.0,0.0,0.0,0.0,0.0,0.0,0.0,0.0,0.0,0.0,0.0,0.0,0.0,0.0,0.0,0.0,0.0,0.0,0.0,0.0,0.0,0.0,0.0,0.0,0.0,0.0,0.0,0.0,0.0,0.0,0.0,0.0,0.0,0.0,0.0,0.0,0.0,0.0,0.0,0.0,0.0,0.0,0.0,0.0,0.0,0.0,0.0,0.0,0.0,0.0,0.0,0.0,0.0,0.0,0.0,0.0,0.0,0.0,0.0,0.0,0.0,0.0,0.0,-0.0393,-0.1784,-0.1,0.0,0.0,0.0,0.0,0.0,0.0,-0.0156,-0.0958,-0.0987,-0.1197,-0.216,0.0,0.0,0.0,0.0,-0.9361,0.0,0.0,0.0,0.0,0.0,0.0,0.0,0.0,0.0,0.0,0.0,0.0,0.0,0.0,0.0,0.0,0.0,0.0,0.0,0.0,0.0,0.0,0.0,0.0,0.0,0.0,0.0,0.0,0.0,0.0,0.0,0.0,0.0,0.0,0.0,0.0,0.0,0.0,0.0,0.0,0.0,0.0,0.0,0.0,0.0,0.0,0.0,0.0,0.0,0.0,0.0,0.0,0.0,0.0,0.0,0.0,0.0,0.0,0.0,0.0,0.0,0.0,0.0,0.0,0.0,0.0,0.0,0.0,0.0,0.0,0.0,0.0,0.0,0.0,0.0,0.0,0.0,0.0,0.0,0.0,0.0,0.0,0.0,0.0,0.0,0.0,0.0,0.0,0.0,0.0,0.0,0.0,0.0,0.0,0.0,0.0,0.0,0.0,0.0,0.0,0.0,0.0,0.0,0.0,0.0,0.0,0.0,0.0,0.0,0.0,0.0,0.0,0.0,0.0,0.0,0.0,0.0,0.0,0.0,0.0,0.0,0.0,0.0,0.0,0.0,0.0,0.0,0.0,0.0,0.0,0.0,0.0,0.0,0.0,0.0,0.0,0.0,0.0,0.0,0.0,0.0,0.0,0.0,0.0,0.0,0.0,0.0,0.0,0.0,0.0,0.0,0.0,0.0,0.0,0.0,0.0,0.0,0.0,0.0,0.0,0.0,0.0,0.0,0.0,0.0,0.0,0.0,0.0,0.0,0.0,0.0,0.0,0.0,0.0,0.0,0.0,0.0,0.0,0.0,0.0,0.0,0.0,0.0,0.0,0.0,0.0,0.0,0.0,0.0,0.0,0.0,0.0,0.0,0.0,0.0,0.0,0.0,0.0,0.0,0.0,0.0,0.0,0.0,0.0,0.0,0.0,0.0,0.0,0.0,0.0,0.0,0.0,0.0,0.0,0.0,0.0,0.0,0.0,0.0,0.0,0.0,0.0,0.0,0.0,0.0,0.0,0.0,0.0,-0.251,-0.9587,0.0,0.0,0.0,0.0,0.0,0.0,0.0,0.0,0.0,0.0,0.0,0.0,0.0,0.0,0.0,0.0,0.0,0.0,0.0,0.0,0.0,0.0,0.0,0.0,0.0,0.0,0.0,0.0,0.0,0.0,0.0,0.0,0.0,0.0,0.0,0.0,0.0,0.0,0.0,0.0,0.0,0.0,0.0,0.0,0.0,0.0,0.0,0.0,0.0,0.0,0.0,0.0,0.0,0.0,0.0,0.0,0.0,0.0,0.0,0.0,0.0,0.0,0.0,0.0,0.0,0.0,0.0,0.0,0.0,0.0,0.0,0.0,0.0,0.0,0.0,0.0,0.0,0.0,0.0,0.0,0.0,0.0,0.0,0.0,0.0,0.0,0.0,0.0,0.0,0.0,0.0,0.0,0.0,0.0,0.0,0.0,0.0,0.0,0.0,0.0,0.0,0.0,0.0,0.0,0.0,0.0,0.0,0.0,0.0,0.0,0.0,0.0,0.0,0.0,-0.0357,-0.1154,-0.0589,0.0,0.0,0.0,0.0,0.0,0.0,0.0,0.0,0.0,0.0,0.0,0.0,0.0,0.0,0.0,0.0,0.0,0.0,0.0,0.0,0.0,0.0,0.0,0.0,0.0,0.0,0.0,0.0,0.0,0.0,0.0,0.0,0.0,0.0,0.0,0.0,0.0,0.0,0.0,0.0,0.0,0.0,0.0,0.0,0.0,0.0,0.0,0.0,0.0,0.0,0.0,0.0,0.0,0.0,0.0,0.0,0.0,0.0,0.0,0.0,0.0,0.0,0.0,0.0,0.0,0.0,0.0,0.0,0.0,0.0,0.0,0.0,0.0,0.0,0.0,0.0,0.0,0.0,0.0,0.0,0.0,0.0,0.0,0.0,0.0,0.0,0.0,0.0,0.0,0.0,0.0,0.0,0.0,0.0,0.0,0.0,0.0,0.0,0.0,0.0,0.0,0.0,0.0,0.0,0.0,0.0,0.0,0.0,0.0,0.0,0.0,0.0,0.0,0.0,0.0,0.0,0.0,0.0,0.0,0.0,0.0,0.0,0.0,0.0,0.0,0.0,0.0,0.0,0.0,0.0,0.0,0.0,0.0,0.0,0.0,0.0,0.0,0.0,0.0,0.0,0.0,0.0,0.0,0.0,0.0,0.0,0.0,0.0,0.0,0.0,0.0,0.0,0.0,0.0,0.0,0.0,0.0,0.0,0.0,0.0,0.0,0.0,0.0,0.0,0.0,0.0,0.0,0.0,0.0,0.0,0.0,0.0,0.0,0.0,0.0,0.0,0.0,0.0,0.0,0.0,0.0,0.0,0.0,0.0,0.0,0.0,0.0,0.0,0.0,0.0,0.0,0.0,0.0,0.0,0.0,0.0,0.0,0.0,0.0,0.0,0.0,0.0,0.0,0.0,0.0,0.0,0.0,0.0,0.0,0.0,0.0,0.0,0.0,0.0,0.0,0.0,0.0,0.0,0.0,0.0,0.0,0.0,0.0,0.0,0.0,0.0,0.0,0.0,0.0,0.0,0.0,0.0,0.0,0.0,0.0,0.0,0.0,0.0,0.0,0.0,0.0,0.0,0.0,0.0,0.0,0.0,0.0,0.0,0.0,0.0,0.0,0.0,0.0,0.0,0.0,0.0,0.0,0.0,0.0,0.0,0.0,0.0,0.0,0.0,0.0,0.0,0.0,0.0,0.0,0.0,0.0,0.0,0.0,0.0,0.0,0.0,0.0,0.0,0.0,0.0,0.0,0.0,0.0,0.0,0.0,0.0,0.0,0.0,0.0,0.0,0.0,0.0,0.0,0.0,0.0,0.0,0.0,0.0,0.0,0.0,0.0,0.0,0.0,0.0,0.0,0.0,0.0,0.0,0.0,0.0,0.0,0.0,0.0,0.0,0.0,0.0,0.0,0.0,0.0,0.0,0.0,0.0,0.0,0.0,0.0,0.0,0.0,0.0,0.0,0.0,0.0,0.0,0.0,0.0,0.0,0.0,0.0,0.0,0.0,0.0,0.0,0.0,0.0,0.0,0.0,0.0,0.0,0.0,0.0,0.0,0.0,0.0,0.0,0.0,0.0,0.0,0.0,0.0,0.0,0.0,0.0,0.0,0.0,0.0,0.0,0.0,0.0,0.0,0.0,0.0,0.0,0.0,0.0,0.0,0.0,0.0,0.0,0.0,0.0,0.0,0.0,0.0,0.0,0.0,0.0,0.0,0.0,0.0,0.0,0.0,0.0,0.0,0.0,0.0,0.0,0.0,0.0,0.0,0.0,0.0,0.0,0.0,0.0,0.0,0.0,0.0,0.0,0.0,0.0,0.0,0.0,0.0,0.0,0.0,0.0,0.0,0.0,0.0,0.0,0.0,0.0,0.0,0.0,0.0,0.0,0.0,0.0,0.0,0.0,0.0,0.0,0.0,0.0,0.0,0.0,0.0,0.0,0.0,0.0,0.0,0.0,0.0,0.0,0.0,0.0,0.0,0.0,0.0,0.0,0.0,0.0,0.0,0.0,0.0,0.0,0.0,0.0,0.0,0.0,0.0,0.0,0.0,0.0,0.0,0.0,0.0,0.0,0.0,0.0,0.0,0.0,0.0,0.0,0.0,0.0,0.0,0.0,0.0,0.0,0.0,0.0,0.0,0.0,0.0,0.0,0.0,0.0,0.0,0.0,0.0,0.0,0.0,0.0,0.0,0.0,0.0,0.0,0.0,0.0,0.0,0.0,0.0,0.0,0.0,0.0,0.0,0.0,0.0,0.0,0.0,0.0,0.0,0.0,0.0,0.0,0.0,0.0,0.0,0.0,0.0,0.0,0.0,0.0,0.0,0.0,0.0,0.0,0.0,0.0,0.0,0.0,0.0,0.0,0.0,0.0,0.0,0.0,0.0,0.0,0.0,0.0,0.0,0.0,0.0,0.0,0.0,0.0,0.0,0.0,0.0,0.0,0.0,0.0,0.0,0.0,0.0,0.0,0.0,0.0,0.0,0.0,0.0,0.0,0.0,0.0,0.0,0.0,0.0,0.0,0.0,0.0,0.0,0.0,0.0,0.0,0.0,0.0,0.0,0.0,0.0,0.0,0.0,0.0,0.0,0.0,0.0,0.0,0.0,0.0,0.0,0.0,0.0,0.0,0.0,0.0,0.0,0.0,0.0,0.0,0.0,0.0,0.0,0.0,0.0,0.0,0.0,0.0,0.0,0.0,0.0,0.0,0.0,0.0,0.0,0.0,0.0,0.0,0.0,0.0,0.0,0.0,0.0,0.0,0.0,0.0,0.0,0.0,0.0,0.0,0.0,0.0,0.0,0.0,0.0,0.0,0.0,0.0,0.0,0.0,0.0,0.0,0.0,0.0,0.0,0.0,0.0,0.0,0.0,0.0,0.0,0.0,0.0,0.0,0.0,0.0,0.0,0.0,0.0,0.0,0.0,0.0,0.0,0.0,0.0,0.0,0.0,0.0,0.0,0.0,0.0,0.0,0.0,0.0,0.0,0.0,0.0,0.0,0.0,0.0,0.0,0.0,0.0,0.0,0.0,0.0,0.0,0.0,0.0,0.0,0.0,0.0,0.0,0.0,0.0,0.0,0.0,0.0,0.0,0.0,0.0,0.0,0.0,0.0,0.0,0.0,0.0,0.0,0.0,0.0,0.0,0.0,0.0,0.0,0.0,0.0,0.0,0.0,0.0,0.0,0.0,0.0,0.0,0.0,0.0,0.0,0.0,0.0,0.0,0.0,0.0,0.0,0.0,0.0,0.0,0.0,0.0,0.0,0.0,0.0,0.0,0.0,0.0,0.0,0.0,0.0,0.0,0.0,0.0,0.0,0.0,0.0,0.0,0.0,0.0,0.0,0.0,0.0,0.0,0.0,0.0,0.0,0.0,0.0,0.0,0.0,0.0,0.0,0.0,0.0,0.0,0.0,0.0,0.0,0.0,0.0,0.0,0.0,0.0,0.0,0.0,0.0,0.0,0.0,0.0,0.0,0.0,0.0,0.0,0.0,0.0,0.0,0.0,0.0,0.0,0.0,0.0,0.0,0.0,0.0,0.0,0.0,0.0,0.0,0.0,0.0,0.0,0.0,0.0,0.0,0.0,0.0,0.0,0.0,0.0,0.0,0.0,0.0,0.0,0.0,0.0,0.0,0.0,0.0,0.0,0.0,0.0,0.0,0.0,0.0,0.0,0.0,0.0,0.0,0.0,0.0,0.0,0.0,0.0,0.0,0.0,0.0,0.0,0.0,0.0,0.0,0.0,0.0,0.0,0.0,0.0,0.0,0.0,0.0,0.0,0.0,0.0,0.0,0.0,0.0,0.0,0.0,0.0,0.0,0.0,0.0,0.0,0.0,0.0,0.0,0.0,0.0,0.0,0.0,0.0,0.0,0.0,0.0,0.0,0.0,0.0,0.0,0.0,0.0,0.0,0.0,0.0,0.0,0.0,0.0,0.0,0.0,0.0,0.0,0.0,0.0,0.0,0.0,0.0,0.0,0.0,0.0,0.0,0.0,0.0,0.0,0.0,0.0,0.0,0.0,0.0,0.0,0.0,0.0,0.0,0.0,0.0,0.0,0.0,0.0,0.0,0.0,0.0,0.0,0.0,0.0,0.0,0.0,0.0,0.0,0.0,0.0,0.0,0.0,0.0,0.0,0.0,0.0,0.0,0.0,0.0,0.0,0.0,0.0,0.0,0.0,0.0,0.0,0.0,0.0,0.0,0.0,0.0,0.0,0.0,0.0,0.0,0.0,0.0,0.0,0.0,0.0,0.0,0.0,0.0,0.0,0.0,0.0,0.0,0.0,0.0,0.0,0.0,0.0,0.0,0.0,0.0,0.0,0.0,0.0,0.0,0.0,0.0,0.0,0.0,0.0,0.0,0.0,0.0,0.0,0.0,0.0,0.0,0.0,0.0,0.0,0.0,0.0,0.0,0.0,0.0,0.0,0.0,0.0,0.0,0.0,0.0,0.0,0.0,0.0,0.0,0.0,0.0,0.0,0.0,0.0,0.0,0.0,0.0,0.0,0.0,0.0,0.0,0.0,0.0,0.0,0.0,0.0,0.0,0.0,0.0,0.0,0.0,0.0,0.0,0.0,0.0,0.0,0.0,0.0,0.0,0.0,0.0,0.0,0.0,0.0,0.0,0.0,0.0,0.0,0.0,0.0,0.0,0.0,0.0,0.0,0.0,0.0,0.0,0.0,0.0,0.0,0.0,0.0,0.0,0.0,0.0,0.0,0.0,0.0,0.0,0.0,0.0,0.0,0.0,0.0,0.0,0.0,0.0,0.0,0.0,0.0,0.0,0.0,0.0,0.0,0.0,0.0,0.0,0.0,0.0,0.0,0.0,0.0,0.0,0.0,0.0,0.0,0.0,0.0,0.0,0.0,0.0,0.0,0.0,0.0,0.0,0.0,0.0,0.0,0.0,0.0,0.0,0.0,0.0,0.0,0.0,0.0,0.0,0.0,0.0,0.0,0.0,0.0,0.0,0.0,0.0,0.0,0.0,0.0,0.0,0.0,0.0,0.0,0.0,0.0,0.0,0.0,0.0,0.0,0.0,0.0,0.0,0.0,0.0,0.0,0.0,0.0,0.0,0.0,0.0,0.0,0.0,0.0,0.0,0.0,0.0,0.0,0.0,0.0,0.0,0.0,0.0,0.0,0.0,0.0,0.0,0.0,0.0,0.0,0.0,0.0,0.0,0.0,0.0,0.0,0.0,0.0,0.0,0.0,0.0,0.0,0.0,0.0,0.0,0.0,0.0,0.0,0.0,0.0,0.0,0.0,0.0,0.0,0.0,0.0,0.0,0.0,0.0,0.0,0.0,0.0,0.0,0.0,0.0,0.0,0.0,0.0,0.0,0.0,0.0,0.0,0.0,0.0,0.0,0.0,0.0,0.0,0.0,0.0,0.0,0.0,0.0,0.0,0.0,0.0,0.0,0.0,0.0,0.0,0.0,0.0,0.0,0.0,0.0,0.0,0.0,0.0,0.0,0.0,0.0,0.0,0.0,0.0,0.0,0.0,0.0,0.0,0.0,0.0,0.0,0.0,0.0,0.0,0.0,0.0,0.0,0.0,0.0,0.0,0.0,0.0,0.0,0.0,0.0,0.0,0.0,0.0,0.0,0.0,0.0,0.0,0.0,0.0,0.0,0.0,0.0,0.0,0.0,0.0,0.0,0.0,0.0,0.0,0.0,0.0,0.0,0.0,0.0,0.0,0.0,0.0,0.0,0.0,0.0,0.0,0.0,0.0,0.0,0.0,0.0,0.0,0.0,0.0,0.0,0.0,0.0,0.0,0.0,0.0,0.0,0.0,0.0,0.0,0.0,0.0,0.0,0.0,0.0,0.0,0.0,0.0,0.0,0.0,0.0,0.0,0.0,0.0,0.0,0.0,0.0,0.0,0.0,0.0,0.0,0.0,0.0,0.0,0.0,0.0,0.0,0.0,0.0,0.0,0.0,0.0,0.0,0.0,0.0,0.0,0.0,0.0,0.0,0.0,0.0,0.0,0.0,0.0,0.0,0.0,0.0,0.0,0.0,0.0,0.0,0.0,0.0,0.0,0.0,0.0,0.0,0.0,0.0,0.0,0.0,0.0,0.0,0.0,0.0,0.0,0.0,0.0,0.0,0.0,0.0,0.0,0.0,0.0,0.0,0.0,0.0,0.0,0.0,0.0,0.0,0.0,0.0,0.0,0.0,0.0,0.0,0.0,0.0,0.0,0.0,0.0,0.0,0.0,0.0,0.0,0.0,0.0,0.0,0.0,0.0,0.0,0.0,0.0,0.0,0.0,0.0,0.0,0.0,0.0,0.0,0.0,0.0,0.0,0.0,0.0,0.0,0.0,0.0,0.0,0.0,0.0,0.0,0.0,0.0,0.0,0.0,0.0,0.0,0.0,0.0,0.0,0.0,0.0,0.0,0.0,0.0,0.0,0.0,0.0,0.0,0.0,0.0,0.0,0.0,0.0,0.0,0.0,0.0,0.0,0.0,0.0,0.0,0.0,0.0,0.0,0.0,0.0,0.0,0.0,0.0,0.0,0.0,0.0,0.0,0.0,0.0,0.0,0.0,0.0,0.0,0.0,0.0,0.0,0.0,0.0,0.0,0.0,0.0,0.0,0.0,0.0,0.0,0.0,0.0,0.0,0.0,0.0,0.0,0.0,0.0,0.0,0.0,0.0,0.0,0.0,0.0,0.0,0.0,0.0,0.0,0.0,0.0,0.0,0.0,0.0,0.0,0.0,0.0,0.0,0.0,0.0,0.0,0.0,0.0,0.0,0.0,0.0,0.0,0.0,0.0,0.0,0.0,0.0,0.0,0.0,0.0,0.0,0.0,0.0,0.0,0.0,0.0,0.0,0.0,0.0,0.0,0.0,0.0,0.0,0.0,0.0,0.0,0.0,0.0,0.0,0.0,0.0,0.0,0.0,0.0,0.0,0.0,0.0,0.0,0.0,0.0,0.0,0.0,0.0,0.0,0.0,0.0,0.0,0.0,0.0,0.0,0.0,0.0,0.0,0.0,0.0,0.0,0.0,0.0,0.0,0.0,0.0,0.0,0.0,0.0,0.0,0.0,0.0,0.0,0.0,0.0,0.0,0.0,0.0,0.0,0.0,0.0,0.0,0.0,0.0,0.0,0.0,0.0,0.0,0.0,0.0,0.0,0.0,0.0,0.0,0.0,0.0,0.0,0.0,0.0,0.0,0.0,0.0,0.0,0.0,0.0,0.0,0.0,0.0,0.0,0.0,0.0,0.0,0.0,0.0,0.0,0.0,0.0,0.0,0.0,0.0,0.0,0.0,0.0,0.0,0.0,0.0,0.0,0.0,0.0,0.0,0.0,0.0,0.0,0.0,0.0,0.0,0.0,0.0,0.0,0.0,0.0,0.0,0.0,0.0,0.0,0.0,0.0,0.0,0.0,0.0,0.0,0.0,0.0,0.0,0.0,0.0,0.0,0.0,0.0,0.0,0.0,0.0,0.0,0.0,0.0,0.0,0.0,0.0,0.0,0.0,0.0,0.0,0.0,0.0,0.0,0.0,0.0,0.0,0.0,0.0,0.0,0.0,0.0,0.0,0.0,0.0,0.0,0.0,0.0,0.0,0.0,0.0,0.0,0.0,0.0,0.0,0.0,0.0,0.0,0.0,0.0,0.0,0.0,0.0,0.0,0.0,0.0,0.0,0.0,0.0,0.0,0.0,0.0,0.0,0.0,0.0,0.0,0.0,0.0,0.0,0.0,0.0,0.0,0.0,0.0,0.0,0.0,0.0,0.0,0.0,0.0,0.0,0.0,0.0,0.0,0.0,0.0,0.0,0.0,0.0,0.0,0.0,0.0,0.0,0.0,0.0,0.0,0.0,0.0,0.0,0.0,0.0,0.0,0.0,0.0,0.0,0.0,0.0,0.0,0.0,0.0,0.0,0.0,0.0,0.0,0.0,0.0,0.0,0.0,0.0,0.0,0.0,0.0,0.0,0.0,0.0,0.0,0.0,0.0,0.0,0.0,0.0,0.0,0.0,0.0,0.0,0.0,0.0,0.0,0.0,0.0,0.0,0.0,0.0,0.0,0.0,0.0,0.0,0.0,0.0,0.0,0.0,0.0,0.0,0.0,0.0,0.0,0.0,0.0,0.0,0.0,0.0,0.0,0.0,0.0,0.0,0.0,0.0,0.0,0.0,0.0,0.0,0.0,0.0,0.0,0.0,0.0,0.0,0.0,0.0,0.0,0.0,0.0,0.0,0.0,0.0,0.0,0.0,0.0,0.0,0.0,0.0,0.0,0.0,0.0,0.0,0.0,0.0,0.0,0.0,0.0,0.0,0.0,0.0,0.0,0.0,0.0,0.0,0.0,0.0,0.0,0.0,0.0,0.0,0.0,0.0,0.0,0.0,0.0,0.0,0.0,0.0,0.0,0.0,0.0,0.0,0.0,0.0,0.0,0.0,0.0,0.0,0.0,0.0,0.0,0.0,0.0,0.0,0.0,0.0,0.0,0.0,0.0,0.0,0.0,0.0,0.0,0.0,0.0,0.0,0.0,0.0,0.0,0.0,0.0,0.0,0.0,0.0,0.0,0.0,0.0,0.0,0.0,0.0,0.0,0.0,0.0,0.0,0.0,0.0,0.0,0.0,0.0,0.0,0.0,0.0,0.0,0.0,0.0,0.0,0.0,0.0,0.0,0.0,0.0,0.0,0.0,0.0,0.0,0.0,0.0,0.0,0.0,0.0,0.0,0.0,0.0,0.0,0.0,0.0,0.0,0.0,0.0,0.0,0.0,0.0,0.0,0.0,0.0,0.0,0.0,0.0,0.0,0.0,0.0,0.0,0.0,0.0,0.0,0.0,0.0,0.0,0.0,0.0,0.0,0.0,0.0,0.0,0.0,0.0,0.0,0.0,0.0,0.0,0.0,0.0,0.0,0.0,0.0,0.0,0.0,0.0,0.0,0.0,0.0,-0.4311,-0.41,0.0,0.0,0.0,0.0,0.0,0.0,-0.0077,0.0,0.0,0.0,0.0,0.0,0.0,0.0,0.0,0.0,0.0,0.0,0.0,0.0,0.0,0.0,0.0,0.0,0.0,0.0,0.0,0.0,0.0,0.0,0.0,0.0,0.0,0.0,0.0,0.0,0.0,0.0,0.0,0.0,0.0,0.0,0.0,0.0,0.0,0.0,0.0,0.0,0.0,0.0,0.0,0.0,0.0,0.0,0.0,0.0,0.0,0.0,0.0,0.0,0.0,0.0,0.0,0.0,0.0,0.0,0.0,0.0,0.0,0.0,0.0,0.0,0.0,0.0,0.0,0.0,0.0,0.0,0.0,0.0,0.0,0.0,0.0,0.0,0.0,0.0,0.0,0.0,0.0,0.0,0.0,0.0,0.0,0.0,0.0,0.0,0.0,0.0,0.0,0.0,0.0,0.0,0.0,0.0,0.0,0.0,0.0,0.0,0.0,0.0,0.0,0.0,0.0,-0.3713,-0.4115,-0.377,0.0,0.0,0.0,-0.1955,-0.314,-0.2762,-0.0157,0.0,0.0,0.0,0.0,0.0,0.0,0.0,0.0,0.0,0.0,0.0,0.0,0.0,0.0,0.0,0.0,0.0,0.0,0.0,0.0,0.0,0.0,0.0,0.0,0.0,0.0,0.0,0.0,0.0,0.0,0.0,0.0,0.0,0.0,0.0,0.0,0.0,0.0,0.0,0.0,0.0,0.0,0.0,0.0,0.0,0.0,0.0,0.0,0.0,0.0,0.0,0.0,0.0,0.0,0.0,0.0,0.0,0.0,0.0,0.0,0.0,0.0,0.0,0.0,0.0,0.0,0.0,0.0,0.0,0.0,0.0,0.0,0.0,0.0,0.0,0.0,0.0,0.0,0.0,0.0,0.0,0.0,0.0,0.0,0.0,0.0,0.0,0.0,0.0,0.0,0.0,0.0,0.0,0.0,0.0,0.0,0.0,0.0,0.0,0.0,0.0,0.0,0.0,0.0,0.0,-0.0537,-0.0874,-0.2898,-0.4188,-0.3847,-0.3852,0.0,-0.0653,-0.0729,-0.067,-0.0078,0.0,0.0,0.0,0.0,0.0,0.0,0.0,0.0,0.0,0.0,0.0,0.0,0.0,0.0,0.0,0.0,0.0,0.0,0.0,0.0,0.0,0.0,0.0,0.0,0.0,0.0,0.0,0.0,0.0,0.0,0.0,0.0,0.0,0.0,0.0,0.0,0.0,0.0,0.0,0.0,0.0,0.0,0.0,0.0,0.0,0.0,0.0,0.0,0.0,0.0,0.0,0.0,0.0,0.0,0.0,0.0,0.0,0.0,0.0,0.0,0.0,0.0,0.0,0.0,0.0,0.0,0.0,0.0,0.0,0.0,0.0,0.0,0.0,0.0,0.0,0.0,0.0,0.0,0.0,0.0,0.0,0.0,0.0,0.0,0.0,0.0,0.0,0.0,0.0,0.0,0.0,0.0,0.0,0.0,0.0,0.0,0.0,0.0,0.0,0.0,0.0,0.0,0.0,0.0,0.0,0.0,0.0,-0.1279,-0.2225,-0.2223,-0.2225,0.0,0.0,-0.0796,0.0,0.0,0.0,0.0,0.0,0.0,0.0,0.0,0.0,0.0,0.0,0.0,0.0,0.0,0.0,0.0,0.0,0.0,0.0,0.0,0.0,0.0,0.0,0.0,0.0,0.0,0.0,0.0,0.0,0.0,0.0,0.0,0.0,0.0,0.0,0.0,0.0,0.0,0.0,0.0,0.0,0.0,0.0,0.0,0.0,0.0,0.0,0.0,0.0,0.0,0.0,0.0,0.0,0.0,0.0,0.0,0.0,0.0,0.0,0.0,0.0,0.0,0.0,0.0,0.0,0.0,0.0,0.0,0.0,0.0,0.0,0.0,0.0,0.0,0.0,0.0,0.0,0.0,0.0,0.0,0.0,0.0,0.0,0.0,0.0,0.0,0.0,0.0,0.0,0.0,0.0,0.0,0.0,0.0,0.0,0.0,0.0,0.0,0.0,0.0,0.0,0.0,0.0,0.0,0.0,0.0,0.0,0.0,0.0,0.0,0.0,0.0,0.0,-0.0954,0.0,0.0,0.0,0.0,0.0,0.0,0.0,0.0,0.0,0.0,0.0,0.0,0.0,0.0,0.0,0.0,0.0,0.0,0.0,0.0,0.0,0.0,0.0,0.0,0.0,0.0,0.0,0.0,0.0,0.0,0.0,0.0,0.0,0.0,0.0,0.0,0.0,0.0,0.0,0.0,0.0,0.0,0.0,0.0,0.0,0.0,0.0,0.0,0.0,0.0,0.0,0.0,0.0,0.0,0.0,0.0,0.0,0.0,0.0,0.0,0.0,0.0,0.0,0.0,0.0,0.0,0.0,0.0,0.0,0.0,0.0,0.0,0.0,0.0,0.0,0.0,0.0,0.0,0.0,0.0,0.0,0.0,0.0,0.0,0.0,0.0,0.0,0.0,0.0,0.0,0.0,0.0,0.0,0.0,0.0,0.0,0.0,0.0,0.0,0.0,0.0,0.0,0.0,0.0,0.0,0.0,0.0,0.0,0.0,0.0,0.0,0.0,0.0,0.0,0.0,-0.0136,-0.056,-0.0216,0.0,0.0,0.0,0.0,0.0,0.0,0.0,0.0,0.0,0.0,0.0,0.0,0.0,0.0,0.0,0.0,0.0,0.0,0.0,0.0,0.0,0.0,0.0,0.0,0.0,0.0,0.0,0.0,0.0,0.0,0.0,0.0,0.0,0.0,0.0,0.0,0.0,0.0,0.0,0.0,0.0,0.0,0.0,0.0,0.0,0.0,0.0,0.0,0.0,0.0,0.0,0.0,0.0,0.0,0.0,0.0,0.0,0.0,0.0,0.0,0.0,0.0,0.0,0.0,0.0,0.0,0.0,0.0,0.0,0.0,0.0,0.0,0.0,0.0,0.0,0.0,0.0,0.0,0.0,0.0,0.0,0.0,0.0,0.0,0.0,0.0,0.0,0.0,0.0,0.0,0.0,0.0,0.0,0.0,0.0,0.0,0.0,0.0,0.0,0.0,0.0,0.0,0.0,0.0,0.0,0.0,0.0,0.0,0.0,0.0,0.0,0.0,0.0,0.0,0.0,0.0,0.0,0.0,0.0,0.0,0.0,0.0,0.0,0.0,0.0,0.0,0.0,0.0,0.0,0.0,0.0,0.0,0.0,0.0,0.0,0.0,0.0,0.0,0.0,0.0,0.0,0.0,0.0,0.0,0.0,0.0,0.0,0.0,0.0,0.0,0.0,0.0,0.0,0.0,0.0,0.0,0.0,0.0,0.0,0.0,0.0,0.0,0.0,0.0,0.0,0.0,0.0,0.0,0.0,0.0,0.0,0.0,0.0,0.0,0.0,0.0,0.0,0.0,0.0,0.0,0.0,0.0,0.0,0.0,0.0,0.0,0.0,0.0,0.0,0.0,0.0,0.0,0.0,0.0,0.0,0.0,0.0,0.0,0.0,0.0,0.0,0.0,0.0,0.0,0.0,0.0,0.0,0.0,0.0,0.0,0.0,0.0,0.0,0.0,0.0,0.0,0.0,0.0,0.0,0.0,0.0,0.0,0.0,0.0,0.0,0.0,0.0,0.0,0.0,0.0,0.0,0.0,0.0,0.0,0.0,0.0,0.0,0.0,0.0,0.0,0.0,0.0,0.0,0.0,0.0,0.0,0.0,0.0,0.0,0.0,0.0,0.0,0.0,0.0,0.0,0.0,0.0,0.0,0.0,0.0,0.0,0.0,0.0,0.0,0.0,0.0,0.0,0.0,0.0,0.0,0.0,0.0,0.0,0.0,0.0,0.0,0.0,0.0,0.0,0.0,0.0,0.0,0.0,0.0,0.0,0.0,0.0,0.0,0.0,0.0,0.0,0.0,0.0,0.0,0.0,0.0,0.0,0.0,0.0,0.0,0.0,0.0,0.0,0.0,0.0,0.0,0.0,0.0,0.0,0.0,0.0,0.0,0.0,0.0,0.0,0.0,0.0,0.0,0.0,0.0,0.0,0.0,0.0,0.0,0.0,0.0,0.0,0.0,0.0,0.0,0.0,0.0,0.0,0.0,0.0,0.0,0.0,0.0,0.0,0.0,0.0,0.0,0.0,0.0,0.0,0.0,0.0,0.0,0.0,0.0,0.0,0.0,0.0,0.0,0.0,0.0,0.0,0.0,0.0,0.0,0.0,0.0,0.0,0.0,0.0,0.0,0.0,0.0,0.0,0.0,0.0,0.0,0.0,0.0,0.0,0.0,0.0,0.0,0.0,0.0,0.0,0.0,0.0,0.0,0.0,0.0,0.0,0.0,0.0,0.0,0.0,0.0,0.0,0.0,0.0,0.0,0.0,0.0,0.0,0.0,0.0,0.0,0.0,0.0,0.0,0.0,0.0,0.0,0.0,0.0,0.0,0.0,0.0,0.0,0.0,0.0,0.0,0.0,0.0,0.0,0.0,0.0,0.0,0.0,0.0,0.0,0.0,0.0,0.0,0.0,0.0,0.0,0.0,0.0,0.0,0.0,0.0,0.0,0.0,0.0,0.0,0.0,0.0,0.0,0.0,0.0,0.0,0.0,0.0,0.0,0.0,0.0,0.0,0.0,0.0,0.0,0.0,0.0,0.0,0.0,0.0,0.0,0.0,0.0,0.0,0.0,0.0,0.0,0.0,0.0,0.0,0.0,0.0,0.0,0.0,0.0,0.0,0.0,0.0,0.0,0.0,0.0,0.0,0.0,0.0,0.0,0.0,0.0,0.0,0.0,0.0,0.0,0.0,0.0,0.0,0.0,0.0,0.0,0.0,0.0,0.0,0.0,0.0,0.0,0.0,0.0,0.0,0.0,0.0,0.0,0.0,0.0,0.0,0.0,0.0,0.0,0.0,0.0,0.0,0.0,0.0,0.0,0.0,0.0,0.0,0.0,0.0,0.0,0.0,0.0,0.0,0.0,0.0,0.0,0.0,0.0,0.0,0.0,0.0,0.0,0.0,0.0,0.0,0.0,0.0,0.0,0.0,0.0,0.0,0.0,0.0,0.0,0.0,0.0,0.0,0.0,0.0,0.0,0.0,0.0,0.0,0.0,0.0,0.0,0.0,0.0,0.0,0.0,0.0,0.0,0.0,0.0,0.0,0.0,0.0,0.0,0.0,0.0,0.0,0.0,0.0,0.0,0.0,0.0,0.0,0.0,0.0,0.0,0.0,0.0,0.0,0.0,0.0,0.0,0.0,0.0,0.0,0.0,0.0,0.0,0.0,0.0,0.0,0.0,0.0,0.0,0.0,0.0,0.0,0.0,0.0,0.0,0.0,0.0,0.0,0.0,0.0,0.0,0.0,0.0,0.0,0.0,0.0,0.0,0.0,0.0,0.0,0.0,0.0,0.0,0.0,0.0,0.0,0.0,0.0,0.0,0.0,0.0,0.0,0.0,0.0,0.0,0.0,0.0,0.0,0.0,0.0,0.0,0.0,0.0,0.0,0.0,0.0,0.0,0.0,0.0,0.0,0.0,0.0,0.0,0.0,0.0,0.0,0.0,0.0,0.0,0.0,0.0,0.0,0.0,0.0,0.0,0.0,0.0,0.0,0.0,0.0,0.0,0.0,0.0,0.0,0.0,0.0,0.0,0.0,0.0,0.0,0.0,0.0,0.0,0.0,0.0,0.0,0.0,0.0,0.0,0.0,0.0,0.0,0.0,0.0,0.0,0.0,0.0,0.0,0.0,0.0,0.0,0.0,0.0,0.0,0.0,0.0,0.0,0.0,0.0,0.0,0.0,0.0113,0.0,0.0,0.0,0.0,0.0,0.0,0.0,0.0,0.0,0.0,0.0,0.0,0.0,0.0,0.0,0.0,0.0,0.0,0.0,0.0,0.0,0.0,0.0,0.0,0.0,0.0,0.0,0.0,0.0,0.0,0.0,0.0,0.0,0.0,0.0,0.0,0.0,0.0,0.0,0.0,0.0,0.0,0.0,0.0,0.0,0.0,0.0,0.0,0.0,0.0,0.0,0.0,0.0,0.0,0.0,0.0,0.0,0.0,0.0,0.0,0.0,0.0,0.0,0.0,0.0,0.0,0.0,0.0,0.0,0.0,0.0,0.0,0.0,0.0,0.0,0.0,0.0,0.0,0.0,0.0,0.0,0.0,0.0,0.0,0.0,0.0,0.0,0.0,0.0,0.0,0.0,0.0,0.0,0.0,0.0,0.0,0.0,0.0,0.0,0.0,0.0,0.0,0.0,0.0,0.0,0.0,0.0,0.0,0.0,0.0,0.0,0.0,0.0,0.0,0.0,0.0,0.0404,0.0,0.0,0.0,0.0,0.0,0.0,0.0,0.0,0.0,0.0,0.0,0.0,0.0,0.0,0.0,0.0,0.0,0.0,0.0,0.0,0.0,0.0,0.0,0.0,0.0,0.0,0.0,0.0,0.0,0.0,0.0,0.0,0.0,0.0,0.0,0.0,0.0,0.0,0.0,0.0,0.0,0.0,0.0,0.0,0.0,0.0,0.0,0.0,0.0,0.0,0.0,0.0,0.0,0.0,0.0,0.0,0.0,0.0,0.0,0.0,0.0,0.0,0.0,0.0,0.0,0.0,0.0,0.0,0.0,0.0,0.0,0.0,0.0,0.0,0.0,0.0,0.0,0.0,0.0,0.0,0.0,0.0,0.0,0.0,0.0,0.0,0.0,0.0,0.0,0.0,0.0,0.0,0.0,0.0,0.0,0.0,0.0,0.0,0.0,0.0,0.0,0.0,0.0,0.0,0.0,0.0,0.0,0.0,0.0,0.0,0.0,0.0,0.0,0.0,0.0,0.0954,0.0,0.0,0.0359,0.0377,0.0,0.0,0.0,0.0,0.0,0.0,0.0,0.0,0.0,0.0,0.0,0.0,0.0,0.0,0.0,0.0,0.0,0.0,0.0,0.0,0.0,0.0,0.0,0.0,0.0,0.0,0.0,0.0,0.0,0.0,0.0,0.0,0.0,0.0,0.0,0.0,0.0,0.0,0.0,0.0,0.0,0.0,0.0,0.0,0.0,0.0,0.0,0.0,0.0,0.0,0.0,0.0,0.0,0.0,0.0,0.0,0.0,0.0,0.0,0.0,0.0,0.0,0.0,0.0,0.0,0.0,0.0,0.0,0.0,0.0,0.0,0.0,0.0,0.0,0.0,0.0,0.0,0.0,0.0,0.0,0.0,0.0,0.0,0.0,0.0,0.0,0.0,0.0,0.0,0.0,0.0,0.0,0.0,0.0,0.0,0.0,0.0,0.0,0.0,0.0,0.0,0.0,0.0,0.0,0.0,0.0,0.0,0.0,0.0,0.0,0.1637,0.1913,0.2606,0.0,0.0,0.2,0.0,0.3619,0.2486,0.0413,0.0,0.0,0.0,0.0,0.0,0.0,0.0,0.0,0.0,0.0,0.0,0.0,0.0,0.0,0.0,0.0,0.0,0.0,0.0,0.0,0.0,0.0,0.0,0.0,0.0,0.0,0.0,0.0,0.0,0.0,0.0,0.0,0.0,0.0,0.0,0.0,0.0,0.0,0.0,0.0,0.0,0.0,0.0,0.0,0.0,0.0,0.0,0.0,0.0,0.0,0.0,0.0,0.0,0.0,0.0,0.0,0.0,0.0,0.0,0.0,0.0,0.0,0.0,0.0,0.0,0.0,0.0,0.0,0.0,0.0,0.0,0.0,0.0,0.0,0.0,0.0,0.0,0.0,0.0,0.0,0.0,0.0,0.0,0.0,0.0,0.0,0.0,0.0,0.0,0.0,0.0,0.0,0.0,0.0,0.0,0.0,0.0,0.0,0.0,0.0,0.0,0.0,0.0,0.0101,0.0,0.0,1.0894,0.341,0.0,0.8773,1.2384,1.0462,0.5952,0.7133,0.5494,0.2511,0.0,0.0,0.0,0.0,0.0,0.0,0.0,0.0,0.0,0.0,0.0,0.0,0.0,0.0,0.0,0.0,0.0,0.0,0.0,0.0,0.0,0.0,0.0,0.0,0.0,0.0,0.0,0.0,0.0,0.0,0.0,0.0,0.0,0.0,0.0,0.0,0.0,0.0,0.0,0.0,0.0,0.0,0.0,0.0,0.0,0.0,0.0,0.0,0.0,0.0,0.0,0.0,0.0,0.0,0.0,0.0,0.0,0.0,0.0,0.0,0.0,0.0,0.0,0.0,0.0,0.0,0.0,0.0,0.0,0.0,0.0,0.0,0.0,0.0,0.0,0.0,0.0,0.0,0.0,0.0,0.0,0.0,0.0,0.0,0.0,0.0,0.0,0.0,0.0,0.0,0.0,0.0,0.0,0.0,0.0,0.0,0.0,0.0,0.0,0.0,0.0,0.0,0.0,0.0,0.0,0.4713,0.8193,0.5308,0.0,1.043,1.4477,1.2303,0.689,0.8045,0.6384,0.2954,0.0792,0.0,0.0,0.0,0.0,0.0,0.0,0.0,0.0,0.0,0.0,0.0,0.0,0.0,0.0,0.0,0.0,0.0,0.0,0.0,0.0,0.0,0.0,0.0,0.0,0.0,0.0,0.0,0.0,0.0,0.0,0.0,0.0,0.0,0.0,0.0,0.0,0.0,0.0,0.0,0.0,0.0,0.0,0.0,0.0,0.0,0.0,0.0,0.0,0.0,0.0,0.0,0.0,0.0,0.0,0.0,0.0,0.0,0.0,0.0,0.0,0.0,0.0,0.0,0.0,0.0,0.0,0.0,0.0,0.0,0.0,0.0,0.0,0.0,0.0,0.0,0.0,0.0,0.0,0.0,0.0,0.0,0.0,0.0,0.0,0.0,0.0,0.0,0.0,0.0,0.0,0.0,0.0,0.0,0.0,0.0,0.0,0.0,0.0,0.0,0.0,0.0,0.0,0.0,0.0,0.0,0.3565,0.0,0.9282,1.0524,1.3649,1.1959,0.8147,0.8016,0.6187,0.339,0.0818,0.0,0.0,0.0,0.0,0.0,0.0,0.0,0.0,0.0,0.0,0.0,0.0,0.0,0.0,0.0,0.0,0.0,0.0,0.0,0.0,0.0,0.0,0.0,0.0,0.0,0.0,0.0,0.0,0.0,0.0,0.0,0.0,0.0,0.0,0.0,0.0,0.0,0.0,0.0,0.0,0.0,0.0,0.0,0.0,0.0,0.0,0.0,0.0,0.0,0.0,0.0,0.0,0.0,0.0,0.0,0.0,0.0,0.0,0.0,0.0,0.0,0.0,0.0,0.0,0.0,0.0,0.0,0.0,0.0,0.0,0.0,0.0,0.0,0.0,0.0,0.0,0.0,0.0,0.0,0.0,0.0,0.0,0.0,0.0,0.0,0.0,0.0,0.0,0.0,0.0,0.0,0.0,0.0,0.0,0.0,0.0,0.0,0.0,0.0,0.0,0.889,0.0,0.0,0.0,0.5931,0.0,0.865,0.9883,0.0,1.203,1.3057,1.3268,0.7986,0.5767,0.4857,0.0,0.0,0.0,0.0,0.0,0.0,0.0,0.0,0.0,0.0,0.0,0.0,0.0,0.0,0.0,0.0,0.0,0.0,0.0,0.0,0.0,0.0,0.0,0.0,0.0,0.0,0.0,0.0,0.0,0.0,0.0,0.0,0.0,0.0,0.0,0.0,0.0,0.0,0.0,0.0,0.0,0.0,0.0,0.0,0.0,0.0,0.0,0.0,0.0,0.0,0.0,0.0,0.0,0.0,0.0,0.0,0.0,0.0,0.0,0.0,0.0,0.0,0.0,0.0,0.0,0.0,0.0,0.0096,0.0,0.0,0.0,0.0,0.0,0.0,0.0,0.0,0.0,0.0,0.0,0.0,0.0,0.0,0.0,0.0,0.0,0.0,0.0,0.0,0.0,0.0,0.03,0.0877,0.0887,0.0556,0.0,0.0,0.0363,0.0,0.0,0.0,0.0,0.7632,0.0,0.2273,0.0,0.0,0.0,0.0,0.0,0.0,1.3029,1.48,1.5357,1.3284,1.07,0.7903,0.0,0.1038,0.0,0.0,0.0,0.0,0.0,0.0,0.0,0.0,0.0,0.0,0.0,0.0,0.0,0.0,0.0,0.0,0.0,0.0,0.0,0.0,0.0,0.0,0.0,0.0,0.0,0.0,0.0,0.0,0.0,0.0,0.0,0.0,0.0,0.0,0.0,0.0,0.0,0.0,0.0,0.0,0.0,0.0,0.0,0.0,0.0,0.0,0.0,0.0,0.0,0.0,0.0,0.0,0.0,0.0,0.0,0.0,0.0,0.0,0.0,0.0,0.0,0.0,0.0,0.0,0.0,0.0386,0.0099,0.0,0.0,0.0,0.0,0.0,0.0,0.0,0.0,0.0,0.0,0.0,0.0413,0.0,0.0,0.0,0.0,0.0,0.0,0.0,0.0,0.0,0.0,0.0,0.1367,0.1165,0.0477,0.0278,0.0645,0.0,0.0,0.0,0.0,0.0,0.6477,0.4176,0.0,0.0,0.6312,0.9037,1.0763,1.1974,1.4495,1.581,1.6286,1.6328,1.4097,1.0661,0.7333,0.3771,0.0,0.0634,0.0,0.0,0.0,0.0,0.0,0.0,0.0,0.0,0.0,0.0,0.0,0.0,0.0,0.0,0.0,0.0,0.0,0.0,0.0,0.0,0.0,0.0,0.0,0.0,0.0,0.0,0.0,0.0,0.0,0.0,0.0,0.0,0.0,0.0,0.0,0.0,0.0,0.0,0.0,0.0,0.0,0.0,0.0,0.0,0.0,0.0,0.0,0.0,0.0,0.0,0.0,0.0,0.0,0.0,0.0,0.0,0.0,0.0,0.0,0.0,0.0,0.0,0.0,0.0981,0.0398,0.0,0.0,0.0,0.0,0.0,0.0,0.0,0.0,0.0,0.0,0.0,0.0,0.0,0.0,0.0,0.0,0.0,0.0,0.0,0.0,0.0,0.0,0.0,0.0,0.1594,0.1525,0.1047,0.0865,0.098,0.1373,0.2532,0.43,0.0,0.8178,0.7561,0.9922,1.0589,1.0113,1.2253,1.4482,1.6137,0.0,1.5886,1.6161,1.4475,0.0,0.0,1.2701,0.8542,0.0,0.0,0.0,0.0,0.0,0.0,0.0,0.0,0.0,0.0,0.0,0.0,0.0,0.0,0.0,0.0,0.0,0.0,0.0,0.0,0.0,0.0,0.0,0.0,0.0,0.0,0.0,0.0,0.0,0.0,0.0,0.0,0.0,0.0,0.0,0.0,0.0,0.0,0.0,0.0,0.0,0.0,0.0,0.0,0.0,0.0,0.0,0.0,0.0,0.0,0.0,0.0,0.0,0.0,0.0,0.0,0.0,0.0,0.0,0.0,0.0,0.0,0.0,0.0,0.0,0.1626,0.1226,0.0818,0.0101,0.0,0.0315,0.0,0.1438,0.0,0.0,0.0,0.0,0.0,0.0,0.1411,0.0,0.0,0.1882,0.1133,0.0346,0.0,0.0,0.0,0.0541,0.0,0.0,0.1235,0.1615,0.2361,0.2843,0.2997,0.4044,0.4602,0.5088,0.0,0.8183,0.0,0.0,0.0,0.0,0.0,1.4911,1.5757,0.0,0.0,1.6239,1.6047,1.5952,0.0,1.4203,1.338,1.1835,0.5144,0.2731,0.2048,0.0405,0.0,0.0,0.0,0.0,0.0,0.0,0.0,0.0,0.0,0.0,0.0,0.0,0.0,0.0,0.0,0.0,0.0,0.0,0.0,0.0,0.0,0.0,0.0,0.0,0.0,0.0,0.0,0.0,0.0,0.0,0.0,0.0,0.0,0.0,0.0,0.0,0.0,0.0,0.0,0.0,0.0,0.0,0.0,0.0,0.0,0.0,0.0,0.0,0.0,0.0,0.0,0.0,0.0,0.0,0.0,0.0,0.0,0.0,0.0,0.0,0.251,0.1976,0.1343,0.0409,0.0311,0.0,0.0,0.0,0.0,0.0,0.2502,0.0,0.0536,0.0,0.1645,0.0,0.414,0.4305,0.2378,0.314,0.0,0.7027,0.4931,0.0,0.0,0.0,0.0,0.4318,0.4362,0.4435,0.4564,0.5298,0.5889,0.6224,0.0,0.0,0.0,0.0,1.3808,0.0,0.0,1.5655,0.0,0.0,1.6544,1.6232,0.0,1.7127,1.6942,1.5674,1.5711,1.5482,0.9076,0.564,0.3375,0.1715,0.0631,0.0,0.0,0.0,0.0,0.0,0.0,0.0,0.0,0.0,0.0,0.0,0.0,0.0,0.0,0.0,0.0,0.0,0.0,0.0,0.0,0.0,0.0,0.0,0.0,0.0,0.0,0.0,0.0,0.0,0.0,0.0,0.0,0.0,0.0,0.0,0.0,0.0,0.0,0.0,0.0,0.0,0.0,0.0,0.0,0.0,0.0,0.0,0.0,0.0,0.0,0.0,0.0,0.0,0.0,0.0,0.0,0.0,0.0,0.0,0.0,0.0,0.0,0.0,0.1092,0.0,0.0,0.0,0.5645,0.0,0.7026,0.2052,0.1767,0.2513,0.2812,0.1832,0.5482,0.0,0.3642,0.7526,0.0,0.0,1.2677,0.9888,0.8537,0.0,0.0,0.0,0.6872,0.5656,0.5343,0.5474,0.6226,0.7442,0.7931,0.0,1.2779,1.3512,1.4706,1.613,1.6286,1.6598,1.6965,1.6998,1.6551,1.6029,1.7053,1.7243,1.7066,1.7494,1.6094,1.4151,1.3709,0.9264,0.4082,0.3892,0.2066,0.0229,0.0,0.0,0.0,0.0,0.0,0.0,0.0,0.0,0.0,0.0,0.0,0.0,0.0,0.0,0.0,0.0,0.0,0.0,0.0,0.0,0.0,0.0,0.0,0.0,0.0,0.0,0.0,0.0,0.0,0.0,0.0,0.0,0.0,0.0,0.0,0.0,0.0,0.0,0.0,0.0,0.0,0.0,0.0,0.0,0.0,0.0,0.0,0.0,0.0,0.0,0.0,0.0,0.0,0.0,0.0,0.0,0.0,0.0,0.6413,0.5497,0.4896,0.0,0.2998,0.1647,0.0,0.0,0.0,0.0,0.907,0.6932,0.3292,0.3167,0.3228,0.289,0.5773,0.0,0.0,0.0,0.0,1.1463,1.3914,1.3419,0.9468,0.9443,0.0,0.7981,0.0,0.6837,0.665,0.758,0.8219,0.8568,0.0,0.0,1.2766,1.3288,1.4699,1.6598,1.6863,1.6836,0.0,0.0,1.708,1.6598,1.7202,1.7372,1.7324,1.7439,1.7114,1.6338,1.4629,1.299,1.0632,0.5223,0.3196,0.2293,0.0459,0.0,0.0,0.0,0.0,0.0,0.0,0.0,0.0,0.0,0.0,0.0,0.0,0.0,0.0,0.0,0.0,0.0,0.0,0.0,0.0,0.0,0.0,0.0,0.0,0.0,0.0,0.0,0.0,0.0,0.0,0.0,0.0,0.0,0.0,0.0,0.0,0.0,0.0,0.0,0.0,0.0,0.0,0.0,0.0,0.0,0.0,0.0,0.0,0.0,0.0,0.0,0.0,0.0,0.0,0.0,0.0,0.0,0.7623,0.0,0.0,0.6293,0.0,0.0,0.3994,0.0,0.0,0.9083,0.9152,0.0,0.6069,0.6034,0.6162,0.6244,0.8507,0.0,0.0,0.0,0.0,1.2802,1.5512,1.5552,1.2792,1.2292,0.0,1.0087,0.0,0.0,0.8017,0.8765,0.9069,0.9157,0.9686,1.0785,1.2325,1.3566,1.4964,1.6395,1.6829,1.6965,0.0,1.746,1.7521,1.7378,1.7704,1.7717,1.7616,1.7616,1.767,1.7525,1.6028,1.4178,1.2055,0.7773,0.4837,0.2554,0.1162,0.0468,0.0,0.0,0.0,0.0,0.0,0.0,0.0,0.0,0.0,0.0,0.0,0.0,0.0,0.0,0.0,0.0,0.0,0.0,0.0,0.0,0.0,0.0,0.0,0.0,0.0,0.0,0.0,0.0,0.0,0.0,0.0,0.0,0.0,0.0457,0.1367,0.046,0.0,0.0,0.0,0.0,0.0,0.0,0.0,0.0,0.0,0.0,0.0,0.0,0.0,0.0,0.0,0.0,0.0,0.0,0.0,0.0,0.0,0.0,0.0,0.0,0.0,0.0,0.0,0.546,0.0,1.0973,0.0,0.8196,0.9399,0.9887,1.0193,1.002,0.0,1.2936,1.2341,1.5184,1.6852,1.663,1.6817,1.689,1.6754,1.5852,0.0,0.0,0.0,0.0,0.9157,0.9211,0.9293,0.9401,0.9869,0.0,0.0,1.4136,1.5418,1.6076,1.6639,1.7127,1.7521,1.765,1.788,1.8145,1.8267,1.8145,1.7914,1.7914,1.7914,1.7948,1.7399,1.4807,1.1491,1.0199,0.6544,0.2593,0.2127,0.0945,0.0,0.0,0.0,0.0,0.0,0.0,0.0,0.0,0.0,0.0,0.0,0.0,0.0,0.0,0.0,0.0,0.0,0.0,0.0,0.0,0.0,0.0,0.0,0.0,0.0,0.0,0.0,0.0,0.0,0.0,0.0,0.0,0.0,0.0904,0.2913,0.1378,0.0231,0.0,0.0,0.0,0.0,0.0,0.0,0.0,0.0,0.0,0.0,0.0,0.0,0.0,0.0,0.0,0.0,0.0,0.0,0.0,0.0,0.0,0.0,0.0,0.0,1.0473,1.2124,1.2735,1.3424,1.4852,1.4641,1.3784,1.2342,1.2584,1.1954,1.0149,1.1999,0.0,0.0,0.0,0.0,1.6625,1.6659,1.6781,1.6748,1.5744,1.4611,0.0,0.0,0.0,0.9164,0.953,0.9591,0.9408,0.9985,0.0,1.337,1.4746,0.0,1.6992,1.7351,1.7684,1.7982,1.8002,1.8124,1.8287,1.8301,1.8287,1.8233,1.8233,1.8233,1.8247,1.8034,1.7686,1.5975,1.0499,0.8201,0.6829,0.3109,0.0961,0.0,0.0,0.0,0.0,0.0,0.0,0.0,0.0,0.0,0.0,0.0,0.0,0.0,0.0,0.0,0.0,0.0,0.0,0.0,0.0,0.0,0.0,0.0,0.0,0.0,0.0,0.0,0.0,0.0,0.0,0.0,0.0,0.0,0.0,0.0,0.0,0.1838,0.0,0.0,0.0,0.0,0.0,0.0,0.0,0.0,0.0,0.0,0.0,0.0,0.0,0.0,0.0,0.0,0.0,0.0,0.0,0.0,0.0,0.0,0.0,0.0,0.0,0.0,1.5031,0.0,1.4591,1.4611,1.4168,1.3167,1.4262,1.4487,1.3515,1.4559,1.5014,1.5289,1.6132,1.6727,1.6646,1.6788,0.0,1.6754,1.6334,1.5262,1.3519,0.0,0.0,0.9503,0.9646,0.9673,0.9666,1.0887,1.2121,0.0,0.0,0.0,1.6904,1.7595,1.7968,1.8111,1.8267,1.8375,1.8443,1.8511,1.8552,1.8531,1.8375,1.8321,1.8321,1.8321,1.7485,1.6004,1.2863,0.9169,0.5681,0.3598,0.2412,0.1932,0.1212,0.097,0.0969,0.0966,0.0479,0.0,0.0,0.0,0.0,0.0,0.0835,0.0,0.0,0.0,0.0,0.0,0.0,0.0,0.0,0.0,0.0,0.0,0.0,0.0,0.0,0.0,0.0,0.0,0.0,0.0,0.0,0.0,0.0,0.0,0.0,0.1377,0.0904,0.0233,0.0,0.0,0.0,0.0,0.0,0.0,0.0,0.0,0.0,0.0,0.0,0.0,0.0,0.0,0.0,0.0,0.0,0.0,1.2406,0.0,0.0,1.3654,0.0,1.4855,1.5771,1.5708,1.4065,1.4083,1.4119,1.4119,1.566,1.6761,1.6883,1.689,1.6944,1.7066,1.7073,1.7019,1.6897,1.6978,1.6971,1.6849,1.6937,1.6001,0.0,0.0,0.0,1.0243,1.0073,1.0215,1.0697,1.2176,0.0,0.0,0.0,1.6551,1.6931,1.7792,1.8158,1.8213,1.8443,1.8552,1.8599,1.8728,1.8762,1.8728,1.8498,1.8409,1.8409,1.8409,1.7104,1.5589,1.5276,1.0876,0.619,0.5535,0.4832,0.3627,0.2664,0.2424,0.2422,0.2406,0.144,0.0718,0.0476,0.0237,0.0,0.0,0.0,0.0,0.0,0.0,0.0,0.0,0.0,0.0,0.0,0.0,0.0,0.0,0.0,0.0,0.0,0.0,0.0,0.0,0.0,0.0,0.0,0.0,0.0873,0.1302,0.0,0.0921,0.1358,0.0465,0.0,0.0,0.0,0.0,0.0,0.0,0.0,0.0,0.0,0.0,0.0,0.0,0.0,0.0,0.0,0.0,0.0,0.0,0.0,0.0,0.0,0.0,0.0,1.5527,1.6212,1.6487,1.646,1.6688,1.6855,1.6855,1.7016,1.7344,1.7358,1.7358,1.7365,1.7378,1.7378,1.7372,1.7358,1.7243,1.7168,1.7154,1.7039,1.6408,0.0,0.0,1.2922,1.164,1.1355,1.1959,1.3295,0.0,0.0,0.0,1.6354,1.706,1.7968,1.8199,1.8375,1.8498,1.8511,1.862,1.8742,1.8762,1.8762,1.8762,1.8728,1.8728,1.8728,1.8728,1.849,1.8091,1.597,1.4781,1.359,1.1706,0.7566,0.3893,0.3676,0.369,0.3692,0.3692,0.3673,0.3166,0.1948,0.0963,0.0,0.0,0.0,0.0219,0.0,0.0,0.0,0.0,0.0,0.0,0.0,0.0,0.0,0.0,0.0,0.0,0.0,0.0,0.0,0.0,0.0,0.0,0.2296,0.0,0.2097,0.0211,0.2015,0.2078,0.0232,0.0,0.0,0.0,0.0,0.0,0.0,0.0,0.0,0.0,0.0,0.0,0.0,0.0,0.0,0.0,0.0,0.0,0.0,0.0,0.0,0.0,0.0,0.0,0.0,0.0,1.6849,1.7154,1.7154,1.7175,1.7195,1.7195,1.7331,1.7419,1.7419,1.7419,1.7419,1.7419,1.7419,1.7419,1.7419,1.7365,1.7331,1.7331,1.7277,1.6727,0.0,0.0,0.0,0.0,1.2379,1.2854,1.4075,0.0,1.5832,1.6368,1.7236,1.7846,1.8247,1.8389,1.8477,1.8545,1.864,1.8708,1.8762,1.8762,1.8762,1.8762,1.8762,1.8762,1.8762,1.8762,1.8762,1.8577,1.7829,1.6473,1.5103,1.4341,1.1483,0.857,0.86,0.8606,0.8591,0.8516,0.6078,0.3644,0.3129,0.2642,0.1912,0.0235,0.0,0.0452,0.2175,0.0,0.0,0.0,0.0,0.0,0.0,0.0,0.0,0.0,0.0,0.0,0.0,0.0,0.0,0.0,0.0,0.0,0.1027,0.0,0.286,0.1986,0.1589,0.1613,0.208,0.0702,0.0,0.0,0.0,0.0,0.0,0.0,0.0,0.0,0.0,0.0,0.0,0.0,0.0,0.0,0.0,0.0,0.0,1.5716,0.0,1.592,0.0,1.651,1.6673,1.7053,1.7358,1.7534,1.7494,1.7433,1.7372,1.7331,1.746,1.7555,1.7555,1.7555,1.7555,1.7555,1.7555,1.7555,1.7555,1.7507,0.0,1.7487,1.7446,1.708,1.6381,1.5289,0.0,1.4251,1.3885,1.4278,1.533,1.6429,1.6931,1.7026,1.7982,1.8389,1.8389,1.8552,1.8599,1.8599,1.8728,1.8762,1.8762,1.8762,1.8762,1.8762,1.8762,1.8762,1.8762,1.8762,1.8762,1.8796,1.8938,1.7861,1.6531,1.6666,1.4845,1.2984,1.2984,1.2277,1.1772,1.1633,0.8744,0.6075,0.5279,0.4334,0.338,0.1437,0.0944,0.1157,0.2937,0.0,0.0,0.0,0.0,0.0,0.0,0.0,0.0,0.0,0.0,0.0,0.0,0.0,0.0,0.0,0.0,0.0,0.0,0.0,0.0,0.3349,0.136,0.1147,0.2317,0.0703,0.0,0.0,0.0,0.0,0.0,0.0,0.0,0.0,0.0,0.0,0.0,0.0,0.0,0.0471,0.33,0.4476,0.4003,1.7053,1.7168,1.7216,1.7378,1.7528,1.7582,1.7439,1.767,1.7812,1.7663,1.7772,1.7812,1.7663,1.7772,1.786,1.786,1.786,1.786,1.786,1.786,1.786,0.0,0.0,1.765,1.765,1.75,1.7487,1.7629,0.0,0.0,1.6273,1.6117,1.6598,1.7616,1.7772,1.8091,1.8511,1.8511,1.8531,1.8552,1.8694,1.8762,1.8762,1.8762,1.8762,1.8762,1.8762,1.8762,1.8762,1.8762,1.8762,1.8762,1.8762,1.8762,1.8796,1.8938,1.8993,1.9027,1.9162,1.7391,1.5543,1.5543,1.3691,1.1804,1.1804,1.1804,1.1038,0.8285,0.5596,0.3883,0.3866,0.2896,0.2127,0.3102,0.0,0.0,0.0,0.0,0.0,0.0,0.2466,0.2841,0.2883,0.0,0.0,0.0,0.0,0.0,0.0,0.0,0.0,0.3104,0.3268,0.0,0.32,0.2208,0.1141,0.0,0.0,0.0,0.0,0.0,0.0,0.0,0.0,0.0,0.0,0.0,0.0,0.0,0.0,0.0,0.1178,1.1103,1.4911,1.3474,1.7446,1.7582,1.7704,1.7846,1.7914,1.7968,1.8023,1.8111,1.8158,1.8111,1.8145,1.8158,1.8111,1.7968,1.7901,0.0,1.7914,1.7914,0.0,1.7914,1.7914,1.8023,1.7968,1.8002,1.8111,1.8057,1.8057,1.8111,0.0,0.0,0.0,1.7175,1.7636,1.8247,1.8409,1.8498,1.8531,1.864,1.8694,1.8694,1.8742,1.8762,1.8762,1.8762,1.8762,1.8762,1.8762,1.8762,1.8762,1.8762,1.8762,1.8762,1.8762,1.8762,1.8782,1.8816,1.8905,1.9006,1.904,1.8438,1.8058,1.8058,1.7452,1.7037,1.6942,1.5543,1.3663,1.1023,0.9798,0.8064,0.4617,0.3637,0.3352,0.3451,0.2094,0.0,0.2816,0.0,0.0,0.0,0.2541,0.3207,0.0,0.2221,0.0,0.0,0.0,0.0,0.0,0.0,0.0,0.0,0.3277,0.0,0.3398,0.2959,0.1845,0.0,0.0,0.0,0.0,0.0,0.0,0.0,0.0,0.0,0.0471,0.731,1.0154,0.9904,0.7297,0.6345,0.6817,1.0103,1.2713,1.4628,1.7792,1.788,1.8002,1.8145,1.8179,1.8213,1.8301,1.8375,1.8409,1.8409,1.8409,1.8409,1.8409,1.8179,0.0,1.8165,1.8091,1.8077,1.8179,1.8091,1.8077,1.8179,1.8179,1.8213,1.8321,1.8321,0.0,1.8321,1.7806,1.7582,1.7623,1.8023,1.8321,1.8531,1.8694,1.8708,1.862,1.8728,1.8762,1.8762,1.8762,1.8762,1.8762,1.8762,1.8762,1.8762,1.8762,1.8762,1.8762,1.8762,1.8762,1.8762,1.8762,1.8762,1.8762,1.8762,1.883,1.8905,1.8905,1.9006,1.9115,1.9115,1.9237,1.9345,1.9291,1.8192,1.6369,1.3753,1.3269,1.2028,0.7574,0.6832,0.6303,0.4037,0.2387,0.1894,0.3407,0.0,0.2763,0.0,0.0,0.0,0.0,0.236,0.1669,0.0,0.0,0.0,0.0,0.0,0.0,0.2816,0.2703,0.2995,0.3476,0.346,0.232,0.0,0.3768,0.5655,0.5655,0.3764,0.2823,0.2823,0.2823,0.2823,0.3294,0.9659,1.3464,1.5364,1.3196,1.2474,1.2938,1.2677,1.3864,1.5783,1.8077,1.8111,1.8158,0.0,1.8335,0.0,1.8355,1.8464,1.8552,1.8552,1.8552,1.8552,1.8552,1.8423,1.8355,1.8355,0.0,0.0,1.8335,1.8321,1.8321,1.8335,1.8335,1.8335,1.8355,1.8355,1.8355,1.8355,1.8477,1.8477,1.8355,1.864,1.8694,1.8552,1.8694,1.8762,1.8762,1.8762,1.8762,1.8762,1.8762,1.8762,1.8762,1.8762,1.8762,1.8762,1.8762,1.8762,1.8762,1.8762,1.8762,1.8762,1.8762,1.8762,1.8762,1.8762,1.8762,1.8762,1.8762,1.8871,1.8972,1.8972,1.9081,1.9237,1.9393,1.9535,1.8908,1.646,1.5977,1.5239,1.2535,1.2049,1.0301,0.536,0.4377,0.4093,0.3977,0.3066,0.255,0.0,0.0,0.0,0.2422,0.2204,0.2019,0.0,0.0,0.0,0.0,0.0,0.1257,0.159,0.1582,0.2042,0.3227,0.3918,0.3251,0.1178,1.0143,1.467,1.4911,1.0125,0.799,0.799,0.8224,0.8224,0.8224,0.8224,1.1763,1.7006,1.6994,1.7715,1.8644,1.7891,1.7645,1.7412,0.0,0.0,1.8321,1.8464,1.8477,1.8511,1.864,1.8694,1.8708,1.8708,1.8708,1.8708,1.8708,1.8674,1.8654,1.8654,1.8443,1.8375,1.8477,1.8375,1.8375,1.8477,1.8477,1.8531,1.8654,1.8654,1.8654,1.8654,1.8694,1.8694,1.8654,1.8728,1.8742,1.8708,1.8742,1.8762,1.8762,1.8762,1.8762,1.8762,1.8762,1.8762,1.8762,1.8762,1.8762,1.8762,1.8762,1.8762,1.8762,1.8762,1.8762,1.8762,1.8762,1.8762,1.8762,1.8762,1.8762,1.8762,1.8762,1.8796,1.8816,1.8816,1.8938,1.9115,1.9379,1.9468,1.9274,1.8888,1.8677,1.794,1.5229,1.4745,1.3753,1.0546,0.8775,0.7706,0.7281,0.7289,0.631,0.4098,0.2982,0.2556,0.2121,0.118,0.1159,0.0,0.0,0.0,0.0,0.3964,0.1131,0.0467,0.0466,0.0467,0.0703,0.8453,1.201,1.1331,0.9897,1.131,1.4884,1.3675,1.3201,1.3201,1.4144,1.4618,1.4618,1.5053,1.5993,1.7424,1.7632,1.7852,1.8091,1.8317,1.8078,1.76,1.8409,1.8409,1.8464,1.8599,1.864,1.8674,1.8742,1.8762,1.8762,1.8762,1.8762,1.8762,1.8762,1.8762,1.8762,1.8762,1.862,1.8552,1.864,1.8565,1.8552,1.864,1.864,1.8674,1.8762,1.8762,1.8762,1.8762,1.8762,1.8762,1.8762,1.8762,1.8762,1.8762,1.8762,1.8762,1.8762,1.8762,1.8762,1.8762,1.8762,1.8762,1.8762,1.8762,1.8762,1.8762,1.8762,1.8762,1.8762,1.8762,1.8762,1.8762,1.8762,1.8762,1.8762,1.8762,1.8762,1.8762,1.8762,1.8762,1.8762,1.8762,1.8918,1.9115,1.9203,1.9393,1.9535,1.9556,1.961,1.9164,1.7697,1.7447,1.6709,1.4012,1.2612,1.1239,0.9687,0.9886,0.8453,0.4458,0.4742,0.4803,0.2922,0.2186,0.1908,0.2525,0.6477,0.0,0.6257,0.6374,0.4624,0.0234,0.0,0.2121,0.6841,1.2293,1.4911,1.49,1.2249,1.2474,1.5092,1.5081,1.507,1.5543,1.6244,1.6724,1.6963,1.7172,1.7393,1.7619,1.7839,1.8059,1.8284,1.8755,1.8523,1.8298,1.8552,1.8565,1.8599,1.8742,1.8762,1.8762,1.8762,1.8762,1.8762,1.8762,1.8762,1.8762,1.8762,1.8762,1.8762,1.8762,1.8762,1.8762,1.8762,1.8762,1.8762,1.8762,1.8762,1.8762,1.8762,1.8762,1.8762,1.8762,1.8762,1.8762,1.8762,1.8762,1.8762,1.8762,1.8762,1.8762,1.8762,1.8762,1.8762,1.8762,1.8762,1.8762,1.8762,1.8762,1.8762,1.8762,1.8762,1.8762,1.8762,1.8762,1.8762,1.8762,1.8762,1.8762,1.8762,1.8762,1.8762,1.8762,1.8762,1.8762,1.8762,1.8762,1.8959,1.9115,1.9006,1.9305,1.9556,1.9447,1.9556,1.9664,1.9664,1.9664,1.8875,1.653,1.5818,1.4911,1.2438,1.1741,1.0132,0.6172,0.7941,0.8285,0.5413,0.4882,0.4127,0.2917,0.6393,0.7496,0.45,0.9561,0.924,0.2315,0.2576,0.6841,1.5409,1.5387,1.5124,1.5097,1.5081,1.5064,1.5064,1.5053,1.5265,1.5965,1.6198,1.6425,1.7135,1.7141,1.7594,1.8059,1.8059,1.8298,1.8762,1.8762,1.8762,1.8762,1.8728,1.8728,1.8728,1.8762,1.8762,1.8762,1.8762,1.8762,1.8762,1.8762,1.8762,1.8762,1.8762,1.8762,1.8762,1.8762,1.8762,1.8762,1.8762,1.8762,1.8762,1.8762,1.8762,1.8762,1.8762,1.8762,1.8762,1.8762,1.8762,1.8762,1.8762,1.8762,1.8762,1.8762,1.8762,1.8762,1.8762,1.8762,1.8762,1.8762,1.8762,1.8762,1.8762,1.8762,1.8762,1.8762,1.8762,1.8762,1.8762,1.8762,1.8762,1.8762,1.8762,1.8762,1.8762,1.8762,1.8762,1.8762,1.8762,1.8762,1.8762,1.8762,1.8796,1.885,1.8972,1.9128,1.9305,1.9413,1.9556,1.9664,1.9664,1.9664,1.9373,1.802,1.7993,1.7974,1.6671,1.5413,1.422,1.3523,1.2035,1.0943,1.0472,0.8948,0.7918,0.7868,0.9732,1.2227,1.5487,1.3039,1.1395,1.1237,1.4295,1.6609,1.8261,1.6772,1.6022,1.6022,1.5293,1.5037,1.5037,1.5037,1.5265,1.5965,1.6425,1.7123,1.7588,1.8298,1.8523,1.8523,1.8523,1.8762,1.8762,1.8762,1.8762,1.8762,1.8762,1.8762,1.8762,1.8762,1.8762,1.8762,1.8762,1.8762,1.8762,1.8762,1.8762,1.8762,1.8762,1.8762,1.8762,1.8762,1.8762,1.8762,1.8762,1.8762,1.8762,1.8762,1.8762,1.8762,1.8762,1.8762,1.8762,1.8762,1.8762,1.8762,1.8762,1.8762,1.8762,1.8762,1.8762,1.8762,1.8762,1.8762,1.8762,1.8762,1.8762,1.8762,1.8762,1.8762,1.8762,1.8762,1.8762,1.8762,1.8762,1.8762,1.8762,1.8762,1.8762,1.8762,1.8762,1.8762,1.8762,1.8762,1.8762,1.8762,1.8762,1.8762,1.883,1.8884,1.8871,1.904,1.9203,1.9203,1.9305,1.9413,1.9413,1.9413,1.9203,1.8552,1.8694,1.862,1.788,1.7485,1.6484,1.4994,1.5266,1.4485,1.1837,1.1992,1.1674,1.0209,1.0884,1.2214,1.4412,1.2393,1.1932,1.3473,1.3611,1.5108,1.8176,1.7437,1.6706,1.6215,1.5737,1.5265,1.5037,1.5037,1.5498,1.6425,1.6663,1.7361,1.8284,1.8755,1.8762,1.8762,1.8762,1.8762,1.8762,1.8762,1.8762,1.8762,1.8762,1.8762,1.8762,1.8762,1.8762,1.8762,1.8762,1.8762,1.8762,1.8762,1.8762,1.8762,1.8762,1.8762,1.8762,1.8762,1.8762,1.8762,1.8762,1.8762,1.8762,1.8762,1.8762,1.8762,1.8762,1.8762,1.8762,1.8762,1.8762,1.8762,1.8762,1.8762,1.8762,1.8762,1.8762,1.8762,1.8762,1.8762,1.8762,1.8762,1.8762,1.8762,1.8762,1.8762,1.8762,1.8762,1.8762,1.8762,1.8762,1.8762,1.8762,1.8762,1.8762,1.8762,1.8762,1.8762,1.8762,1.8762,1.8762,1.8762,1.8762,1.8762,1.885,1.8905,1.8796,1.8972,1.9115,1.9006,1.9094,1.9203,1.9203,1.9203,1.904,1.8586,1.862,1.8531,1.8057,1.8409,1.7993,1.5889,1.7778,1.7476,1.3663,1.498,1.5151,1.3258,1.2952,1.3134,1.3134,1.3134,1.3611,1.5037,1.2677,1.3611,1.7651,1.7412,1.6914,1.6198,1.5959,1.5504,1.5276,1.5276,1.5959,1.7135,1.7135,1.7839,1.8762,1.8762,1.8762,1.8762,1.8762,1.8762,1.8762,1.8762,1.8762,1.8762,1.8762,1.8762,1.8762,1.8762,1.8762,1.8762,1.8762,1.8762,1.8762,1.8762,1.8762,1.8762,1.8762,1.8762,1.8762,1.8762,1.8762,1.8762,1.8762,1.8762,1.8762,1.8762,1.8762,1.8762,1.8762,1.8762,1.8762,1.8762,1.8762,1.8762,1.8762,1.8762,1.8762,1.8762,1.8762,1.8762,1.8762,1.8762,1.8762,1.8762,1.8762,1.8762,1.8762,1.8762,1.8762,1.8762,1.8762,1.8762,1.8762,1.8762,1.8762,1.8762,1.8762,1.8762,1.8762,1.8762,1.8762,1.8762,1.8762,1.8762,1.8762,1.8762,1.8762,1.8782,1.8762,1.8884,1.9006,1.8993,1.9094,1.9203,1.9203,1.9203,1.8884,1.7894,1.8199,1.8335,1.7758,1.8179,1.8708,1.8872,1.9061,1.8771,1.8536,1.839,1.8537,1.8317,1.8298,1.8298,1.8298,1.8298,1.8298,1.8537,1.8331,1.8351,1.8597,1.7613,1.6902,1.6896,1.5737,1.5265,1.5959,1.5959,1.6657,1.782,1.782,1.8065,1.8762,1.8762,1.8762,1.8762,1.8762,1.8762,1.8762,1.8762,1.8762,1.8762,1.8762,1.8762,1.8762,1.8762,1.8762,1.8762,1.8762,1.8762,1.8762,1.8762,1.8762,1.8762,1.8762,1.8762,1.8762,1.8762,1.8762,1.8762,1.8762,1.8762,1.8762,1.8762,1.8762,1.8762,1.8762,1.8762,1.8762,1.8762,1.8762,1.8762,1.8762,1.8762,1.8762,1.8762,1.8762,1.8762,1.8762,1.8762,1.8762,1.8762,1.8762,1.8762,1.8762,1.8762,1.8762,1.8762,1.8762,1.8762,1.8762,1.8762,1.8762,1.8762,1.8762,1.8762,1.8762,1.8762,1.8762,1.8762,1.8762,1.8762,1.8762,1.8762,1.8762,1.8762,1.8762,1.8816,1.885,1.885,1.8884,1.8918,1.8918,1.8918,1.8742,1.8158,1.8498,1.864,1.8145,1.8498,1.885,1.8918,1.8884,1.885,1.885,1.8796,1.8762,1.8762,1.8762,1.8762,1.8762,1.8762,1.8762,1.8762,1.8782,1.8796,1.8796,1.8298,1.7826,1.7361,1.6902,1.6663,1.6657,1.6657,1.6902,1.782,1.782,1.8065,1.8762,1.8762,1.8762,1.8762,1.8762,1.8762,1.8762,1.8762,1.8762,1.8762,1.8762,1.8762,1.8762,1.8762,1.8762,1.8762,1.8762,1.8762,1.8762,1.8762,1.8762,1.8762,1.8762,1.8762,1.8762,1.8762,1.8762,1.8762,1.8762,1.8762,1.8762,1.8762,1.8762,1.8762,1.8762,1.8762,1.8762,1.8762,1.8762,1.8762,1.8762,1.8762,1.8762,1.8762,1.8762,1.8762,1.8762,1.8762,1.8762,1.8762,1.8762,1.8762,1.8762,1.8762,1.8762,1.8762,1.8762,1.8762,1.8762,1.8762,1.8762,1.8762,1.8762,1.8762,1.8762,1.8762,1.8762,1.8762,1.8762,1.8762,1.8762,1.8762,1.8762,1.8762,1.8762,1.8762,1.8762,1.8762,1.8762,1.8762,1.8762,1.8762,1.8694,1.8498,1.8728,1.8816,1.8498,1.8728,1.8884,1.8782,1.8762,1.8762,1.8762,1.8762,1.8762,1.8762,1.8762,1.8762,1.8762,1.8762,1.8762,1.8762,1.8762,1.8762,1.8762,1.8523,1.8298,1.782,1.7581,1.7361,1.7123,1.7123,1.76,1.8065,1.8065,1.8284,1.8762,1.8762,1.8762,1.8762,1.8762,1.8762,1.8762,1.8762,1.8762,1.8762,1.8762,1.8762,1.8762,1.8762,1.8762,1.8762,1.8762,1.8762,1.8762,1.8762,1.8762,1.8762,1.8762,1.8762,1.8762,1.8762,1.8762,1.8762,1.8762,1.8762,1.8762,1.8762,1.8762,1.8762,1.8762,1.8762,1.8762,1.8762,1.8762,1.8762,1.8762,1.8762,1.8762,1.8762,1.8762,1.8762,1.8762,1.8762,1.8762,1.8762,1.8762,1.8762,1.8762,1.8762,1.8762,1.8762,1.8762,1.8762,1.8762,1.8762,1.8762,1.8762,1.8762,1.8762,1.8762,1.8762,1.8762,1.8762,1.8762,1.8762,1.8762,1.8762,1.8762,1.8762,1.8762,1.8762,1.8762,1.8762,1.8762,1.8762,1.8762,1.8762,1.8762,1.8762,1.8762,1.8762,1.8762,1.8762,1.8762,1.8762,1.8762,1.8762,1.8762,1.8762,1.8762,1.8762,1.8762,1.8762,1.8762,1.8762,1.8762,1.8762,1.8762,1.8762,1.8762,1.8065,1.782,1.782,1.7123,1.7123,1.782,1.782,1.8065,1.8762,1.8762,1.8762,1.8762,1.8762,1.8762,1.8762,1.8762,1.8762,1.8762,1.8762,1.8762,1.8762,1.8762,1.8762,1.8762,1.8762,1.8762,1.8762,1.8762,1.8762,1.8762,1.8762,1.8762,1.8762,1.8762,1.8762,1.8762,1.8762,1.8762,1.8762,1.8762,1.8762,1.8762,1.8762,1.8762,1.8762,1.8762,1.8762,1.8762,1.8762,1.8762,1.8762,1.8762,1.8762,1.8762,1.8762,1.8762,1.8762,1.8762,1.8762,1.8762,1.8762,1.8762,1.8762,1.8762,1.8762,1.8762,1.8762,1.8762,1.8762,1.8762,1.8762,1.8762,1.8762,1.8762,1.8762,1.8762,1.8762,1.8762,1.8762,1.8762,1.8762,1.8762,1.8762,1.8762,1.8762,1.8762,1.8762,1.8762,1.8762,1.8762,1.8762,1.8762,1.8762,1.8762,1.8762,1.8762,1.8762,1.8762,1.8762,1.8762,1.8762,1.8762,1.8762,1.8762,1.8762,1.8762,1.8762,1.8762,1.8762,1.8762,1.8762,1.8762,1.8762,1.8762,1.8762,1.8762,1.8523,1.8523,1.8523,1.8298,1.8298,1.8523,1.8523,1.8523,1.8762,1.8762,1.8762,1.8762,1.8762,1.8762,1.8762,1.8762,1.8762,1.8762,1.8762,1.8762,1.8762,1.8762,1.8762,1.8762,1.8762,1.8762,1.8762,1.8762,1.8762,1.8762,1.8762,1.8762,1.8762,1.8762,1.8762,1.8762,1.8762,1.8762,1.8762,1.8762,1.8762,1.8762,1.8762,1.8762,1.8762,1.8762,1.8762,1.8762,1.8762,1.8762,1.8762,1.8762,1.8762,1.8762,1.8762,1.8762,1.8762,1.8762,1.8762,1.8762,1.8762,1.8762,1.8762,1.8762,1.8762,1.8762,1.8762,1.8762,1.8762,1.8762,1.8762,1.8762,1.8762,1.8762,1.8762,1.8762,1.8762,1.8762,1.8762,1.8762,1.8762,1.8762,1.8762,1.8762,1.8762,1.8762,1.8762,1.8762,1.8762,1.8762,1.8762,1.8762,1.8762,1.8762,1.8762,1.8762,1.8762,1.8762,1.8762,1.8762,1.8762,1.8762,1.8762,1.8762,1.8762,1.8762,1.8762,1.8762,1.8762,1.8762,1.8762,1.8762,1.8762,1.8762,1.8762,1.8762,1.8762,1.8762,1.8762,1.8762,1.8762,1.8762,1.8762,1.8762,1.8762,1.8762,1.8762,1.8762,1.8762,1.8762,1.8762,1.8762,1.8762,1.8762,1.8762,1.8762,1.8762,1.8762,1.8762,1.8762,1.8762,1.8762,1.8762,1.8762,1.8762,1.8762,1.8762,1.8762,1.8762,1.8762,1.8762,1.8762,1.8762,1.8762,1.8762,1.8762,1.8762,1.8762,1.8762,1.8762,1.8762,1.8762,1.8762,1.8762,1.8762,1.8762,1.8762,1.8762,1.8762,1.8762,1.8762,1.8762,1.8762,1.8762,1.8762,1.8762,1.8762,1.8762,1.8762,1.8762,1.8762,1.8762,1.8762,1.8762,1.8762,1.8762,1.8762,1.8762,1.8762,1.8762,1.8762,1.8762,1.8762,1.8762,1.8762,1.8762,1.8762,1.8762,1.8762,1.8762,1.8762,1.8762,1.8762,1.8762,1.8762,1.8762,1.8762,1.8762,1.8762,1.8762,1.8762,1.8762,1.8762,1.8762,1.8762,1.8762,1.8762,1.8762,1.8762,1.8762,1.8762,1.8762,1.8762,1.8762,1.8762,1.8762,1.8762,1.8762,1.8762,1.8762,1.8762,1.8762,1.8762,1.8762,1.8762,1.8762,1.8762,1.8762,1.8762,1.8762,1.8762,1.8762,1.8762,1.8762,1.8762,1.8762,1.8762,1.8762,1.8762,1.8762,1.8762,1.8762,1.8762,1.8762,1.8762,1.8762,1.8762,1.8762,1.8762,1.8762,1.8762,1.8762,1.8762,1.8762,1.8762,1.8762,1.8762,1.8762,1.8762,1.8762,1.8762,1.8762,1.8762,1.8762,1.8762,1.8762,1.8762,1.8762,1.8762,1.8762,1.8762,1.8762,1.8762,1.8762,1.8762,1.8762,1.8762,1.8762,1.8762,1.8762,1.8762,1.8762,1.8762,1.8762,1.8762,1.8762,1.8762,1.8762,1.8762,1.8762,1.8762,1.8762,1.8762,1.8762,1.8762,1.8762,1.8762,1.8762,1.8762,1.8762,1.8762,1.8762,1.8762,1.8762,1.8762,1.8762,1.8762,1.8762,1.8762,1.8762,1.8762,1.8762,1.8762,1.8762,1.8762,1.8762,1.8762,1.8762,1.8762,1.8762,1.8762,1.8762,1.8762,1.8762,1.8762,1.8762,1.8762,1.8762,1.8762,1.8762,1.8762,1.8762,1.8762,1.8762,1.8762,1.8762,1.8762,1.8762,1.8762,1.8762,1.8762,1.8762,1.8762,1.8762,1.8762,1.8762,1.8762,1.8762,1.8762,1.8762,1.8762,1.8762,1.8762,1.8762,1.8762,1.8762,1.8762,1.8762,1.8762,1.8762,1.8762,1.8762,1.8762,1.8762,1.8762,1.8762,1.8762,1.8762,1.8762,1.8762,1.8762,1.8762,1.8762,1.8762,1.8762,1.8762,1.8762,1.8762,1.8762,1.8762,1.8762,1.8762,1.8762,1.8762,1.8762,1.8762,1.8762,1.8762,1.8762,1.8762,1.8762,1.8762,1.8762,1.8762,1.8762,1.8762,1.8762,1.8762,1.8762,1.8762,1.8762,1.8762,1.8762,1.8762,1.8762,1.8762,1.8762,1.8762,1.8762,1.8762,1.8762,1.8762,1.8762,1.8762,1.8762,1.8762,1.8762,1.8762,1.8762,1.8762,1.8762,1.8762,1.8762,1.8762,1.8762,1.8762,1.8762,1.8762,1.8762,1.8762,1.8762,1.8762,1.8762,1.8762,1.8762,1.8762,1.8762,1.8762,1.8762,1.8762,1.8762,1.8762,1.8762,1.8762,1.8762,1.8762,1.8762,1.8762,1.8762,1.8762,1.8762,1.8762,1.8762,1.8762,1.8762,1.8762,1.8762,1.8762,1.8762,1.8762,1.8762,1.8762,1.8762,1.8762,1.8762,1.8762,1.8762,1.8762,1.8762,1.8762,1.8762,1.8762,1.8762,1.8762,1.8762,1.8762,1.8762,1.8762,1.8762,1.8762,1.8762,1.8762,1.8762,1.8762,1.8762,1.8762,1.8762,1.8762,1.8762,1.8762,1.8762,1.8762,1.8762,1.8762,1.8762,1.8762,1.8762,1.8762,1.8762,1.8762,1.8762,1.8762,1.8762,1.8762,1.8762,1.8762,1.8762,1.8762,1.8762,1.8762,1.8762,1.8762,1.8762,1.8762,1.8762,1.8762,1.8762,1.8762,1.8762,1.8762,1.8762,1.8762,1.8762,1.8762,1.8762,1.8762,1.8762,1.8762,1.8762,1.8762,1.8762,1.8762,1.8762,1.8762,1.8762,1.8762,1.8762,1.8762,1.8762,1.8762,1.8762,1.8762,1.8762,1.8762,1.8762,1.8762,1.8762,1.8762,1.8762,1.8762,1.8762,1.8762,1.8762,1.8762,1.8762,1.8762,1.8762,1.8762,1.8762,1.8762,1.8762,1.8762,1.8762,1.8762,1.8762,1.8762,1.8762,1.8762,1.8762,1.8762,1.8762,1.8762,1.8762,1.8762,1.8762,1.8762,1.8762,1.8762,1.8762,1.8762,1.8762,1.8762,1.8762,1.8762,1.8762,1.8762,1.8762,1.8762,1.8762,1.8762,1.8762,1.8762,1.8762,1.8762,1.8762,1.8762,1.8762,1.8762,1.8762,1.8762,1.8762,1.8762,1.8762,1.8762,1.8762,1.8762,1.8762,1.8762,1.8762,1.8762,1.8762,1.8762,1.8762,1.8762,1.8762,1.8762,1.8762,1.8762,1.8762,1.8762,1.8762,1.8762,1.8762,1.8762,1.8762,1.8762,1.8762,1.8762,1.8762,1.8762,1.8762,1.8762,1.8762,1.8762,1.8762,1.8762,1.8762,1.8762,1.8762,1.8762,1.8762,1.8762,1.8762,1.8762,1.8762,1.8762,1.8762,1.8762,1.8762,1.8762,1.8762,1.8762,1.8762,1.8762,1.8762,1.8762,1.8762,1.8762,1.8762,1.8762,1.8762,1.8762,1.8762,1.8762,1.8762,1.8762,1.8762,1.8762,1.8762,1.8762,1.8762,1.8762,1.8762,1.8762,1.8762,1.8762,1.8762,1.8762,1.8762,1.8762,1.8762,1.8762,1.8762,1.8762,1.8762,1.8762,1.8762,1.8762,1.8762,1.8762,1.8762,1.8762,1.8762,1.8762,1.8762,1.8762,1.8762,1.8762,1.8762,1.8762,1.8762,1.8762,1.8762,1.8762,1.8762,1.8762,1.8762,1.8762,1.8762,1.8762,1.8762,1.8762,1.8762,1.8762,1.8762,1.8762,1.8762,1.8762,1.8762,1.8762,1.8762,1.8762,1.8762,1.8762,1.8762,1.8762,1.8762,1.8762,1.8762,1.8762,1.8762,1.8762,1.8762,1.8762,1.8762,1.8762,1.8762,1.8762,1.8762,1.8762,1.8762,1.8762,1.8762,1.8762,1.8762,1.8762,1.8762,1.8762,1.8762,1.8762,1.8762,1.8762,1.8762,1.8762,1.8762,1.8762,1.8762,1.8762,1.8762,1.8762,1.8762,1.8762,1.8762,1.8762,1.8762,1.8762,1.8762,1.8762,1.8762,1.8762,1.8762,1.8762,1.8762,1.8762,1.8762,1.8762,1.8762,1.8762,1.8762,1.8762,1.8762,1.8762,1.8762,1.8762,1.8762,1.8762,1.8762,1.8762,1.8762,1.8762,1.8762,1.8762,1.8762,1.8762,1.8762,1.8762,1.8762,1.8762,1.8762,1.8762,1.8762,1.8762,1.8762,1.8762,1.8762,1.8762,1.8762,1.8762,1.8762,1.8762,1.8762,1.8762,1.8762,1.8762,1.8762,1.8762,1.8762,1.8762,1.8762,1.8762,1.8762,1.8762,1.8762]}]]